[[{"header":{"parameterUnit":"m.s-1","parameterCategory":1,"la1":30.6,"la2":29.2853,"lo1":-89.7004,"lo2":-87.6739,"dy":0.0162,"dx":0.0183,"nx":112,"ny":82,"refTime":"2024-02-22T18:00:00:Z","depth":0,"parameterNumber":2,"parameterNumberName":"U-component_of_WINDS"},"data":[0.0,0.0,0.0,0.0,0.0,0.0,0.0,0.0,0.0,0.0,0.0,0.0,0.0,0.0,0.0,0.0,0.0,0.0,0.0,0.0,0.0,0.0,0.0,0.0,0.0,0.0,0.0,0.0,0.0,0.0,0.0,0.0,0.0,0.0,0.0,0.0,0.0,0.0,0.0,0.0,0.0,0.0,0.0,0.0,0.0,0.0,0.0,0.0,0.0,0.0,0.0,0.0,0.0,0.0,0.0,0.0,0.0,0.0,0.0,0.0,0.0,0.0,0.0,0.0,0.0,0.0,0.0,0.0,0.0,0.0,0.0,0.0,0.0,0.0,0.0,0.0,0.0,0.0,0.0,0.0,0.0,0.0,0.0,0.0,0.0,0.0,0.0,0.0,0.0,0.0,-6.102,-6.1064,-6.1204,-6.1348,-6.1486,-6.1216,-6.101,-6.1002,0.0,0.0,0.0,0.0,0.0,0.0,0.0,0.0,0.0,0.0,0.0,0.0,0.0,0.0,0.0,0.0,0.0,0.0,0.0,0.0,0.0,0.0,0.0,0.0,0.0,0.0,0.0,0.0,0.0,0.0,0.0,0.0,0.0,0.0,0.0,0.0,0.0,0.0,0.0,0.0,0.0,0.0,0.0,0.0,0.0,0.0,0.0,0.0,0.0,0.0,0.0,0.0,0.0,0.0,0.0,0.0,0.0,0.0,0.0,0.0,0.0,0.0,0.0,0.0,0.0,0.0,0.0,0.0,0.0,0.0,0.0,0.0,0.0,0.0,0.0,0.0,0.0,0.0,0.0,0.0,0.0,0.0,0.0,0.0,0.0,0.0,0.0,0.0,0.0,0.0,0.0,0.0,0.0,0.0,0.0,0.0,0.0,0.0,0.0,0.0,0.0,0.0,0.0,0.0,-6.1106,-6.1379,-6.153,-6.1595,-6.1514,-6.1311,-6.1108,-6.1011,0.0,0.0,0.0,0.0,0.0,0.0,0.0,0.0,0.0,0.0,0.0,0.0,0.0,0.0,0.0,0.0,0.0,0.0,0.0,0.0,0.0,0.0,0.0,0.0,0.0,0.0,0.0,0.0,0.0,0.0,0.0,0.0,0.0,0.0,0.0,0.0,0.0,0.0,0.0,0.0,0.0,0.0,0.0,0.0,0.0,0.0,0.0,0.0,0.0,0.0,0.0,0.0,0.0,0.0,0.0,0.0,0.0,0.0,0.0,0.0,0.0,0.0,0.0,0.0,0.0,0.0,0.0,0.0,0.0,0.0,0.0,0.0,0.0,0.0,0.0,0.0,0.0,0.0,0.0,0.0,0.0,0.0,0.0,0.0,0.0,0.0,0.0,0.0,0.0,0.0,0.0,0.0,0.0,0.0,0.0,0.0,0.0,0.0,0.0,0.0,0.0,0.0,0.0,-6.0801,-6.083,-6.1529,-6.1666,-6.1688,-6.1602,-6.1461,-6.1279,-6.1128,-6.0974,0.0,0.0,0.0,0.0,0.0,0.0,0.0,0.0,0.0,0.0,0.0,0.0,0.0,0.0,0.0,0.0,0.0,0.0,0.0,0.0,0.0,0.0,0.0,0.0,0.0,0.0,0.0,0.0,0.0,0.0,0.0,0.0,0.0,0.0,0.0,0.0,0.0,0.0,0.0,0.0,0.0,0.0,0.0,0.0,0.0,0.0,0.0,0.0,0.0,0.0,0.0,0.0,0.0,0.0,0.0,0.0,0.0,0.0,0.0,0.0,0.0,0.0,0.0,0.0,0.0,0.0,0.0,0.0,0.0,0.0,0.0,0.0,0.0,0.0,0.0,0.0,0.0,0.0,0.0,0.0,0.0,0.0,0.0,0.0,0.0,0.0,0.0,0.0,0.0,0.0,0.0,0.0,0.0,0.0,0.0,0.0,0.0,0.0,0.0,0.0,0.0,0.0,-6.0239,-6.0226,-6.1,-6.11,-6.1098,-6.1098,-6.1155,-6.1125,-6.0974,-6.1011,0.0,0.0,0.0,0.0,0.0,0.0,0.0,0.0,0.0,0.0,0.0,0.0,0.0,0.0,0.0,0.0,0.0,0.0,0.0,0.0,0.0,0.0,0.0,0.0,0.0,0.0,0.0,0.0,0.0,0.0,0.0,0.0,0.0,0.0,0.0,0.0,0.0,0.0,0.0,0.0,0.0,0.0,0.0,0.0,0.0,0.0,0.0,0.0,0.0,0.0,0.0,0.0,0.0,0.0,0.0,0.0,0.0,0.0,0.0,0.0,0.0,0.0,0.0,0.0,0.0,0.0,0.0,0.0,0.0,0.0,0.0,0.0,0.0,0.0,0.0,0.0,0.0,0.0,0.0,0.0,0.0,0.0,0.0,0.0,0.0,0.0,0.0,0.0,0.0,0.0,0.0,0.0,0.0,0.0,0.0,0.0,0.0,0.0,0.0,0.0,0.0,0.0,-5.914,-5.9197,-5.9284,-5.9278,-5.9275,-5.9275,-5.9891,-6.0292,-6.0268,-6.0858,0.0,0.0,0.0,0.0,0.0,0.0,0.0,0.0,0.0,0.0,0.0,0.0,0.0,0.0,0.0,0.0,0.0,0.0,0.0,0.0,0.0,0.0,0.0,0.0,0.0,0.0,0.0,0.0,0.0,0.0,0.0,0.0,0.0,0.0,0.0,0.0,0.0,0.0,0.0,0.0,0.0,0.0,0.0,0.0,0.0,0.0,0.0,0.0,0.0,0.0,0.0,0.0,0.0,0.0,0.0,0.0,0.0,0.0,0.0,0.0,0.0,0.0,0.0,0.0,0.0,0.0,0.0,0.0,0.0,0.0,0.0,0.0,0.0,0.0,0.0,0.0,0.0,0.0,0.0,0.0,0.0,0.0,0.0,0.0,0.0,0.0,0.0,0.0,0.0,0.0,0.0,0.0,0.0,0.0,0.0,0.0,0.0,0.0,0.0,0.0,0.0,0.0,-5.859,-5.8542,0.0,-5.9108,-5.9105,-5.9099,-5.9354,-5.9472,-5.9386,0.0,0.0,0.0,0.0,0.0,0.0,0.0,0.0,0.0,0.0,0.0,0.0,0.0,0.0,0.0,0.0,0.0,0.0,0.0,0.0,0.0,0.0,0.0,0.0,0.0,0.0,0.0,0.0,0.0,0.0,0.0,0.0,0.0,0.0,0.0,0.0,0.0,0.0,0.0,0.0,0.0,0.0,0.0,0.0,0.0,0.0,0.0,0.0,0.0,0.0,0.0,0.0,0.0,0.0,0.0,0.0,0.0,0.0,0.0,0.0,0.0,0.0,0.0,0.0,0.0,0.0,0.0,0.0,0.0,0.0,0.0,0.0,0.0,0.0,0.0,0.0,0.0,0.0,0.0,0.0,0.0,0.0,0.0,0.0,0.0,0.0,0.0,0.0,0.0,0.0,0.0,0.0,0.0,0.0,0.0,0.0,0.0,0.0,0.0,0.0,0.0,0.0,-5.811,-5.7768,-5.7709,0.0,-5.8314,-5.8311,-5.8308,-5.8536,-5.8656,-5.8561,0.0,0.0,0.0,0.0,0.0,0.0,0.0,0.0,0.0,0.0,0.0,0.0,0.0,0.0,0.0,0.0,0.0,0.0,0.0,0.0,0.0,0.0,0.0,0.0,0.0,0.0,0.0,0.0,0.0,0.0,0.0,0.0,0.0,0.0,0.0,0.0,0.0,0.0,0.0,0.0,0.0,0.0,0.0,0.0,0.0,0.0,0.0,0.0,0.0,0.0,0.0,0.0,0.0,0.0,0.0,0.0,0.0,0.0,0.0,0.0,0.0,0.0,0.0,0.0,0.0,0.0,0.0,0.0,0.0,0.0,0.0,0.0,0.0,0.0,0.0,0.0,0.0,0.0,0.0,0.0,0.0,0.0,0.0,0.0,0.0,0.0,0.0,0.0,0.0,0.0,0.0,0.0,0.0,0.0,0.0,0.0,0.0,0.0,0.0,0.0,0.0,0.0,-5.6686,-5.6597,-5.66,-5.6601,-5.6601,-5.6599,-5.6599,-5.7333,-5.7793,0.0,0.0,0.0,0.0,0.0,0.0,0.0,0.0,0.0,0.0,0.0,0.0,0.0,0.0,0.0,0.0,0.0,0.0,0.0,0.0,0.0,0.0,0.0,0.0,0.0,0.0,0.0,0.0,0.0,0.0,0.0,0.0,0.0,0.0,0.0,0.0,0.0,0.0,0.0,0.0,0.0,0.0,0.0,0.0,0.0,0.0,0.0,0.0,0.0,0.0,0.0,0.0,0.0,0.0,0.0,0.0,0.0,0.0,0.0,0.0,0.0,0.0,0.0,0.0,0.0,0.0,0.0,0.0,0.0,0.0,0.0,0.0,0.0,0.0,0.0,0.0,0.0,0.0,0.0,0.0,0.0,0.0,0.0,0.0,0.0,0.0,0.0,0.0,0.0,0.0,0.0,0.0,0.0,0.0,0.0,0.0,0.0,0.0,0.0,0.0,0.0,0.0,0.0,-5.6636,-5.66,-5.6601,-5.6601,-5.6601,-5.6601,-5.6599,-5.6812,-5.6944,-5.6953,0.0,0.0,0.0,0.0,0.0,0.0,0.0,0.0,0.0,0.0,0.0,0.0,0.0,0.0,0.0,0.0,0.0,0.0,0.0,0.0,0.0,0.0,0.0,0.0,0.0,0.0,0.0,0.0,0.0,0.0,0.0,0.0,0.0,0.0,0.0,0.0,0.0,0.0,0.0,0.0,0.0,0.0,0.0,0.0,0.0,0.0,0.0,0.0,0.0,0.0,0.0,0.0,0.0,0.0,0.0,0.0,0.0,0.0,0.0,0.0,0.0,0.0,0.0,0.0,0.0,0.0,0.0,0.0,0.0,0.0,0.0,0.0,0.0,0.0,0.0,0.0,0.0,0.0,0.0,0.0,0.0,0.0,0.0,0.0,0.0,0.0,0.0,0.0,0.0,0.0,0.0,0.0,0.0,0.0,0.0,0.0,0.0,0.0,0.0,0.0,0.0,0.0,-5.6599,-5.6601,-5.6601,-5.6601,-5.6601,-5.6601,-5.6601,-5.66,-5.6597,-5.6592,0.0,0.0,0.0,0.0,0.0,0.0,0.0,0.0,0.0,0.0,0.0,0.0,0.0,0.0,0.0,0.0,0.0,0.0,0.0,0.0,0.0,0.0,0.0,0.0,0.0,0.0,0.0,0.0,0.0,0.0,0.0,0.0,0.0,0.0,0.0,0.0,0.0,0.0,0.0,0.0,0.0,0.0,0.0,0.0,0.0,0.0,0.0,0.0,0.0,0.0,0.0,0.0,0.0,0.0,0.0,0.0,0.0,0.0,0.0,0.0,0.0,0.0,0.0,0.0,0.0,0.0,0.0,0.0,0.0,0.0,0.0,0.0,0.0,0.0,0.0,0.0,0.0,0.0,0.0,0.0,0.0,0.0,0.0,0.0,0.0,0.0,0.0,0.0,0.0,0.0,0.0,0.0,0.0,0.0,0.0,0.0,0.0,0.0,0.0,0.0,0.0,0.0,-5.6599,-5.6601,-5.6601,-5.6601,-5.6601,-5.6601,-5.6601,-5.6601,-5.6599,-5.6599,0.0,0.0,0.0,0.0,0.0,0.0,0.0,0.0,0.0,0.0,0.0,0.0,0.0,0.0,0.0,0.0,0.0,0.0,0.0,0.0,0.0,0.0,0.0,0.0,0.0,0.0,0.0,0.0,0.0,0.0,0.0,0.0,0.0,0.0,0.0,0.0,0.0,0.0,0.0,0.0,0.0,0.0,0.0,0.0,0.0,0.0,0.0,0.0,0.0,0.0,0.0,0.0,0.0,0.0,0.0,0.0,0.0,0.0,0.0,0.0,-6.1303,0.0,0.0,0.0,0.0,0.0,0.0,0.0,0.0,0.0,0.0,0.0,0.0,0.0,0.0,0.0,0.0,0.0,0.0,0.0,0.0,0.0,0.0,0.0,0.0,0.0,0.0,0.0,0.0,0.0,0.0,0.0,0.0,0.0,0.0,0.0,0.0,0.0,0.0,0.0,0.0,0.0,-5.6601,-5.6601,-5.6601,-5.6601,-5.6601,-5.6601,-5.6601,-5.6601,-5.6601,-5.6599,-5.6599,0.0,0.0,0.0,0.0,0.0,0.0,0.0,0.0,0.0,0.0,0.0,0.0,0.0,0.0,0.0,0.0,0.0,0.0,0.0,0.0,0.0,0.0,0.0,0.0,0.0,0.0,0.0,0.0,0.0,0.0,0.0,0.0,0.0,0.0,0.0,0.0,0.0,0.0,0.0,0.0,0.0,0.0,0.0,0.0,0.0,0.0,0.0,0.0,0.0,0.0,0.0,0.0,0.0,0.0,0.0,0.0,0.0,0.0,0.0,0.0,-6.1397,0.0,0.0,0.0,0.0,0.0,0.0,0.0,0.0,0.0,0.0,0.0,0.0,0.0,0.0,0.0,0.0,0.0,0.0,0.0,0.0,0.0,0.0,0.0,0.0,0.0,0.0,0.0,0.0,0.0,0.0,0.0,0.0,0.0,0.0,0.0,0.0,0.0,0.0,0.0,0.0,-5.6601,-5.6601,-5.6601,-5.6601,-5.6601,-5.6601,-5.6601,-5.6601,-5.6601,-5.6601,-5.6601,0.0,0.0,0.0,0.0,0.0,0.0,0.0,0.0,0.0,0.0,0.0,0.0,0.0,0.0,0.0,0.0,0.0,0.0,0.0,0.0,0.0,0.0,0.0,0.0,0.0,0.0,0.0,0.0,0.0,0.0,0.0,0.0,0.0,0.0,0.0,0.0,0.0,0.0,0.0,0.0,0.0,0.0,0.0,0.0,0.0,0.0,0.0,0.0,0.0,0.0,0.0,0.0,0.0,-6.1327,-6.1249,-6.123,-6.0666,-6.0393,-6.0432,-6.1154,-6.1322,-6.1084,-6.1084,0.0,0.0,0.0,0.0,0.0,0.0,0.0,0.0,0.0,0.0,0.0,0.0,0.0,0.0,0.0,0.0,0.0,0.0,0.0,0.0,0.0,0.0,0.0,0.0,-5.6742,-5.6441,0.0,0.0,0.0,0.0,0.0,0.0,0.0,0.0,0.0,0.0,0.0,0.0,-5.6601,-5.6601,-5.6601,-5.6601,-5.6601,-5.6601,-5.6601,-5.6601,-5.6601,-5.6601,-5.6601,-5.6601,0.0,0.0,0.0,0.0,0.0,0.0,0.0,0.0,0.0,0.0,0.0,0.0,0.0,0.0,0.0,0.0,0.0,0.0,0.0,0.0,0.0,0.0,0.0,0.0,0.0,0.0,0.0,0.0,0.0,0.0,0.0,0.0,-6.1461,-6.1486,0.0,0.0,0.0,0.0,0.0,0.0,0.0,0.0,0.0,0.0,0.0,0.0,0.0,-6.1698,-6.1698,-6.0959,-6.0568,-6.0568,-5.9807,-5.9434,-5.9454,-6.0119,-6.0393,-6.0412,-6.0529,0.0,-5.9424,-5.9424,0.0,0.0,0.0,0.0,0.0,0.0,0.0,0.0,0.0,0.0,0.0,0.0,0.0,0.0,0.0,0.0,0.0,0.0,0.0,0.0,0.0,0.0,-5.6714,-5.6714,-5.6618,-5.6579,0.0,-5.6601,-5.6285,-5.5418,-5.5348,0.0,0.0,0.0,0.0,0.0,0.0,0.0,-5.6601,-5.6601,-5.6601,-5.6601,-5.6601,-5.6601,-5.6601,-5.6601,-5.6601,-5.6601,-5.6601,-5.6601,-5.6601,-5.6601,0.0,0.0,0.0,0.0,0.0,0.0,0.0,0.0,0.0,0.0,0.0,0.0,0.0,0.0,0.0,0.0,0.0,0.0,0.0,0.0,0.0,0.0,0.0,0.0,0.0,0.0,0.0,0.0,0.0,-6.1349,-6.1528,-6.1595,-6.1666,-6.1703,0.0,0.0,0.0,0.0,0.0,0.0,0.0,0.0,0.0,-6.0968,-6.0499,-6.0241,-6.0234,-5.9866,-5.9671,-5.9651,-5.928,-5.9102,-5.9102,-5.8987,-5.8948,-5.8909,-5.846,-5.805,-5.7777,-5.8712,-5.8812,-5.836,0.0,0.0,0.0,0.0,-5.7513,-5.7525,-5.7525,-5.7513,0.0,-5.7521,0.0,0.0,0.0,0.0,0.0,0.0,0.0,0.0,0.0,0.0,-5.6593,-5.6593,-5.6595,-5.6597,-5.6597,-5.6553,-5.6408,0.0,-5.5998,-5.6028,-5.603,0.0,0.0,0.0,0.0,-5.6601,-5.6601,-5.6601,-5.6601,-5.6601,-5.6601,-5.6601,-5.6601,-5.6601,-5.6601,-5.6601,-5.6601,-5.6601,-5.6601,-5.6601,-5.6581,0.0,0.0,0.0,0.0,0.0,0.0,0.0,0.0,0.0,0.0,0.0,0.0,0.0,0.0,0.0,0.0,0.0,0.0,0.0,0.0,0.0,0.0,0.0,0.0,0.0,0.0,0.0,0.0,-6.1397,-6.1595,-6.1681,-6.1707,-6.1692,0.0,0.0,0.0,0.0,0.0,0.0,-6.1044,-6.0419,-6.0065,-6.0061,-5.9434,-5.9099,-5.9091,-5.8898,-5.8781,-5.8781,-5.8562,-5.8463,-5.8443,-5.7994,-5.7797,-5.7777,-5.7172,-5.6918,-5.6996,-5.8031,-5.8072,-5.7489,-5.7489,-5.7139,-5.6595,-5.6595,-5.6598,-5.6605,-5.6605,-5.6607,-5.6593,-5.6593,-5.6593,-5.6589,-5.6482,0.0,0.0,0.0,0.0,-5.6595,-5.6597,-5.6597,-5.6597,-5.6597,-5.6599,-5.66,-5.66,-5.6601,-5.6523,0.0,-5.6265,-5.6265,-5.6268,0.0,0.0,0.0,0.0,-5.6601,-5.6601,-5.6601,-5.6601,-5.6601,-5.6601,-5.6601,-5.6601,-5.6601,-5.6582,-5.658,-5.658,-5.6558,-5.6515,-5.6515,-5.6504,-5.645,0.0,0.0,0.0,0.0,0.0,0.0,0.0,0.0,0.0,0.0,0.0,0.0,0.0,0.0,0.0,0.0,0.0,0.0,0.0,0.0,0.0,0.0,0.0,0.0,0.0,0.0,0.0,0.0,0.0,-6.1697,-6.1704,0.0,0.0,0.0,0.0,-6.0536,-6.0478,-6.0107,-5.9267,-5.9189,-5.9169,-5.9169,-5.9111,-5.909,-5.909,-5.8349,-5.7959,-5.7959,-5.7112,-5.6737,-5.6756,-5.7469,-5.7797,-5.7797,-5.7758,-5.7738,-5.7699,-5.7016,-5.671,-5.6658,-5.6658,-5.6644,-5.6592,-5.6592,-5.6592,-5.6592,-5.6592,-5.6593,-5.6593,-5.6593,-5.6593,-5.6593,-5.6592,-5.6591,0.0,0.0,-5.6599,-5.66,-5.6601,-5.6601,-5.6601,-5.6601,-5.6601,-5.6601,-5.6601,-5.6601,-5.6367,0.0,-5.5371,-5.5371,-5.5371,0.0,-5.5644,-5.6484,-5.6601,-5.6601,-5.6601,-5.6601,-5.6601,-5.6601,-5.6601,-5.6601,-5.6601,-5.6601,-5.6579,-5.6515,-5.6511,-5.645,-5.6328,-5.6324,-5.6301,-5.6316,-5.6301,0.0,0.0,0.0,0.0,0.0,0.0,0.0,0.0,0.0,0.0,0.0,0.0,0.0,0.0,0.0,0.0,0.0,0.0,0.0,0.0,0.0,0.0,0.0,0.0,0.0,0.0,0.0,0.0,-6.1705,-6.1199,0.0,-6.0855,-6.0406,-5.9957,-5.9647,-5.9627,-5.9491,-5.9178,-5.8631,-5.8337,-5.8336,-5.7789,-5.7494,-5.7491,-5.7218,-5.7061,-5.7061,-5.6747,-5.6609,-5.6609,-5.6899,-5.7034,-5.7034,-5.7034,-5.7034,-5.7015,-5.6722,-5.6603,-5.6602,-5.6607,-5.6591,-5.6593,-5.6593,-5.6595,-5.6597,-5.6597,-5.6599,-5.66,-5.66,-5.66,-5.66,-5.66,-5.66,-5.6601,-5.6601,-5.6601,-5.6601,-5.6601,-5.6601,-5.6601,-5.6601,-5.6601,-5.6601,-5.6601,-5.6601,-5.6348,-5.5469,-5.5742,-5.6133,-5.6133,-5.6133,-5.623,-5.6543,-5.6601,-5.6601,-5.6601,-5.6601,-5.6601,-5.6601,-5.6601,-5.6581,-5.6549,-5.6548,-5.6493,-5.6377,-5.6374,-5.634,-5.6292,-5.6292,-5.6281,-5.6247,-5.6276,-5.6246,0.0,0.0,0.0,0.0,0.0,0.0,0.0,0.0,0.0,0.0,0.0,0.0,0.0,0.0,0.0,0.0,0.0,0.0,0.0,0.0,0.0,0.0,0.0,0.0,0.0,0.0,-6.1259,-6.1262,-6.0502,-5.9996,-5.9999,-5.9511,-5.9081,-5.8789,-5.8769,-5.8633,-5.834,-5.7773,-5.7461,-5.746,-5.6894,-5.66,-5.6597,-5.6597,-5.6597,-5.6597,-5.6596,-5.6596,-5.6595,-5.6594,-5.6593,-5.6593,-5.6593,-5.6593,-5.6593,-5.6595,-5.6593,-5.661,-5.6594,-5.6597,-5.6597,-5.6597,-5.6599,-5.6601,-5.6601,-5.6601,-5.6601,-5.6601,-5.6601,-5.6601,-5.6601,-5.6601,-5.6601,-5.6601,-5.6601,-5.6601,-5.6601,-5.6601,-5.6601,-5.6601,-5.6387,-5.6152,-5.6152,-5.5937,-5.5547,-5.4961,-5.5566,-5.6074,-5.5762,-5.5723,-5.582,-5.6113,-5.6152,-5.6269,-5.6562,-5.6601,-5.6601,-5.6601,-5.6601,-5.6579,-5.6511,-5.6508,-5.6439,-5.6286,-5.6281,-5.6241,-5.6203,-5.6203,-5.6181,-5.6119,-5.6181,-5.6128,-5.5979,0.0,0.0,0.0,0.0,0.0,0.0,0.0,0.0,0.0,0.0,0.0,0.0,0.0,0.0,0.0,0.0,0.0,0.0,0.0,0.0,0.0,0.0,0.0,-6.1459,-6.085,-6.0388,-6.0369,-5.9648,-5.916,-5.916,-5.9121,-5.8769,-5.793,-5.7851,-5.748,-5.664,-5.6601,-5.6601,-5.6601,-5.6601,-5.6601,-5.6601,-5.6601,-5.6601,-5.6601,-5.6601,-5.6599,-5.6599,-5.6596,-5.6593,-5.6593,-5.6593,-5.6593,-5.6594,-5.6598,-5.6599,-5.6599,-5.6599,-5.6601,-5.6601,-5.6601,-5.6601,-5.6601,-5.6601,-5.6601,-5.6601,-5.6601,-5.6601,-5.6601,-5.6601,-5.6601,-5.6601,-5.6601,-5.6601,-5.6601,-5.6601,-5.6601,-5.6582,-5.6562,-5.5918,-5.5293,-5.5273,-5.4609,-5.3984,-5.3965,-5.4648,-5.4961,-5.4141,-5.4004,-5.4297,-5.5137,-5.5273,0.0,-5.6445,-5.6582,-5.6601,-5.6601,-5.6601,-5.6579,-5.6508,-5.6484,-5.6413,-5.6207,-5.6188,-5.6146,-5.6012,-5.6003,-5.6003,-5.6003,-5.5998,-5.5971,-5.5895,0.0,0.0,0.0,0.0,0.0,0.0,0.0,0.0,0.0,0.0,0.0,0.0,0.0,0.0,0.0,0.0,0.0,0.0,0.0,0.0,0.0,0.0,-6.0549,-6.0682,-6.0521,-6.0174,-5.9609,-5.8789,-5.8262,-5.8262,-5.7695,-5.7226,-5.6973,-5.6953,-5.6855,-5.6601,-5.6601,-5.6601,-5.6601,-5.6601,-5.6601,-5.6601,-5.6601,-5.6601,-5.6601,-5.6601,-5.6601,-5.6601,-5.6601,-5.6601,-5.6601,-5.6601,-5.6601,-5.6601,-5.6601,-5.6601,-5.6601,-5.6601,-5.6601,-5.6601,-5.6601,-5.6601,-5.6601,-5.6601,-5.6601,-5.6601,-5.6601,-5.6601,-5.6601,-5.6601,-5.6601,-5.6601,-5.6601,-5.6601,-5.6601,-5.6601,-5.6601,-5.6445,-5.5801,-5.5469,-5.5137,-5.4492,-5.418,-5.3808,-5.3183,-5.3242,-5.3535,-5.3926,-5.4004,-5.4082,-5.4316,-5.4902,0.0,-5.5625,-5.6211,-5.6601,-5.6601,-5.6556,-5.6489,-5.6351,-5.6305,-5.6212,-5.6056,-5.604,-5.6046,-5.5998,-5.5998,-5.598,-5.5923,-5.5924,-5.5914,0.0,0.0,0.0,0.0,0.0,0.0,0.0,0.0,0.0,0.0,0.0,0.0,0.0,0.0,0.0,0.0,0.0,0.0,0.0,0.0,0.0,0.0,-6.046,-6.0,-5.9431,-5.9355,-5.9179,-5.8711,-5.8203,-5.7754,-5.7383,-5.7226,-5.6992,-5.6621,-5.6601,-5.6601,-5.6601,-5.6601,-5.6601,-5.6601,-5.6601,-5.6601,-5.6601,-5.6601,-5.6601,-5.6601,-5.6601,-5.6601,-5.6601,-5.6601,-5.6601,-5.6601,-5.6601,-5.6601,-5.6601,-5.6601,-5.6601,0.0,0.0,0.0,0.0,0.0,-5.6601,-5.6601,-5.6601,-5.6601,-5.6601,-5.6601,-5.6601,-5.6601,-5.6601,-5.6601,-5.6601,-5.6601,-5.6601,-5.6601,-5.6601,-5.6328,-5.5937,-5.543,-5.4746,-5.4062,-5.3555,-5.3164,-5.2754,-5.2246,-5.2168,0.0,-5.2812,-5.291,-5.3027,-5.3398,-5.3887,-5.4473,-5.5215,-5.5742,-5.6171,-5.6518,-5.6522,-5.6436,-5.6281,-5.6206,0.0,0.0,0.0,-5.5951,-5.5962,-5.5962,0.0,0.0,0.0,-5.5836,-5.5816,0.0,0.0,0.0,-5.5875,-5.5885,0.0,0.0,0.0,0.0,0.0,0.0,0.0,0.0,0.0,0.0,0.0,0.0,0.0,0.0,0.0,0.0,-6.0095,-5.9581,-5.8105,-5.789,-5.789,-5.789,-5.789,-5.7598,-5.6816,-5.7539,-5.7695,-5.6816,-5.6758,-5.6758,-5.6758,0.0,0.0,0.0,0.0,-5.6601,-5.6601,-5.6601,-5.6601,-5.6601,-5.6601,-5.6601,-5.6601,-5.6601,-5.6601,-5.6601,-5.6601,-5.6601,-5.6601,-5.6601,-5.6601,-5.6601,-5.6601,-5.6601,-5.6601,-5.6601,-5.6601,-5.6601,-5.6601,0.0,0.0,-5.6601,-5.6601,-5.6601,-5.6601,-5.6601,-5.6601,-5.6601,-5.6601,-5.6582,-5.6484,-5.5879,-5.5254,-5.5058,-5.3828,-5.2676,-5.2578,-5.1953,-5.1406,-5.1406,-5.1406,-5.1406,-5.1406,-5.1406,-5.166,-5.2441,-5.2637,-5.3281,-5.4921,-5.5214,-5.56,-5.6385,0.0,0.0,-5.6188,-5.6121,-5.6071,-5.5999,-5.5943,-5.5895,-5.5895,-5.5885,-5.5846,-5.5787,-5.5787,-5.5756,-5.5703,-5.5703,-5.5703,-5.5714,-5.5816,-5.5836,0.0,0.0,0.0,0.0,0.0,0.0,0.0,0.0,0.0,0.0,0.0,0.0,0.0,0.0,0.0,-6.0213,-5.9697,-5.9042,-5.8047,-5.789,-5.789,-5.789,-5.789,-5.7832,-5.7656,-5.8437,-5.8594,-5.7715,-5.7656,-5.7656,-5.7656,-5.6973,-5.6601,-5.6601,-5.6601,-5.6601,-5.6601,-5.6601,-5.6601,-5.6601,0.0,0.0,-5.6601,-5.6601,-5.6601,-5.6601,-5.6601,-5.6601,-5.6601,-5.6601,-5.6601,-5.6601,-5.6601,-5.6601,-5.6601,-5.6601,-5.6601,-5.6601,-5.6601,-5.6601,-5.6601,-5.6601,-5.6601,-5.6601,-5.6601,-5.6601,0.0,-5.6601,-5.6601,-5.6445,-5.5723,-5.543,-5.4941,-5.3535,-5.2949,-5.2519,-5.1797,-5.1523,-5.1406,-5.1406,-5.1406,-5.1406,-5.1406,-5.1406,-5.1464,-5.1621,-5.2244,-5.3037,-5.3971,-5.475,-5.5488,-5.6173,-5.626,-5.6206,-5.6054,-5.6024,-5.5998,-5.5914,-5.5846,-5.5826,-5.5826,-5.5766,-5.5735,-5.5724,-5.5724,-5.5714,-5.5703,-5.5703,-5.5703,-5.5703,-5.5724,-5.5735,0.0,0.0,0.0,0.0,0.0,0.0,0.0,0.0,0.0,0.0,0.0,-6.0402,-6.0867,0.0,-6.0438,-5.963,-5.8951,-5.8242,-5.7363,-5.7246,-5.7402,-5.7851,-5.8633,-5.8828,-5.7988,-5.9043,-5.9277,-5.8008,-5.789,-5.789,-5.789,-5.707,-5.6601,-5.6601,-5.6601,-5.6601,-5.6601,-5.6601,-5.6601,-5.6601,-5.6601,-5.6601,-5.6601,-5.6601,-5.6601,-5.6601,-5.6601,-5.6601,-5.6601,-5.6601,-5.6601,-5.6601,-5.6601,-5.6601,-5.6601,-5.6601,-5.6601,-5.6601,-5.6601,-5.6601,-5.6601,-5.6601,-5.6601,-5.6601,-5.6601,-5.6601,-5.6601,-5.6601,-5.6601,-5.6406,-5.5527,-5.498,-5.4316,-5.3008,-5.2363,-5.1933,-5.1484,-5.1406,-5.1406,-5.1406,-5.1406,-5.1406,-5.1406,-5.1406,-5.1405,-5.1406,-5.2145,-5.2996,-5.3803,-5.464,-5.5411,-5.6129,-5.6149,-5.6051,-5.5962,-5.5923,-5.5866,-5.5806,-5.5766,-5.5745,-5.5745,-5.5724,-5.5703,-5.5703,-5.5703,-5.5703,-5.5703,-5.5703,-5.5703,-5.5703,-5.5703,-5.5703,0.0,0.0,0.0,0.0,0.0,0.0,0.0,0.0,-5.9742,-6.0608,-6.0723,-6.0674,-6.0736,-6.0379,-5.978,-5.8803,-5.8204,-5.7577,-5.6719,-5.6758,-5.7109,-5.7812,-5.9082,-5.9375,-5.8027,-5.9277,-5.9531,-5.8008,-5.789,-5.789,-5.789,-5.707,-5.6601,-5.6601,-5.6601,-5.6601,-5.6601,-5.6601,-5.6601,-5.6601,-5.6601,-5.6601,-5.6601,-5.6601,-5.6601,-5.6601,-5.6601,-5.6601,-5.6601,-5.6601,-5.6601,-5.6601,-5.6601,-5.6601,-5.6601,-5.6601,-5.6601,-5.6601,-5.6601,-5.6601,-5.6601,-5.6601,-5.6601,-5.6601,-5.6601,-5.6601,-5.6601,-5.6601,-5.6601,-5.6406,-5.5527,-5.4648,-5.3789,-5.291,-5.2031,-5.1406,-5.1406,-5.1406,-5.1406,-5.1406,-5.1406,-5.1445,-5.1621,-5.166,-5.1659,-5.1659,-5.2241,-5.3074,-5.4084,-5.4702,-5.5344,-5.6055,-5.6042,-5.5952,-5.5885,-5.5826,-5.5756,-5.5695,-5.5703,-5.5703,-5.5703,-5.5703,-5.5703,-5.5703,-5.5703,-5.5703,-5.5703,-5.5703,-5.5703,-5.5703,-5.5703,-5.5703,-6.0512,-5.9954,-5.9377,-5.9377,-5.9435,-5.9704,0.0,0.0,-5.9742,-6.0608,-6.0286,-5.984,-5.983,-5.9938,-5.9516,-5.7985,-5.7726,-5.7464,-5.6718,-5.7265,-5.7793,-5.789,-5.8066,-5.8105,-5.793,-5.8769,-5.8945,-5.7969,-5.789,-5.789,-5.789,-5.707,-5.6601,-5.6601,-5.6601,-5.6601,-5.6601,-5.6601,-5.6601,-5.6601,-5.6601,-5.6601,-5.6601,-5.6601,-5.6601,-5.6601,-5.6601,-5.6601,-5.6601,-5.6601,-5.6601,-5.6601,-5.6601,-5.6601,-5.6601,-5.6601,-5.6601,-5.6601,-5.6601,-5.6601,-5.6601,-5.6601,-5.6601,-5.6601,-5.6601,-5.6601,-5.6601,-5.6601,-5.6601,-5.6406,-5.5527,-5.4648,-5.3789,-5.291,-5.2031,-5.1406,-5.1406,-5.1406,-5.1406,-5.1406,-5.1406,-5.1641,-5.2422,-5.2558,-5.2557,-5.2556,-5.2647,-5.3251,-5.4782,-5.4947,-5.519,-5.5857,-5.5921,-5.5885,-5.5826,-5.5745,-5.5714,-5.5703,-5.5703,-5.5703,-5.5703,-5.5703,-5.5703,-5.5703,-5.5703,-5.5703,-5.5703,-5.5703,-5.5703,-5.5703,-5.5703,-5.5703,-6.08,-6.0531,-6.0127,0.0,-5.9492,-5.9608,-5.9954,-5.9762,-5.9742,-6.0608,-6.0209,-5.9705,-5.9694,-5.903,-5.8266,0.0,-5.7201,-5.6885,-5.6588,-5.6892,-5.7148,-5.7148,-5.7148,-5.7344,-5.7851,-5.8691,-5.8848,-5.7969,-5.789,-5.789,-5.789,-5.707,-5.6601,-5.6601,-5.6601,-5.6601,-5.6601,-5.6601,-5.6601,-5.6601,-5.6601,-5.6601,-5.6601,-5.6601,-5.6601,-5.6601,-5.6601,-5.6601,-5.6601,-5.6601,-5.6601,-5.6601,-5.6601,-5.6601,-5.6601,-5.6601,-5.6601,-5.6601,-5.6601,-5.6601,-5.6601,-5.6601,-5.6601,-5.6601,-5.6601,-5.6601,-5.6601,-5.6601,-5.6601,-5.6406,-5.5527,-5.5039,-5.4531,-5.3652,-5.3183,-5.2773,-5.2266,-5.2558,-5.2754,-5.2266,-5.2578,-5.3027,-5.3398,-5.3457,-5.3632,-5.4136,-5.4207,-5.4467,-5.5123,-5.5434,-5.5654,-5.576,-5.5778,-5.5766,-5.5745,-5.5724,-5.5703,-5.5703,-5.5703,-5.5703,-5.5703,-5.5703,-5.5703,-5.5703,-5.5703,-5.5703,-5.5703,-5.5703,-5.5703,-5.5703,-5.5703,-5.5972,-6.0512,0.0,0.0,-5.9665,-5.9492,-5.9569,-5.98,-5.9858,-6.0031,-6.0666,-6.0198,-5.9617,-5.9386,-5.8252,-5.7305,-5.7094,-5.6728,-5.6453,-5.6487,-5.6556,-5.6601,-5.6601,-5.6601,-5.6855,-5.748,-5.8105,-5.8223,-5.7598,-5.7539,-5.7539,-5.7539,-5.6933,-5.6601,-5.6601,-5.6601,-5.6601,-5.6601,-5.6601,-5.6601,-5.6601,-5.6601,-5.6601,-5.6601,-5.6601,-5.6601,-5.6601,-5.6601,-5.6601,-5.6601,-5.6601,-5.6601,-5.6601,-5.6601,-5.6601,-5.6601,-5.6601,-5.6601,-5.6601,-5.6601,-5.6601,-5.6601,-5.6601,-5.6601,-5.6601,-5.6601,-5.6601,-5.6601,-5.6601,-5.6601,-5.6445,-5.582,-5.5488,-5.5137,-5.4512,-5.418,-5.3828,-5.3183,-5.3555,-5.3808,-5.3183,-5.3574,-5.4082,-5.4316,-5.4355,-5.4648,-5.5539,-5.5652,-5.5664,-5.5652,-5.5911,-5.6005,-5.5737,-5.5703,-5.5703,-5.5703,-5.5703,-5.5703,-5.5703,-5.5703,-5.5703,-5.5703,-5.5703,-5.5703,-5.5703,-5.5703,-5.5703,-5.5703,-5.5703,-5.5703,-5.5703,-5.5703,-5.6299,0.0,0.0,-5.9531,-5.9511,-5.9492,-5.9723,-6.0569,-6.0762,-6.0762,-6.0781,-6.0198,-5.9444,-5.8595,-5.7815,-5.7077,-5.6349,-5.6285,-5.6344,-5.6482,-5.6556,-5.6601,-5.6601,-5.6601,-5.6601,0.0,-5.666,-5.668,-5.664,-5.664,-5.664,-5.664,-5.6601,-5.6601,-5.6601,-5.6601,-5.6601,-5.6601,-5.6601,-5.6601,-5.6601,-5.6601,-5.6601,-5.6601,-5.6601,-5.6601,-5.6601,-5.6601,-5.6601,-5.6601,-5.6601,-5.6601,-5.6601,-5.6601,-5.6601,-5.6601,-5.6601,-5.6601,-5.6601,-5.6601,-5.6601,-5.6601,-5.6601,-5.6601,-5.6601,-5.6601,-5.6601,-5.6601,-5.6601,-5.6601,-5.6582,-5.6562,-5.5937,-5.5293,-5.5273,-5.4609,-5.3984,-5.3965,-5.3984,-5.3984,-5.3965,-5.3984,-5.4277,-5.5117,-5.5254,-5.5566,-5.6438,-5.6554,-5.6568,-5.6569,-5.6281,-5.6005,-5.5737,-5.5703,-5.5703,-5.5703,-5.5703,-5.5703,-5.5703,-5.5703,-5.5703,-5.5703,-5.5703,-5.5703,-5.5703,-5.5703,-5.5703,-5.5703,-5.5703,-5.5703,-5.5703,-5.5703,-5.6626,-6.0435,0.0,-6.0358,-6.0358,-6.0358,-6.0435,-6.0723,-6.08,-6.08,-6.08,-6.0184,-5.9383,-5.8557,-5.7767,-5.6972,-5.6183,-5.6155,-5.6266,-5.6359,-5.6463,-5.6554,-5.6582,-5.6601,0.0,0.0,0.0,0.0,-5.6601,-5.6601,-5.6601,-5.6601,-5.6601,-5.6601,-5.6601,-5.6601,-5.6601,-5.6601,-5.6601,-5.6601,-5.6601,-5.6601,-5.6601,-5.6601,-5.6601,-5.6601,-5.6601,-5.6601,-5.6601,-5.6601,-5.6601,-5.6601,-5.6601,-5.6601,-5.6601,-5.6601,-5.6601,-5.6601,-5.6601,-5.6601,-5.6601,-5.6601,-5.6601,-5.6601,-5.6601,-5.6601,-5.6601,-5.6601,-5.6601,-5.6601,-5.6601,-5.6601,-5.6387,-5.6152,-5.6152,-5.5937,-5.5566,-5.498,-5.5312,-5.5547,-5.4961,-5.5332,-5.582,-5.6113,-5.6152,-5.6269,-5.6555,-5.6605,-5.6514,-5.63,-5.6172,-5.6005,-5.5737,-5.5703,-5.5703,-5.5703,-5.5703,-5.5703,-5.5703,-5.5703,-5.5703,-5.5703,-5.5703,-5.5703,-5.5703,-5.5703,-5.5703,-5.5703,-5.5703,-5.5703,-5.5703,-5.6291,-5.7184,-6.08,-6.08,-6.08,-6.08,-6.08,-6.08,-6.08,-6.08,-6.08,-6.08,-6.0153,-5.9361,-5.8526,-5.7718,-5.6946,-5.6132,-5.6109,-5.6224,-5.6299,-5.6413,-5.6523,-5.6582,-5.6601,-5.6601,0.0,0.0,0.0,-5.6601,-5.6601,-5.6601,-5.6601,-5.6601,-5.6601,-5.6601,-5.6601,-5.6601,-5.6601,-5.6601,-5.6601,-5.6601,-5.6601,-5.6601,-5.6601,-5.6601,-5.6601,-5.6601,-5.6601,-5.6601,-5.6601,-5.6601,-5.6601,-5.6601,-5.6601,-5.6601,-5.6601,-5.6601,-5.6601,-5.6601,-5.6601,-5.6601,-5.6601,-5.6601,-5.6601,-5.6601,-5.6601,-5.6601,-5.6601,-5.6601,-5.6601,-5.6601,-5.6601,-5.6601,-5.6601,-5.6601,-5.6601,-5.6445,-5.5898,-5.6191,-5.6426,-5.5879,-5.6211,-5.6601,-5.6601,-5.6601,-5.6599,-5.6594,-5.66,-5.6485,-5.6128,-5.6097,-5.6005,-5.5737,-5.5703,-5.5703,-5.5703,-5.5703,-5.5703,-5.5703,-5.5703,-5.5703,-5.5703,-5.5703,-5.5703,-5.5703,-5.5703,-5.5703,-5.5703,-5.5703,-5.5703,-5.5722,-5.6599,-5.7311,-6.08,-6.08,-6.08,-6.08,-6.08,-6.08,-6.08,-6.08,-6.08,-6.08,-6.0192,-5.9397,0.0,0.0,-5.6994,-5.6183,-5.6118,-5.6212,-5.6294,-5.6413,-5.652,0.0,0.0,0.0,0.0,0.0,0.0,-5.6601,0.0,-5.6601,-5.6601,-5.6601,-5.6601,-5.6601,-5.6601,-5.6601,-5.6601,-5.6601,-5.6601,-5.6601,-5.6601,-5.6601,-5.6601,-5.6601,-5.6601,-5.6601,-5.6601,-5.6601,-5.6601,-5.6601,-5.6601,-5.6601,-5.6601,-5.6601,-5.6601,-5.6601,-5.6601,-5.6601,-5.6601,-5.6601,-5.6601,-5.6601,-5.6601,-5.6601,-5.6601,-5.6601,-5.6601,-5.6601,-5.6601,-5.6601,-5.6601,-5.6601,-5.6601,-5.6601,-5.6601,-5.6601,-5.6601,-5.6601,-5.6601,-5.6601,-5.6601,-5.6601,-5.6601,-5.6599,-5.6593,-5.6593,-5.66,-5.6485,-5.6128,-5.6097,-5.6005,-5.5737,-5.5703,-5.5703,-5.5703,-5.5703,-5.5703,-5.5703,-5.5703,-5.5703,-5.5703,-5.5703,-5.5703,-5.5703,-5.5703,-5.5703,-5.5703,-5.5703,-5.5703,-5.5722,-5.6599,-5.7003,-6.08,-6.08,-6.08,-6.08,-6.08,-6.08,-6.08,-6.08,-6.08,-6.08,-6.0639,-6.0238,0.0,0.0,0.0,-5.7033,-5.6427,0.0,-5.6285,-5.6328,0.0,-5.6581,0.0,-5.6601,-5.6601,-5.6601,0.0,0.0,-5.6601,-5.6601,-5.6601,-5.6601,-5.6601,-5.6601,-5.6601,-5.6601,-5.6601,-5.6601,-5.6601,-5.6601,-5.6601,-5.6601,-5.6601,-5.6601,-5.6601,-5.6601,-5.6601,-5.6601,-5.6601,-5.6601,-5.6601,-5.6601,-5.6601,-5.6601,-5.6601,-5.6601,-5.6601,-5.6601,-5.6601,-5.6601,-5.6601,-5.6601,-5.6601,-5.6601,-5.6601,-5.6601,-5.6601,-5.6601,-5.6601,-5.6601,-5.6601,-5.6601,-5.6601,-5.6601,-5.6601,-5.6601,-5.6601,-5.6601,-5.6601,-5.6601,-5.6601,-5.6601,-5.6601,-5.6599,-5.6593,-5.6593,-5.66,-5.6485,-5.6128,-5.6097,-5.6005,-5.5737,-5.5703,-5.5703,-5.5703,-5.5703,-5.5703,-5.5703,-5.5703,-5.5703,-5.5703,-5.5703,-5.5703,-5.5703,-5.5703,-5.5703,-5.5703,-5.5703,-5.5703,-5.5722,-5.6599,-5.7003,-6.08,-6.08,-6.08,-6.08,-6.08,-6.08,-6.08,-6.08,-6.08,-6.08,-6.08,0.0,0.0,0.0,0.0,0.0,0.0,0.0,-5.632,-5.6292,-5.6368,0.0,-5.6601,0.0,-5.6601,-5.6601,-5.6601,0.0,-5.6601,-5.6601,-5.6601,-5.6601,-5.6601,-5.6601,-5.6601,-5.6601,-5.6601,-5.6601,-5.6601,-5.6601,-5.6601,-5.6601,-5.6601,-5.6601,-5.6601,-5.6601,0.0,-5.6601,-5.6601,-5.6601,-5.6601,-5.6601,-5.6601,-5.6601,-5.6601,-5.6601,-5.6601,-5.6601,-5.6601,-5.6601,-5.6601,-5.6601,-5.6601,-5.6601,-5.6601,-5.6601,-5.6601,-5.6601,-5.6601,-5.6601,-5.6601,-5.6601,-5.6601,-5.6601,-5.6601,-5.6601,-5.6601,-5.6601,-5.6601,-5.6601,-5.6601,-5.6601,-5.6601,-5.66,-5.6596,-5.6593,-5.6603,-5.6503,-5.6227,-5.6135,-5.6005,-5.5737,-5.5703,-5.5703,-5.5703,-5.5703,-5.5703,-5.5703,-5.5703,-5.5703,-5.5703,-5.5703,-5.5703,-5.5703,-5.5703,-5.5703,-5.5703,-5.5703,-5.5703,-5.5722,-5.6599,-5.681,-6.08,-6.08,-6.08,-6.08,-6.08,-6.08,-6.08,-6.08,-6.08,-6.08,0.0,-6.0569,-5.9819,-5.9678,-5.9212,-5.7766,0.0,-5.7079,-5.6534,-5.6362,-5.6365,-5.656,-5.6582,-5.6601,-5.6601,-5.6601,-5.6601,-5.6601,-5.6601,-5.6601,-5.6601,-5.6601,-5.6601,-5.6601,-5.6601,-5.6601,-5.6601,-5.6601,-5.6601,-5.6601,-5.6601,-5.6601,-5.6601,-5.6601,-5.6601,-5.6601,-5.6601,0.0,-5.6601,-5.6601,-5.6601,-5.6601,-5.6601,-5.6601,-5.6601,-5.6601,-5.6601,-5.6601,-5.6601,-5.6601,-5.6601,-5.6601,-5.6601,-5.6601,-5.6601,-5.6601,-5.6601,-5.6601,-5.6601,-5.6601,-5.6601,-5.6601,-5.6601,-5.6601,-5.6601,-5.6601,-5.6601,-5.6601,-5.6601,-5.6601,-5.6601,-5.6601,-5.6601,-5.6601,-5.6598,-5.6594,-5.6606,-5.6523,-5.6324,-5.6175,-5.5993,-5.5758,-5.5705,-5.5703,-5.5703,-5.5703,-5.5703,-5.5703,-5.5703,-5.5703,-5.5703,-5.5703,-5.5703,-5.5703,-5.5703,-5.5703,-5.5703,-5.5703,-5.5703,-5.5722,-5.6483,-5.6426,-6.08,-6.08,-6.08,-6.08,-6.08,-6.08,-6.08,-6.08,0.0,0.0,0.0,-6.0742,-6.0589,-6.0049,0.0,-5.9309,0.0,0.0,0.0,0.0,-5.6347,0.0,0.0,0.0,0.0,0.0,0.0,0.0,0.0,-5.6601,-5.6601,-5.6601,-5.6601,-5.6601,-5.6601,-5.6601,-5.6601,-5.6601,-5.6601,-5.6601,-5.6601,-5.6601,-5.6601,-5.6601,-5.6601,-5.6601,-5.6601,0.0,-5.6601,-5.6601,-5.6601,-5.6601,-5.6601,-5.6601,-5.6601,-5.6601,-5.6601,-5.6601,-5.6601,-5.6601,-5.6601,-5.6601,-5.6601,-5.6601,-5.6601,-5.6601,-5.6601,-5.6601,-5.6601,-5.6601,-5.6601,-5.6601,-5.6601,-5.6601,-5.6601,-5.6601,-5.6601,-5.6601,-5.6601,-5.6601,-5.6601,-5.6601,-5.6601,-5.6601,-5.6598,-5.6594,-5.6606,-5.6523,-5.6324,-5.6175,-5.6029,-5.5889,-5.5778,-5.5703,-5.5703,-5.5703,-5.5703,-5.5703,-5.5703,-5.5703,-5.5703,-5.5703,-5.5703,-5.5703,-5.5703,-5.5703,-5.5703,-5.5703,-5.5703,-5.5703,-5.5857,-5.5838,-6.08,-6.08,-6.08,-6.08,-6.08,-6.08,-6.08,0.0,0.0,0.0,-6.08,-6.08,-6.08,0.0,0.0,0.0,0.0,0.0,0.0,0.0,0.0,0.0,0.0,0.0,0.0,0.0,0.0,0.0,0.0,-5.6601,-5.6601,-5.6601,-5.6601,-5.6601,-5.6601,-5.6601,-5.6601,-5.6601,-5.6601,-5.6601,-5.6601,-5.6601,-5.6601,-5.6601,-5.6601,-5.6601,-5.6601,0.0,-5.6601,-5.6601,-5.6601,-5.6601,-5.6601,-5.6601,-5.6601,-5.6601,-5.6601,-5.6601,-5.6601,-5.6601,-5.6601,-5.6601,-5.6601,-5.6601,-5.6601,-5.6601,-5.6601,-5.6601,-5.6601,-5.6601,-5.6601,-5.6601,-5.6601,-5.6601,-5.6601,-5.6601,-5.6601,-5.6601,-5.6601,-5.6601,-5.6601,-5.6601,-5.6601,-5.6601,-5.66,-5.6594,-5.661,-5.6577,-5.6475,-5.6251,-5.6044,-5.5913,-5.5779,-5.5703,-5.5703,-5.5703,-5.5703,-5.5703,-5.5703,-5.5703,-5.5703,-5.5703,-5.5703,-5.5703,-5.5703,-5.5703,-5.5703,-5.5703,-5.5703,-5.5703,-5.5703,-5.5703,-6.08,-6.08,-6.08,-6.08,-6.08,-6.08,-6.08,-6.08,0.0,0.0,-6.08,-6.08,-6.08,0.0,0.0,0.0,0.0,0.0,0.0,0.0,0.0,0.0,0.0,0.0,0.0,0.0,0.0,0.0,0.0,0.0,-5.658,-5.6558,-5.6536,-5.6536,-5.656,-5.658,-5.658,-5.6582,-5.6601,-5.6601,-5.6601,-5.6601,-5.6601,-5.6601,-5.6601,-5.6601,-5.6601,0.0,0.0,-5.6601,-5.6601,-5.6601,-5.6601,-5.6601,-5.6601,-5.6601,-5.6601,-5.6601,-5.6601,-5.6601,-5.6601,-5.6601,-5.6601,-5.6601,-5.6601,-5.6601,-5.6601,-5.6601,-5.6601,-5.6601,-5.6601,-5.6601,-5.6601,-5.6601,-5.6601,-5.6601,-5.6601,-5.6601,-5.6601,-5.6601,-5.6601,-5.6601,-5.6601,-5.6601,-5.6601,-5.6594,-5.6593,-5.6607,-5.6608,-5.6318,-5.6091,-5.597,-5.5808,-5.5703,-5.5703,-5.5703,-5.5703,-5.5703,-5.5703,-5.5703,-5.5703,-5.5703,-5.5703,-5.5703,-5.5703,-5.5703,-5.5703,-5.5703,-5.5703,-5.5703,-5.5703,-5.5703,-6.0788,-6.08,-6.08,-6.08,-6.08,-6.08,-6.08,0.0,0.0,-6.08,-6.08,-6.08,-6.08,-6.0812,-6.0827,0.0,0.0,0.0,0.0,0.0,0.0,0.0,0.0,0.0,0.0,0.0,0.0,0.0,0.0,0.0,-5.6493,-5.6391,-5.6332,-5.6332,-5.6453,-5.6515,-5.6515,-5.6579,-5.6601,-5.6601,-5.6601,-5.6601,-5.6601,-5.6601,-5.6601,-5.6601,-5.6601,0.0,0.0,-5.6601,-5.6601,-5.6601,-5.6601,-5.6601,-5.6601,-5.6601,-5.6601,-5.6601,-5.6601,-5.6601,-5.6601,-5.6601,-5.6601,-5.6601,-5.6601,-5.6601,-5.6601,-5.6601,-5.6601,-5.6601,-5.6601,-5.6601,-5.6601,-5.6601,-5.6601,-5.6601,-5.6601,-5.6601,-5.6601,-5.6601,-5.6601,-5.6601,-5.6601,-5.6601,-5.6601,-5.6594,-5.6593,-5.6607,-5.6608,-5.6413,-5.6237,-5.6091,-5.5854,-5.5703,-5.5703,-5.5703,-5.5703,-5.5703,-5.5703,-5.5703,-5.5703,-5.5703,-5.5703,-5.5703,-5.5703,-5.5703,-5.5703,-5.5703,-5.5703,-5.5703,-5.5703,-5.5703,-6.0722,-6.0777,-6.08,-6.08,-6.08,-6.08,-6.08,0.0,0.0,-6.08,-6.08,-6.08,-6.08,-6.08,-6.0846,0.0,0.0,0.0,0.0,0.0,0.0,0.0,0.0,0.0,0.0,0.0,0.0,0.0,0.0,0.0,-5.6315,-5.6318,-5.6292,-5.6292,-5.6344,-5.6377,-5.6377,-5.6493,-5.6549,-5.6531,-5.6581,-5.6601,-5.6601,-5.6601,-5.6601,-5.6601,-5.6601,0.0,0.0,-5.6601,-5.6601,-5.6601,-5.6601,-5.6601,-5.6601,-5.6601,-5.6601,-5.6601,-5.6601,-5.6601,-5.6601,-5.6601,-5.6601,-5.6601,-5.6601,-5.6601,-5.6601,-5.6601,-5.6601,-5.6601,-5.6601,-5.6601,-5.6601,-5.6601,-5.6601,-5.6601,-5.6601,-5.6601,-5.6601,-5.6601,-5.6601,-5.6601,-5.6601,-5.6601,-5.6601,-5.6594,-5.6593,-5.6607,-5.6608,-5.6416,-5.6252,-5.611,-5.5938,-5.5789,-5.5714,-5.5703,-5.5703,-5.5703,-5.5703,-5.5703,-5.5703,-5.5703,-5.5703,-5.5703,-5.5703,-5.5703,-5.5703,-5.5703,-5.5703,-5.5703,-5.5703,-5.5703,-6.0673,-6.0753,-6.08,-6.08,-6.08,-6.08,0.0,0.0,0.0,-6.08,-6.08,-6.08,-6.08,-6.08,-6.0835,0.0,0.0,0.0,0.0,0.0,0.0,0.0,0.0,0.0,0.0,0.0,0.0,0.0,0.0,0.0,-5.6146,-5.6187,-5.6214,-5.6214,-5.6251,-5.6266,-5.6266,-5.6374,-5.6453,-5.6508,-5.6553,-5.6581,-5.6601,-5.6601,-5.6601,-5.6601,-5.6601,0.0,0.0,-5.6601,-5.6601,-5.6601,-5.6601,-5.6601,-5.6601,-5.6601,-5.6601,-5.6601,-5.6601,-5.6601,-5.6601,-5.6601,-5.6601,-5.6601,-5.6601,-5.6601,-5.6601,-5.6601,-5.6601,-5.6601,-5.6601,-5.6601,-5.6601,-5.6601,-5.6601,-5.6601,-5.6601,-5.6601,-5.6601,-5.6601,-5.6601,-5.6601,-5.6601,-5.6601,-5.6601,-5.6594,-5.6593,-5.6607,-5.6608,-5.6475,-5.6303,-5.6116,-5.602,-5.5898,-5.5716,-5.5703,-5.5703,-5.5703,-5.5703,-5.5703,-5.5703,-5.5703,-5.5703,-5.5703,-5.5703,-5.5703,-5.5703,-5.5703,-5.5703,-5.5703,-5.5703,-5.5703,-6.0572,-6.0753,-6.08,-6.08,-6.08,-6.08,0.0,0.0,0.0,-6.08,-6.08,-6.08,-6.08,-6.08,-6.0823,-6.088,0.0,0.0,0.0,0.0,0.0,0.0,0.0,0.0,0.0,0.0,0.0,0.0,0.0,0.0,-5.5993,-5.5993,-5.5993,-5.5993,-5.6119,-5.6194,-5.6194,-5.6261,-5.637,-5.6508,-5.6508,-5.6548,-5.6601,-5.6601,-5.6601,0.0,0.0,0.0,0.0,-5.6601,-5.6601,-5.6601,-5.6601,-5.6601,-5.6601,-5.6601,-5.6601,-5.6601,-5.6601,-5.6601,-5.6601,-5.6601,-5.6601,-5.6601,-5.6601,-5.6601,-5.6601,-5.6601,-5.6601,-5.6601,-5.6601,-5.6601,-5.6601,-5.6601,-5.6601,-5.6601,-5.6601,-5.6601,-5.6601,-5.6601,-5.6601,-5.6601,-5.6601,-5.6601,-5.6601,-5.6594,-5.6593,-5.6607,-5.6608,-5.6604,-5.6462,-5.6148,-5.6097,-5.599,-5.5726,-5.5703,-5.5703,-5.5703,-5.5703,-5.5703,-5.5703,-5.5703,-5.5703,-5.5703,-5.5703,-5.5703,-5.5703,-5.5703,-5.5703,-5.5703,-5.5703,-5.5703,-6.017,-6.0475,-6.0734,-6.0788,-6.08,-6.08,-6.08,0.0,0.0,-6.08,-6.08,-6.08,-6.08,-6.08,-6.0823,-6.088,0.0,0.0,0.0,0.0,0.0,0.0,0.0,0.0,0.0,0.0,0.0,0.0,0.0,0.0,-5.6012,-5.6012,-5.6012,-5.6012,-5.6043,-5.6056,-5.6056,-5.6168,-5.6276,-5.637,-5.6453,-5.6548,-5.6601,-5.6601,-5.6601,0.0,0.0,0.0,0.0,-5.6601,-5.6601,-5.6601,-5.6601,-5.6601,-5.6601,-5.6601,-5.6601,-5.6601,-5.6601,-5.6601,-5.6601,-5.6601,-5.6601,-5.6601,-5.6601,-5.6601,-5.6601,-5.6601,-5.6601,-5.6601,-5.6601,-5.6601,-5.6601,-5.6601,-5.6601,-5.6601,-5.6601,-5.6601,-5.6601,-5.6601,-5.6601,-5.6601,-5.6601,-5.6601,-5.6601,-5.6598,-5.6595,-5.6609,-5.6598,-5.6591,-5.6462,-5.6148,-5.6097,-5.5998,-5.5726,-5.5703,-5.5703,-5.5703,-5.5703,-5.5703,-5.5703,-5.5703,-5.5703,-5.5703,-5.5703,-5.5703,-5.5703,-5.5703,-5.5703,-5.5703,-5.5703,-5.5703,0.0,-6.0227,-6.0527,-6.0746,-6.08,0.0,0.0,0.0,0.0,0.0,-6.08,-6.08,-6.08,-6.08,-6.0812,-6.0858,0.0,0.0,0.0,0.0,0.0,0.0,0.0,0.0,0.0,0.0,0.0,0.0,0.0,0.0,-5.6012,-5.6012,-5.6012,-5.6012,-5.6012,-5.6012,-5.6012,-5.6079,-5.6168,-5.6256,-5.6367,-5.6467,-5.6558,-5.6581,-5.6601,0.0,0.0,0.0,0.0,-5.6601,-5.6601,-5.6601,-5.6601,-5.6601,-5.6601,-5.6601,-5.6601,-5.6601,-5.6601,-5.6601,-5.6601,-5.6601,-5.6601,-5.6601,-5.6601,-5.6601,-5.6601,-5.6601,-5.6601,-5.6601,-5.6601,-5.6601,-5.6601,-5.6601,-5.6601,-5.6601,-5.6601,-5.6601,-5.6601,-5.6601,-5.6601,-5.6601,-5.6601,-5.6601,-5.6601,-5.6598,-5.6595,-5.6609,-5.6598,-5.661,-5.6491,-5.6211,-5.6128,-5.602,-5.5798,-5.5737,-5.5703,-5.5703,-5.5703,-5.5703,-5.5703,-5.5703,-5.5703,-5.5703,-5.5703,-5.5703,-5.5703,-5.5703,-5.5703,-5.5703,-5.5703,-5.5703,0.0,-6.001,-6.0208,-6.069,-6.08,-6.08,0.0,0.0,0.0,0.0,0.0,0.0,0.0,0.0,0.0,0.0,0.0,0.0,0.0,0.0,0.0,0.0,0.0,0.0,0.0,0.0,0.0,0.0,0.0,0.0,-5.6012,-5.6012,-5.6012,-5.6012,-5.6012,-5.6012,-5.6012,-5.6012,-5.6075,-5.6194,-5.6256,-5.6367,-5.6508,-5.6558,-5.6601,0.0,0.0,0.0,0.0,-5.6601,-5.6601,-5.6601,-5.6601,-5.6601,-5.6601,-5.6601,-5.6601,-5.6601,-5.6601,-5.6601,-5.6601,-5.6601,-5.6601,-5.6601,-5.6601,-5.6601,-5.6601,-5.6601,-5.6601,-5.6601,-5.6601,-5.6601,-5.6601,-5.6601,-5.6601,-5.6601,-5.6601,-5.6601,-5.6601,-5.6601,-5.6601,-5.6601,-5.6601,-5.6601,-5.6601,-5.6595,-5.6593,-5.6607,-5.6591,-5.6606,-5.6528,-5.632,-5.6175,-5.6056,-5.5904,-5.5769,-5.5703,-5.5703,-5.5703,-5.5703,-5.5703,-5.5703,-5.5703,-5.5703,-5.5703,-5.5703,-5.5703,-5.5703,-5.5703,-5.5703,-5.5703,-5.5703,-5.9285,0.0,-6.0151,-6.0678,-6.08,-6.08,0.0,0.0,0.0,0.0,0.0,0.0,0.0,0.0,0.0,0.0,0.0,0.0,0.0,0.0,0.0,0.0,0.0,0.0,0.0,0.0,0.0,0.0,0.0,-5.6012,-5.6012,-5.6012,-5.6012,-5.6012,-5.6012,-5.6012,-5.6012,-5.6012,-5.6075,-5.6194,-5.6226,-5.6324,-5.6508,-5.6518,-5.6554,0.0,0.0,0.0,-5.6601,-5.6601,-5.6601,-5.6601,-5.6601,-5.6601,-5.6601,-5.6601,-5.6601,-5.6601,-5.6601,-5.6601,-5.6601,-5.6601,-5.6601,-5.6601,-5.6601,-5.6601,-5.6601,-5.6601,-5.6601,-5.6601,-5.6601,-5.6601,-5.6601,-5.6601,-5.6601,-5.6601,-5.6601,-5.6601,-5.6601,-5.6601,-5.6601,-5.6601,-5.6601,-5.6601,-5.6601,-5.6601,-5.6597,-5.6592,-5.6607,-5.6596,-5.6528,-5.632,-5.6175,-5.6056,-5.5904,-5.5769,-5.5703,-5.5703,-5.5703,-5.5703,-5.5703,-5.5703,-5.5703,-5.5703,-5.5703,-5.5703,-5.5703,-5.5703,-5.5703,-5.5703,-5.5703,-5.5703,-5.9195,-5.9561,-5.9905,-6.0622,-6.08,-6.08,-6.08,0.0,0.0,0.0,0.0,0.0,0.0,0.0,0.0,0.0,0.0,0.0,0.0,0.0,0.0,0.0,0.0,0.0,0.0,0.0,0.0,0.0,0.0,-5.6012,-5.6012,-5.6012,-5.6012,-5.6012,-5.6012,-5.6012,-5.6012,-5.6012,-5.6035,-5.6109,-5.6161,-5.6275,-5.6413,-5.6477,-5.6548,0.0,0.0,0.0,-5.6601,-5.6601,-5.6601,-5.6601,-5.6601,-5.6601,-5.6601,-5.6601,-5.6601,-5.6601,-5.6601,-5.6601,-5.6601,-5.6601,-5.6601,-5.6601,-5.6601,-5.6601,-5.6601,-5.6601,-5.6601,-5.6601,-5.6601,-5.6601,-5.6601,-5.6601,-5.6601,-5.6601,-5.6601,-5.6601,-5.6601,-5.6601,-5.6601,-5.6601,-5.6601,-5.6601,-5.6601,-5.6601,-5.6597,-5.6592,-5.6607,-5.6596,-5.6555,-5.6446,-5.6246,-5.6064,-5.5998,-5.5808,-5.5703,-5.5703,-5.5703,-5.5703,-5.5703,-5.5703,-5.5703,-5.5703,-5.5703,-5.5703,-5.5703,-5.5703,-5.5703,-5.5703,-5.5703,-5.5703,-5.9249,-5.9407,-5.9644,-6.0565,-6.08,-6.08,0.0,0.0,0.0,0.0,0.0,0.0,0.0,0.0,0.0,0.0,0.0,0.0,0.0,0.0,0.0,0.0,0.0,0.0,0.0,0.0,0.0,0.0,0.0,-5.5995,-5.5995,-5.6003,-5.6012,-5.6012,-5.6012,-5.6012,-5.6012,-5.6012,-5.6012,-5.5993,-5.6117,-5.6224,-5.6292,-5.6416,-5.6523,-5.6601,0.0,0.0,-5.6601,-5.6601,-5.6601,-5.6601,-5.6601,-5.6601,-5.6601,-5.6601,-5.6601,-5.6601,-5.6601,-5.6601,-5.6601,-5.6601,-5.6601,-5.6601,-5.6601,-5.6601,-5.6601,-5.6601,-5.6601,-5.6601,-5.6601,-5.6601,-5.6601,-5.6601,-5.6601,-5.6601,-5.6601,-5.6601,-5.6601,-5.6601,-5.6601,-5.6601,-5.6601,-5.6601,-5.6601,-5.66,-5.6597,-5.6592,-5.6605,-5.6595,-5.6608,-5.6606,-5.6309,-5.6122,-5.6097,-5.588,-5.5726,-5.5714,-5.5703,-5.5703,-5.5703,-5.5703,-5.5703,-5.5703,-5.5703,-5.5703,-5.5703,-5.5703,-5.5703,-5.5703,-5.5703,-5.5703,-5.9195,-5.9496,-5.9782,-6.0597,-6.08,-6.08,0.0,0.0,0.0,0.0,0.0,0.0,0.0,0.0,0.0,0.0,0.0,0.0,0.0,0.0,0.0,0.0,0.0,0.0,0.0,0.0,0.0,0.0,0.0,-5.6008,-5.6008,-5.6005,-5.6012,-5.6012,-5.6012,-5.6012,-5.6012,-5.6012,-5.6012,-5.6012,-5.6018,-5.6135,-5.6292,-5.6324,-5.6438,-5.6601,0.0,-5.6601,-5.6601,-5.6601,-5.6601,-5.6601,-5.6601,-5.6601,-5.6601,-5.6601,-5.6601,-5.6601,-5.6601,-5.6601,-5.6601,-5.6601,-5.6601,-5.6601,-5.6601,-5.6601,-5.6601,-5.6601,-5.6601,-5.6601,-5.6601,-5.6601,-5.6601,-5.6601,-5.6601,-5.6601,-5.6601,-5.6601,-5.6601,-5.6601,-5.6601,-5.6601,-5.6601,-5.6601,-5.6601,-5.6601,-5.66,-5.6597,-5.6592,-5.6605,-5.6596,-5.6606,-5.6406,-5.6212,-5.611,-5.5951,-5.5817,-5.5714,-5.5703,-5.5703,-5.5703,-5.5703,-5.5703,-5.5703,-5.5703,-5.5703,-5.5703,-5.5703,-5.5703,-5.5703,-5.5703,-5.5703,-5.9285,-5.9776,-6.0288,-6.069,-6.08,0.0,0.0,0.0,0.0,0.0,0.0,0.0,0.0,0.0,0.0,0.0,0.0,0.0,0.0,0.0,0.0,0.0,0.0,0.0,0.0,0.0,0.0,0.0,0.0,0.0,-5.599,-5.5998,-5.6005,-5.6003,-5.6012,-5.6012,-5.6012,-5.6012,-5.6012,-5.6012,-5.6012,-5.6083,-5.6244,-5.6285,-5.6391,-5.6553,0.0,-5.6601,-5.6601,-5.6601,-5.6601,-5.6601,-5.6601,-5.6601,-5.6601,-5.6601,-5.6601,-5.6601,-5.6601,-5.6601,-5.6601,-5.6601,-5.6601,-5.6601,-5.6601,-5.6601,-5.6601,-5.6601,-5.6601,-5.6601,-5.6601,-5.6601,-5.6601,-5.6601,-5.6601,-5.6601,-5.6601,-5.6601,-5.6601,-5.6601,-5.6601,-5.6601,-5.6601,-5.6601,-5.6601,-5.6601,-5.6601,-5.6598,-5.6594,-5.6606,-5.6598,-5.6606,-5.6416,-5.6252,-5.611,-5.5975,-5.5845,-5.5705,-5.5703,-5.5703,-5.5703,-5.5703,-5.5703,-5.5703,-5.5703,-5.5703,-5.5703,-5.5703,-5.5703,-5.5703,-5.5703,-5.5703,-5.9338,-5.992,-6.0533,-6.0746,0.0,0.0,0.0,0.0,0.0,0.0,0.0,0.0,0.0,0.0,0.0,0.0,0.0,0.0,0.0,0.0,0.0,0.0,0.0,0.0,0.0,0.0,0.0,0.0,0.0,0.0,-5.5943,-5.5981,-5.5989,-5.5995,-5.6003,-5.6012,-5.6012,-5.6012,-5.6012,-5.6012,-5.6012,-5.6087,-5.6224,-5.6276,-5.6384,-5.6523,-5.658,-5.6601,-5.6601,-5.6601,-5.6601,-5.6601,-5.6601,-5.6601,-5.6601,-5.6601,-5.6601,-5.6601,-5.6601,-5.6601,-5.6601,-5.6601,-5.6601,-5.6601,-5.6601,-5.6601,-5.6601,-5.6601,-5.6601,-5.6601,-5.6601,-5.6601,-5.6601,-5.6601,-5.6601,-5.6601,-5.6601,-5.6601,-5.6601,-5.6601,-5.6601,-5.6601,-5.6601,-5.6601,-5.6601,-5.6601,-5.6601,-5.6599,-5.6594,-5.6607,-5.66,-5.6606,-5.6449,-5.6294,-5.611,-5.5975,-5.5845,-5.5705,-5.5703,-5.5703,-5.5703,-5.5703,-5.5703,-5.5703,-5.5703,-5.5703,-5.5703,-5.5703,-5.5703,-5.5703,-5.5703,-5.5799,-5.9232,-5.9635,-6.003,-6.0641,0.0,0.0,0.0,0.0,0.0,0.0,0.0,0.0,0.0,0.0,0.0,0.0,0.0,0.0,0.0,0.0,0.0,0.0,0.0,0.0,0.0,0.0,0.0,0.0,0.0,0.0,-5.5807,-5.5924,-5.5999,-5.5999,-5.6005,-5.6012,-5.6012,-5.6012,-5.6012,-5.6012,-5.6012,-5.6107,-5.6279,-5.6308,-5.6408,-5.6582,-5.6601,-5.6601,-5.6601,-5.6601,-5.6601,-5.6601,-5.6601,-5.6601,-5.6601,-5.6601,-5.6601,-5.6601,-5.6601,-5.6601,-5.6601,-5.6601,-5.6601,-5.6601,-5.6601,-5.6601,-5.6601,-5.6601,-5.6601,-5.6601,-5.6601,-5.6601,-5.6601,-5.6601,-5.6601,-5.6601,-5.6601,-5.6601,-5.6601,-5.6601,-5.6601,-5.6601,-5.6601,-5.6601,-5.6601,-5.6601,-5.6601,-5.6601,-5.6594,-5.6592,-5.6606,-5.6608,-5.6582,-5.6455,-5.6136,-5.5975,-5.5845,-5.5705,-5.5703,-5.5703,-5.5703,-5.5703,-5.5703,-5.5703,-5.5703,-5.5703,-5.5703,-5.5703,-5.5703,-5.5703,-5.5703,-5.6126,-5.9338,-5.9905,-6.0475,-6.0734,0.0,0.0,0.0,0.0,0.0,0.0,0.0,0.0,0.0,0.0,0.0,0.0,0.0,0.0,0.0,0.0,0.0,0.0,0.0,0.0,0.0,0.0,0.0,0.0,0.0,0.0,-5.5787,-5.5895,-5.5962,-5.599,-5.6005,-5.6012,-5.6012,-5.6012,-5.6012,-5.6012,-5.6012,-5.604,-5.6128,-5.6232,-5.6344,-5.6416,-5.6558,-5.6601,-5.6601,-5.6601,-5.6601,-5.6601,-5.6601,-5.6601,-5.6601,-5.6601,-5.6601,-5.6601,-5.6601,-5.6601,-5.6601,-5.6601,-5.6601,-5.6601,-5.6601,-5.6601,-5.6601,-5.6601,-5.6601,-5.6601,-5.6601,-5.6601,-5.6601,-5.6601,-5.6601,-5.6601,-5.6601,-5.6601,-5.6601,-5.6601,-5.6601,-5.6601,-5.6601,-5.6601,-5.6601,-5.6601,-5.6601,-5.6601,-5.6594,-5.6593,-5.6607,-5.6608,-5.6497,-5.6352,-5.6242,-5.6035,-5.588,-5.5827,-5.5738,-5.5703,-5.5703,-5.5703,-5.5703,-5.5703,-5.5703,-5.5703,-5.5703,-5.5703,-5.5703,-5.5703,-5.6272,-5.6695,-5.9561,-6.0118,-6.0666,0.0,0.0,0.0,0.0,0.0,0.0,0.0,0.0,0.0,0.0,0.0,0.0,0.0,0.0,0.0,0.0,0.0,0.0,0.0,0.0,0.0,0.0,0.0,0.0,0.0,0.0,0.0,0.0,-5.5836,-5.5905,-5.5971,-5.5998,-5.5995,-5.6012,-5.6012,-5.6012,-5.6012,-5.6012,-5.6018,-5.6064,-5.623,-5.6324,-5.6374,-5.6534,-5.6601,-5.6601,-5.6601,-5.6601,-5.6601,-5.6601,-5.6601,-5.6601,-5.6601,-5.6601,-5.6601,-5.6601,-5.6601,-5.6601,-5.6601,-5.6601,-5.6601,-5.6601,-5.6601,-5.6601,-5.6601,-5.6601,-5.6601,-5.6601,-5.6601,-5.6601,-5.6601,-5.6601,-5.6601,-5.6601,-5.6601,-5.6601,-5.6601,-5.6601,-5.6601,-5.6601,-5.6601,-5.6601,-5.6601,-5.6601,-5.6601,-5.6597,-5.6594,-5.6607,-5.6608,-5.6475,-5.6379,-5.6312,-5.6091,-5.5954,-5.5896,-5.5769,-5.5703,-5.5703,-5.5703,-5.5703,-5.5703,-5.5703,-5.5703,-5.5703,-5.5703,-5.5703,-5.5722,-5.6599,-5.7157,-5.9851,-6.018,0.0,0.0,0.0,0.0,0.0,0.0,0.0,0.0,0.0,0.0,0.0,0.0,0.0,0.0,0.0,0.0,0.0,0.0,0.0,0.0,0.0,0.0,0.0,0.0,0.0,0.0,0.0,0.0,0.0,-5.5766,-5.5836,-5.5895,-5.5971,-5.5998,-5.5984,-5.5993,-5.5993,-5.5993,-5.5993,-5.6064,-5.6201,-5.6266,-5.6374,-5.6508,-5.6579,-5.6601,-5.6601,-5.6601,-5.6601,-5.6601,-5.6601,-5.6601,-5.6601,-5.6601,-5.6601,-5.6601,-5.6601,-5.6601,-5.6601,-5.6601,-5.6601,-5.6601,-5.6601,-5.6601,-5.6601,-5.6601,-5.6601,-5.6601,-5.6601,-5.6601,-5.6601,-5.6601,-5.6601,-5.6601,-5.6601,-5.6601,-5.6601,-5.6601,-5.6601,-5.6601,-5.6601,-5.6601,-5.6601,-5.6601,-5.6601,-5.6601,-5.66,-5.6596,-5.6607,-5.6608,-5.6606,-5.6525,-5.632,-5.6175,-5.6037,-5.5904,-5.5788,-5.5714,-5.5703,-5.5703,-5.5703,-5.5703,-5.5703,-5.5703,-5.5703,-5.5703,-5.5703,-5.5722,-5.6618,-5.7473,-5.8263,-5.9018,0.0,0.0,0.0,0.0,0.0,0.0,0.0,0.0,0.0,0.0,0.0,0.0,0.0,0.0,0.0,0.0,0.0,0.0,0.0,0.0,0.0,0.0,0.0,0.0,0.0,0.0,0.0,0.0,0.0,-5.5766,-5.5836,-5.5895,-5.5971,-5.5727,-5.5161,-5.5161,-5.4851,-5.4252,-5.4851,-5.5476,-5.6056,-5.623,-5.6324,-5.6374,-5.6534,-5.6601,-5.6601,-5.6601,-5.6601,-5.6601,-5.6601,-5.6601,-5.6601,-5.6601,-5.6601,-5.6601,-5.6601,-5.6601,-5.6601,-5.6601,-5.6601,-5.6601,-5.6601,-5.6601,-5.6601,-5.6601,-5.6601,-5.6601,-5.6601,-5.6601,-5.6601,-5.6601,-5.6601,-5.6601,-5.6601,-5.6601,-5.6601,-5.6601,-5.6601,-5.6601,-5.6601,-5.6601,-5.6601,-5.6601,-5.6601,-5.6601,-5.6596,-5.6609,-5.66,-5.6606,-5.6606,-5.658,-5.6525,-5.634,-5.6181,-5.6044,-5.5913,-5.5808,-5.5695,-5.5703,-5.5703,-5.5703,-5.5703,-5.5703,-5.5703,-5.5703,-5.6011,-5.6637,-5.7511,-5.8357,-5.7831,0.0,0.0,0.0,0.0,0.0,0.0,0.0,0.0,0.0,0.0,0.0,0.0,0.0,0.0,0.0,0.0,0.0,0.0,0.0,0.0,0.0,0.0,0.0,0.0,0.0,0.0,0.0,0.0,0.0,0.0,-5.5745,-5.5633,-5.5393,-5.5422,-5.5072,-5.4291,-5.4271,-5.402,-5.3498,-5.402,-5.4542,-5.5034,-5.5889,-5.6271,-5.6261,-5.6471,-5.658,-5.6601,-5.6601,-5.6601,-5.6601,-5.6601,-5.6601,-5.6601,-5.6601,-5.6601,-5.6601,-5.6601,-5.6601,-5.6601,-5.6601,-5.6601,-5.6601,-5.6601,-5.6601,-5.6601,-5.6601,-5.6601,-5.6601,-5.6601,-5.6601,-5.6601,-5.6601,-5.6601,-5.6601,-5.6601,-5.6601,-5.6601,-5.6601,-5.6601,-5.6601,-5.6601,-5.6601,-5.6601,-5.6601,-5.6601,-5.6601,-5.6594,-5.6609,-5.6602,-5.6606,-5.6606,-5.6606,-5.6606,-5.6416,-5.6266,-5.6181,-5.6044,-5.5921,-5.5779,-5.5737,-5.5703,-5.5703,-5.5703,-5.5703,-5.5703,-5.5703,-5.6156,-5.7022,-5.7896,-5.8723,0.0,0.0,0.0,0.0,0.0,0.0,0.0,0.0,0.0,0.0,0.0,0.0,0.0,0.0,0.0,0.0,0.0,0.0,0.0,0.0,0.0,0.0,0.0,0.0,0.0,0.0,0.0,0.0,0.0,0.0,0.0,-5.5703,-5.5371,-5.4612,-5.4603,-5.4205,-5.3373,-5.3382,-5.3343,-5.3265,-5.3343,-5.3382,-5.3448,-5.526,-5.6129,-5.6244,-5.643,-5.6532,-5.6601,-5.6601,-5.6601,-5.6601,-5.6601,-5.6601,-5.6601,-5.6601,-5.6601,-5.6601,-5.6601,-5.6601,-5.6601,-5.6601,-5.6601,-5.6601,-5.6601,-5.6601,-5.6601,-5.6601,-5.6601,-5.6601,-5.6601,-5.6601,-5.6601,-5.6601,-5.6601,-5.6601,-5.6601,-5.6601,-5.6601,-5.6601,-5.6601,-5.6601,-5.6601,-5.6601,-5.6601,-5.6601,-5.6601,-5.6601,-5.6594,-5.6593,-5.6607,-5.6608,-5.6606,-5.6606,-5.6606,-5.642,-5.632,-5.6292,-5.6181,-5.6044,-5.5915,-5.5779,-5.5705,-5.5703,-5.5703,-5.5703,-5.5703,-5.5703,-5.6184,-5.7137,-5.7934,-5.8781,0.0,0.0,0.0,0.0,0.0,0.0,0.0,0.0,0.0,0.0,0.0,0.0,0.0,0.0,0.0,0.0,0.0,0.0,0.0,0.0,0.0,0.0,0.0,0.0,0.0,0.0,0.0,0.0,0.0,0.0,-5.5703,-5.5703,-5.5331,-5.4554,-5.4564,-5.3878,-5.2423,-5.2456,-5.2144,0.0,-5.2144,-5.248,-5.2539,-5.4348,-5.5643,-5.6436,-5.6532,-5.6581,-5.6601,-5.6601,-5.6601,-5.6601,-5.6601,-5.6601,-5.6601,-5.6601,-5.6601,-5.6601,-5.6601,-5.6601,-5.6601,-5.6601,-5.6601,-5.6601,-5.6601,-5.6601,-5.6601,-5.6601,-5.6601,-5.6601,-5.6601,-5.6601,-5.6601,-5.6601,-5.6601,-5.6601,-5.6601,-5.6601,-5.6601,-5.6601,-5.6601,-5.6601,-5.6601,-5.6601,-5.6601,-5.6601,-5.6601,-5.6601,-5.6594,-5.6593,-5.6607,-5.6608,-5.6606,-5.6606,-5.6606,-5.6558,-5.6472,-5.6316,-5.627,-5.6146,-5.5904,-5.5872,-5.5818,-5.5695,-5.5703,-5.5703,-5.5703,-5.5703,-5.6492,-5.803,-5.8204,-5.9108,0.0,0.0,0.0,0.0,0.0,0.0,0.0,0.0,0.0,0.0,0.0,0.0,0.0,0.0,0.0,0.0,0.0,0.0,0.0,0.0,0.0,0.0,0.0,0.0,0.0,0.0,0.0,0.0,0.0,-5.5703,-5.5703,-5.5318,-5.4753,-5.3957,-5.36,-5.2798,-5.1537,-5.1559,-5.1351,-5.0917,-5.137,-5.1796,-5.2248,-5.4064,-5.5215,-5.5808,-5.6327,-5.6579,-5.6601,-5.6601,-5.6601,-5.6601,-5.6601,-5.6601,-5.6601,-5.6601,-5.6601,-5.6601,-5.6601,-5.6601,-5.6601,-5.6601,-5.6601,-5.6601,-5.6601,-5.6601,-5.6601,-5.6601,-5.6601,-5.6601,-5.6601,-5.6601,-5.6601,-5.6601,-5.6601,-5.6601,-5.6601,-5.6601,-5.6601,-5.6601,-5.6601,-5.6601,-5.6601,-5.6601,-5.6601,-5.6601,-5.6601,-5.6601,-5.6597,-5.6594,-5.661,-5.6602,-5.6596,-5.6593,-5.6593,-5.6593,-5.6563,-5.6446,-5.6443,-5.6331,-5.6097,-5.6091,-5.5967,-5.5714,-5.5703,-5.5703,-5.5703,-5.5703,-5.6607,-5.83,-5.83,-5.9204,0.0,0.0,0.0,0.0,0.0,0.0,0.0,0.0,0.0,0.0,0.0,0.0,0.0,0.0,0.0,0.0,0.0,0.0,0.0,0.0,0.0,0.0,0.0,0.0,0.0,0.0,0.0,0.0,0.0,-5.5645,-5.5491,-5.4857,-5.405,-5.3099,-5.2434,-5.1717,-5.0891,-5.0893,-5.0898,-5.0898,-5.0898,-5.1273,-5.2036,-5.3715,-5.4658,-5.505,-5.5901,-5.6393,-5.6601,-5.6601,-5.6601,-5.6601,-5.6601,-5.6601,-5.6601,-5.6601,-5.6601,-5.6601,-5.6601,-5.6601,-5.6601,-5.6601,-5.6601,-5.6601,-5.6601,-5.6601,-5.6601,-5.6601,-5.6601,-5.6601,-5.6601,-5.6601,-5.6601,-5.6601,-5.6601,-5.6601,-5.6601,-5.6601,-5.6601,-5.6601,-5.6601,-5.6601,-5.6601,-5.6601,-5.6601,-5.6601,-5.6601,-5.6601,-5.66,-5.6596,-5.6593,-5.6593,-5.6606,-5.6602,-5.6602,-5.6602,-5.6596,-5.6606,-5.6606,-5.6503,-5.6312,-5.6292,-5.6122,-5.5738,-5.5728,-5.5726,-5.5703,-5.5703,-5.6607,-5.83,-5.83,-5.9204,0.0,0.0,0.0,0.0,0.0,0.0,0.0,0.0,0.0,0.0,0.0,0.0,0.0,0.0,0.0,0.0,0.0,0.0,0.0,0.0,0.0,0.0,0.0,0.0,0.0,0.0,0.0,0.0,-5.5703,-5.5395,-5.4703,-5.4549,-5.376,-5.2145,-5.2107,-5.1699,-5.0829,-5.0866,-5.0898,-5.0898,-5.0898,-5.0956,-5.1099,-5.2234,-5.3549,-5.5011,-5.526,-5.5847,-5.6601,-5.6601,-5.6601,-5.6601,-5.6601,-5.6601,-5.6601,-5.6601,-5.6601,-5.6601,-5.6601,-5.6601,-5.6601,-5.6601,-5.6601,-5.6601,-5.6601,-5.6601,-5.6601,-5.6601,-5.6601,-5.6601,-5.6601,-5.6601,-5.6601,-5.6601,-5.6601,-5.6601,-5.6601,-5.6601,-5.6601,-5.6601,-5.6601,-5.6601,-5.6601,-5.6601,-5.6601,-5.6601,-5.6601,-5.6601,-5.66,-5.6596,-5.6593,-5.6593,-5.6606,-5.6602,-5.6602,-5.6602,-5.6596,-5.6606,-5.6606,-5.6503,-5.6312,-5.6292,-5.6164,-5.588,-5.5872,-5.5808,-5.5703,-5.5703,-5.6607,-5.83,-5.83,-5.9204,0.0,0.0,0.0,0.0,0.0,0.0,0.0,0.0,0.0,0.0,0.0,0.0,0.0,0.0,0.0,0.0,0.0,0.0,0.0,0.0,0.0,0.0,0.0,0.0,0.0,0.0,0.0,0.0,-5.5703,-5.5338,-5.453,-5.4049,-5.3203,-5.1942,-5.152,-5.1152,-5.0801,-5.088,-5.0901,-5.0898,-5.0898,-5.0898,-5.0906,-5.1368,-5.2574,-5.4352,-5.495,-5.5731,-5.6601,-5.6601,-5.6601,-5.6601,-5.6601,-5.6601,-5.6601,-5.6601,-5.6601,-5.6601,-5.6601,-5.6601,-5.6601,-5.6601,-5.6601,-5.6601,-5.6601,-5.6601,-5.6601,-5.6601,-5.6601,-5.6601,-5.6601,-5.6601,-5.6601,-5.6601,-5.6601,-5.6601,-5.6601,-5.6601,-5.6601,-5.6601,-5.6601,-5.6601,-5.6601,-5.6601,-5.6601,-5.6601,-5.6601,-5.6601,-5.6601,-5.6599,-5.6598,-5.66,-5.6597,-5.6594,-5.6594,-5.6591,-5.6605,-5.6595,-5.6608,-5.6558,-5.6472,-5.6472,-5.6359,-5.6122,-5.5975,-5.5836,-5.5703,-5.6195,-5.7069,-5.8319,-5.8761,-5.9627,0.0,0.0,0.0,0.0,0.0,0.0,0.0,0.0,0.0,0.0,0.0,0.0,0.0,0.0,0.0,0.0,0.0,0.0,0.0,0.0,0.0,0.0,0.0,0.0,0.0,0.0,0.0,0.0,-5.5703,-5.5241,-5.4222,-5.3549,-5.2722,-5.1625,-5.102,-5.0729,-5.0801,-5.0872,-5.0893,-5.0898,-5.0898,-5.0898,-5.0898,-5.0898,-5.1936,-5.3797,-5.4537,-5.5505,-5.658,-5.6582,-5.6601,-5.6601,-5.6601,-5.6601,-5.6601,-5.6601,-5.6582,-5.658,-5.658,-5.6558,-5.6515,-5.6515,-5.6557,-5.658,-5.658,-5.6581,-5.6601,-5.6601,-5.6601,-5.6601,-5.6601,-5.6601,-5.6601,-5.6601,-5.6601,-5.6601,-5.6601,-5.6601,-5.6601,-5.6601,-5.6601,-5.6601,-5.6601,-5.6601,-5.6601,-5.6601,-5.6601,-5.6601,-5.6601,-5.6601,-5.66,-5.6601,-5.6601,-5.6599,-5.6599,-5.6596,-5.6609,-5.6602,-5.6593,-5.6606,-5.6606,-5.6606,-5.6503,-5.6292,-5.6104,-5.5921,-5.5748,-5.6634,-5.7469,-5.8319,-5.9127,-5.9973,0.0,0.0,0.0,0.0,0.0,0.0,0.0,0.0,0.0,0.0,0.0,0.0,0.0,0.0,0.0,0.0,0.0,0.0,0.0,0.0,0.0,0.0,0.0,0.0,0.0,0.0,0.0,0.0,-5.5703,-5.4991,-5.3356,-5.3222,-5.2452,-5.0808,-5.0712,-5.0729,-5.0801,-5.0877,-5.0898,-5.0898,-5.0898,-5.0898,-5.0898,-5.0898,-5.1894,-5.3621,-5.3792,-5.4866,-5.6515,-5.658,-5.6601,-5.6601,-5.6601,-5.6601,-5.6601,-5.6601,-5.6557,-5.6511,-5.6511,-5.6419,-5.6324,-5.6324,-5.6391,-5.6511,-5.6511,-5.6554,-5.6601,-5.6601,-5.6601,-5.6601,-5.6601,-5.6601,-5.6601,-5.6601,-5.6601,-5.6601,-5.6601,-5.6601,-5.6601,-5.6601,-5.6601,-5.6601,-5.6601,-5.6601,-5.6601,-5.6601,-5.6601,-5.6601,-5.6601,-5.6601,-5.66,-5.6601,-5.6601,-5.6599,-5.6599,-5.6596,-5.6609,-5.6602,-5.6593,-5.6606,-5.6606,-5.6606,-5.6503,-5.6292,-5.6279,-5.6146,-5.5898,-5.6768,-5.7574,-5.8319,-5.9127,-5.9973,0.0,0.0,0.0,0.0,0.0,0.0,0.0,0.0,0.0,0.0,0.0,0.0,0.0,0.0,0.0,0.0,0.0,0.0,0.0,0.0,0.0,0.0,0.0,0.0,0.0,0.0,0.0,0.0,0.0,-5.4972,-5.3299,-5.3203,-5.2433,-5.075,-5.0702,-5.074,-5.0801,-5.0872,-5.0893,-5.0898,-5.0898,-5.0898,-5.0898,-5.0898,-5.1866,-5.3548,-5.3635,-5.4753,-5.6511,-5.6579,-5.658,-5.6548,-5.6548,-5.6476,-5.6408,-5.6408,-5.6394,-5.6374,-5.6374,-5.6336,-5.6292,-5.6292,-5.6332,-5.6381,-5.648,-5.6518,-5.6532,-5.6581,-5.6601,-5.6601,-5.6601,-5.6601,-5.6601,-5.6601,-5.6601,-5.6601,-5.6601,-5.6601,-5.6601,-5.6601,-5.6601,-5.6601,-5.6601,-5.6601,-5.6601,-5.6601,-5.6601,-5.6601,-5.6601,-5.6601,-5.6601,-5.6601,-5.6601,-5.6601,-5.6601,-5.6597,-5.6592,-5.6609,-5.6596,-5.6606,-5.6606,-5.6606,-5.6577,-5.65,-5.7007,-5.7094,-5.6738,-5.7608,-5.8394,-5.9088,-5.9935,-6.0492,0.0,0.0,0.0,0.0,0.0,0.0,0.0,0.0,0.0,0.0,0.0,0.0,0.0,0.0,0.0,0.0,0.0,0.0,0.0,0.0,0.0,0.0,0.0,0.0,0.0,0.0,0.0,0.0,0.0,0.0,-5.328,-5.2933,-5.2125,-5.075,-5.0702,-5.073,-5.0801,-5.0863,-5.0905,-5.0898,-5.0898,-5.0898,-5.0898,-5.0898,-5.1699,-5.3088,-5.3443,-5.4665,-5.6393,-5.6474,-5.6474,-5.6422,-5.6422,-5.6377,-5.6292,-5.6292,-5.629,-5.6281,-5.6281,-5.6236,-5.6203,-5.6203,-5.623,-5.6271,-5.6371,-5.6458,-5.6515,-5.6555,-5.6581,-5.6601,-5.6601,-5.6601,-5.6601,-5.6601,-5.6601,-5.6601,-5.6601,-5.6601,-5.6601,-5.6601,-5.6601,-5.6601,-5.6601,-5.6601,-5.6601,-5.6601,-5.6601,-5.6601,-5.6601,-5.6601,-5.6601,-5.6601,-5.6601,-5.6601,-5.6601,-5.6599,-5.6595,-5.6593,-5.66,-5.661,-5.6606,-5.686,-5.6996,-5.6996,-5.7816,-5.8227,-5.8214,-5.8734,-5.9213,-5.9622,-6.0431,-6.08,0.0,0.0,0.0,0.0,0.0,0.0,0.0,0.0,0.0,0.0,0.0,0.0,0.0,0.0,0.0,0.0,0.0,0.0,0.0,0.0,0.0,0.0,0.0,0.0,0.0,0.0,0.0,0.0,-5.4953,-5.4126,-5.326,-5.2346,-5.151,-5.0731,-5.0692,-5.072,-5.0793,-5.0855,-5.0897,-5.0898,-5.0898,-5.0898,-5.0898,-5.0898,-5.1389,-5.2256,-5.3191,-5.4563,-5.6162,-5.6266,-5.6308,-5.6308,-5.6308,-5.6284,-5.6284,-5.6284,-5.6255,-5.6188,-5.6188,-5.6109,-5.6012,-5.6012,-5.6087,-5.6188,-5.6194,-5.6333,-5.6487,-5.6506,-5.6553,-5.6601,-5.6601,-5.6601,-5.6601,-5.6601,-5.6601,-5.6601,-5.6601,-5.6601,-5.6601,-5.6601,-5.6601,-5.6601,-5.6601,-5.6601,-5.6601,-5.6601,-5.6601,-5.6601,-5.6601,-5.6601,-5.6601,-5.6601,-5.6601,-5.6601,-5.6601,-5.6601,-5.6598,-5.6593,-5.6606,-5.6616,-5.6626,-5.7387,-5.7816,-5.7836,-5.8695,-5.9485,-6.0204,-6.0067,-5.996,-5.9861,-6.049,-6.08,-5.5703,0.0,0.0,0.0,0.0,0.0,-5.5703,-5.5703,0.0,0.0,0.0,0.0,0.0,0.0,0.0,0.0,0.0,0.0,0.0,0.0,0.0,0.0,0.0,0.0,0.0,0.0,0.0,0.0,-5.4953,-5.4126,-5.326,-5.1818,-5.0933,-5.0712,-5.0702,-5.0712,-5.072,-5.0793,-5.0855,-5.0897,-5.0909,-5.0898,-5.0898,-5.0898,-5.1389,-5.2248,-5.3147,-5.415,-5.5258,-5.5983,-5.6266,-5.623,-5.623,-5.6168,-5.6071,-5.6071,-5.6067,-5.6067,-5.6067,-5.6035,-5.6012,-5.6012,-5.6026,-5.6064,-5.6161,-5.6266,-5.6374,-5.6477,-5.6553,-5.6601,-5.6601,-5.6601,-5.6601,-5.6601,-5.6601,-5.6601,-5.6601,-5.6601,-5.6601,-5.6601,-5.6601,-5.6601,-5.6601,-5.6601,-5.6601,-5.6601,-5.6601,-5.6601,-5.6601,-5.6601,-5.6601,-5.6601,-5.6601,-5.6601,-5.6601,-5.6601,-5.6598,-5.6593,-5.6606,-5.685,-5.7445,-5.768,-5.8109,-5.8734,-5.9592,-6.0132,-6.035,-6.0209,-6.0339,-6.0664,-6.0759,-6.08,0.0,0.0,0.0,0.0,0.0,0.0,-5.5703,-5.5703,-5.5703,0.0,0.0,0.0,0.0,0.0,0.0,0.0,0.0,0.0,0.0,0.0,0.0,0.0,0.0,0.0,0.0,-5.5703,-5.5703,-5.5703,-5.4626,-5.3433,-5.2222,-5.1221,-5.0712,-5.0712,-5.0712,-5.0693,-5.0701,-5.0729,-5.0821,-5.0899,-5.0905,-5.0901,-5.0898,-5.0898,-5.1177,-5.1738,-5.2956,-5.3788,-5.4365,-5.5637,-5.6142,-5.6124,-5.6124,-5.6064,-5.6012,-5.6012,-5.6012,-5.6012,-5.6012,-5.6012,-5.6012,-5.6012,-5.6012,-5.601,-5.6094,-5.6188,-5.6286,-5.6397,-5.6506,-5.6601,-5.6601,-5.6601,-5.6601,-5.6601,-5.6601,-5.6601,-5.6601,-5.6601,-5.6601,-5.6601,-5.6601,-5.6601,-5.6601,-5.6601,-5.6601,-5.6601,-5.6601,-5.6601,-5.6601,-5.6601,-5.6601,-5.6601,-5.6601,-5.6601,-5.6601,-5.6601,-5.66,-5.6597,-5.6942,-5.7345,-5.7785,-5.8502,-5.9124,-5.9631,-6.051,-6.0939,-6.0939,-6.0812,-6.0825,-6.0993,-6.0913,-6.0845,0.0,0.0,0.0,0.0,0.0,0.0,-5.5703,-5.5703,-5.5703,0.0,0.0,0.0,0.0,0.0,0.0,0.0,0.0,0.0,0.0,0.0,0.0,0.0,0.0,0.0,-5.5703,-5.5703,-5.5703,-5.5703,-5.4145,-5.2472,-5.0789,-5.0712,-5.0712,-5.0712,-5.0712,-5.0712,-5.0692,-5.0692,-5.0766,-5.0891,-5.0899,-5.0905,-5.0898,-5.0898,-5.0898,-5.0995,-5.2647,-5.3401,-5.3614,-5.5219,-5.5915,-5.6012,-5.6012,-5.6012,-5.6012,-5.6012,-5.6012,-5.6012,-5.6012,-5.6012,-5.6012,-5.6012,-5.6012,-5.6012,-5.6012,-5.6094,-5.6226,-5.6294,-5.6452,-5.6601,-5.6601,-5.6601,-5.6601,-5.6601,-5.6601,-5.6601,-5.6601,-5.6601,-5.6601,-5.6601,-5.6601,-5.6601,-5.6601,-5.6601,-5.6601,-5.6601,-5.6601,-5.6601,-5.6601,-5.6601,-5.6601,-5.6601,-5.6601,-5.6601,-5.6601,-5.6601,-5.664,-5.6736,-5.7475,-5.7957,-5.8085,-5.9579,-6.0451,-6.0549,-6.131,-6.1698,-6.1698,-6.1573,-6.1343,-6.1046,-6.102,-6.0943,0.0,0.0,0.0,0.0,0.0,0.0,-5.5703,-5.5703,-5.5703,0.0,0.0,0.0,0.0,0.0,0.0,0.0,0.0,0.0,0.0,0.0,0.0,0.0,0.0,0.0,-5.5703,-5.5703,-5.5703,-5.5703,-5.4145,-5.2472,-5.0789,-5.0712,-5.0712,-5.0712,-5.0712,-5.0693,-5.0702,-5.0702,-5.0729,-5.081,-5.0863,-5.0905,-5.0898,-5.0898,-5.0898,-5.0956,-5.1989,-5.284,-5.3575,-5.46,-5.5412,-5.6012,-5.6012,-5.6012,-5.6012,-5.6012,-5.6012,-5.6012,-5.6012,-5.6012,-5.6012,-5.6012,-5.6012,-5.6012,-5.6012,-5.6094,-5.6244,-5.6404,-5.6529,-5.6601,-5.6601,-5.6601,-5.6601,-5.6601,-5.6601,-5.6601,-5.6601,-5.6601,-5.6601,-5.6601,-5.6601,-5.6601,-5.6601,-5.6601,-5.6601,-5.6601,-5.6601,-5.6601,-5.6601,-5.6601,-5.6601,-5.6601,-5.6601,-5.6601,-5.6601,-5.6601,-5.6894,-5.7595,-5.7807,-5.8504,-5.9843,-6.0224,-6.0725,-6.1425,-6.1601,-6.1698,-6.1698,-6.1573,-6.1471,-6.1404,-6.1123,-6.0993,0.0,0.0,0.0,-5.5703,0.0,0.0,0.0,-5.5703,-5.5703,0.0,0.0,0.0,0.0,0.0,0.0,0.0,0.0,0.0,0.0,0.0,0.0,0.0,0.0,0.0,-5.5703,-5.5703,-5.5357,-5.4511,-5.3664,-5.2472,-5.0789,-5.0712,-5.0712,-5.0712,-5.0712,-5.0712,-5.0712,-5.0693,-5.0711,-5.0738,-5.0829,-5.0872,-5.0893,-5.089,-5.0898,-5.0956,-5.1791,-5.2401,-5.2865,-5.3737,-5.457,-5.5342,-5.5814,-5.5996,-5.6007,-5.596,-5.5951,-5.5951,-5.5951,-5.5951,-5.596,-5.5987,-5.5996,-5.5996,-5.6003,-5.6126,-5.6276,-5.6367,-5.6502,-5.6601,-5.6601,-5.6601,-5.6601,-5.6601,-5.6601,-5.6601,-5.6601,-5.6601,-5.6601,-5.6601,-5.6601,-5.6601,-5.6601,-5.6601,-5.6601,-5.6601,-5.6601,-5.6601,-5.6601,-5.6601,-5.6601,-5.6601,-5.6601,-5.6777,-5.7207,-5.7246,-5.7617,-5.8495,-5.8923,-5.9525,-6.0362,-6.0819,-6.1258,-6.1698,-6.1698,-6.1698,-6.1698,-6.1631,-6.1573,-6.1505,-6.1331,-6.1201,0.0,0.0,0.0,0.0,0.0,-5.5703,0.0,0.0,0.0,0.0,0.0,0.0,0.0,0.0,0.0,0.0,0.0,0.0,0.0,0.0,0.0,0.0,0.0,0.0,0.0,-5.5703,-5.4991,-5.3337,-5.3203,-5.2472,-5.0789,-5.0712,-5.0712,-5.0712,-5.0712,-5.0712,-5.0712,-5.0712,-5.0693,-5.0701,-5.0747,-5.0829,-5.0872,-5.0885,-5.0874,-5.0913,-5.1576,-5.1945,-5.2157,-5.2855,-5.3637,-5.4448,-5.5199,-5.5594,-5.571,-5.549,-5.5519,-5.5654,-5.5654,-5.576,-5.5905,-5.5962,-5.599,-5.6008,-5.5995,-5.6142,-5.6292,-5.6292,-5.6448,-5.6601,-5.6601,-5.6601,-5.6601,-5.6601,-5.6601,-5.6601,-5.6601,-5.6601,-5.6601,-5.6601,-5.6601,-5.6601,-5.6601,-5.6601,-5.6601,-5.6601,-5.6601,-5.6601,-5.6601,-5.6601,-5.666,-5.6836,-5.6855,-5.7207,-5.8086,-5.8144,-5.8515,-5.9375,-6.0038,-6.0486,-6.0642,-6.1336,-6.1694,-6.1703,-6.1701,-6.1698,-6.1698,-6.1698,-6.1637,-6.1537,-6.1519,-6.1406,0.0,0.0,0.0,0.0,-5.5703,0.0,0.0,0.0,-5.5703,-5.5703,0.0,0.0,0.0,0.0,0.0,0.0,0.0,0.0,0.0,0.0,0.0,0.0,0.0,0.0,0.0,-5.5703,-5.4991,-5.3337,-5.3203,-5.2472,-5.0789,-5.0712,-5.0712,-5.0712,-5.0712,-5.0712,-5.0712,-5.0712,-5.0693,-5.0701,-5.0701,-5.0757,-5.081,-5.081,-5.081,-5.081,-5.0906,-5.1389,-5.2122,-5.221,-5.2769,-5.3541,-5.3647,-5.4129,-5.4669,-5.3946,-5.4139,-5.4757,-5.4757,-5.5249,-5.5895,-5.5905,-5.5962,-5.6008,-5.5995,-5.6142,-5.6292,-5.6292,-5.6448,-5.6601,-5.6601,-5.6601,-5.6601,-5.6601,-5.6601,-5.6601,-5.6601,-5.6601,-5.6601,-5.6601,-5.6601,-5.6601,-5.6601,-5.6601,-5.6601,-5.6601,-5.6601,-5.6601,-5.6601,-5.6601,-5.6894,-5.7676,-5.7754,-5.8105,-5.8984,-5.9043,-5.9394,-6.0215,-6.0351,-6.0759,-6.1522,-6.1648,-6.1697,-6.1696,-6.1705,-6.1698,-6.1698,-6.1698,-6.1696,-6.1668,-6.1569,-6.1486,0.0,0.0,0.0,0.0,0.0,0.0,-5.5703,0.0,-5.5703,0.0,0.0,0.0,0.0,0.0,0.0,0.0,0.0,0.0,0.0,0.0,0.0,0.0,0.0,0.0,0.0,0.0,0.0,0.0,-5.2731,-5.1933,-5.077,-5.0712,-5.0712,-5.0712,-5.0712,-5.0712,-5.0712,-5.0712,-5.0693,-5.0701,-5.0701,-5.0748,-5.0801,-5.0801,-5.0801,-5.0801,-5.0766,-5.095,-5.1288,-5.1288,-5.177,-5.2483,-5.2021,-5.2656,-5.3803,-5.3417,-5.3504,-5.387,-5.437,-5.4775,-5.516,-5.5672,-5.5914,-5.5999,-5.5998,-5.6142,-5.6292,-5.6292,-5.6448,-5.6601,-5.6601,-5.6601,-5.6601,-5.6601,-5.6601,-5.6601,-5.6601,-5.6601,-5.6601,-5.6601,-5.6601,-5.6601,-5.6601,-5.6601,-5.6601,-5.6601,-5.6601,-5.6777,-5.7285,-5.7344,-5.7695,-5.8555,-5.8652,-5.8984,-5.9824,-5.9902,-6.0254,-6.1094,-6.1152,-6.1327,-6.1678,-6.1691,-6.1702,-6.1697,-6.1705,-6.1698,-6.1698,-6.1698,-6.1698,-6.1698,-6.1634,-6.1621,-5.5703,0.0,0.0,0.0,0.0,0.0,0.0,0.0,0.0,0.0,0.0,0.0,0.0,0.0,0.0,0.0,0.0,0.0,0.0,0.0,0.0,0.0,0.0,0.0,0.0,0.0,0.0,-5.2933,-5.225,-5.1548,-5.075,-5.0712,-5.0712,-5.0712,-5.0712,-5.0712,-5.0712,-5.0712,-5.0702,-5.0702,-5.0702,-5.072,-5.0757,-5.0757,-5.0757,-5.0776,-5.072,-5.0702,-5.0702,-5.0702,-5.1029,-5.151,-5.0933,-5.1462,-5.2589,-5.253,-5.2645,-5.2972,-5.3837,-5.4434,-5.4944,-5.5584,-5.5866,-5.5943,-5.599,-5.6112,-5.6247,-5.6279,-5.6438,-5.658,-5.6601,-5.6601,-5.6601,-5.6601,-5.6601,-5.6601,-5.6601,-5.6601,-5.6601,-5.6601,-5.6601,-5.6601,-5.6601,-5.6601,-5.668,-5.6914,-5.6953,-5.7265,-5.8144,-5.8262,-5.8574,-5.9433,-5.9531,-5.9863,-6.0683,-6.0762,-6.1035,-6.166,-6.1699,-6.1699,-6.1698,-6.1695,-6.1709,-6.1701,-6.1692,-6.1703,-6.1698,-6.1698,-6.1698,-6.1698,-6.1698,-6.1698,0.0,0.0,0.0,-5.5703,0.0,0.0,0.0,0.0,-5.5703,0.0,0.0,0.0,0.0,0.0,0.0,0.0,0.0,0.0,0.0,0.0,0.0,0.0,0.0,0.0,0.0,0.0,0.0,-5.2077,-5.1923,-5.1548,-5.075,-5.0712,-5.0712,-5.0712,-5.0712,-5.0712,-5.0712,-5.0712,-5.0693,-5.0693,-5.0693,-5.0693,-5.0693,-5.0693,-5.0693,-5.0693,-5.0693,-5.0693,-5.0693,-5.0693,-5.0731,-5.075,-5.0712,-5.0731,-5.0789,-5.0789,-5.1279,-5.2077,-5.2953,-5.4299,-5.5675,-5.5776,-5.5797,-5.5836,-5.5971,-5.6051,-5.613,-5.6257,-5.6407,-5.6518,-5.6581,-5.6601,-5.6601,-5.6601,-5.6601,-5.6601,-5.6601,-5.6601,-5.6601,-5.6601,-5.6601,-5.6601,-5.6601,-5.6601,-5.6894,-5.7734,-5.7851,-5.8164,-5.9043,-5.916,-5.9473,-6.0273,-6.0351,-6.0703,-6.1582,-6.166,-6.168,-6.1699,-6.1699,-6.1699,-6.1699,-6.1698,-6.1695,-6.1709,-6.1702,-6.1692,-6.1698,-6.1698,-6.1698,-6.1698,-6.1698,-6.1698,0.0,0.0,-5.5703,-5.5703,0.0,0.0,0.0,0.0,0.0,0.0,0.0,0.0,0.0,0.0,0.0,0.0,0.0,0.0,0.0,0.0,-5.5491,0.0,0.0,0.0,0.0,0.0,0.0,-5.1942,-5.1414,-5.0991,-5.0712,-5.0712,-5.0712,-5.0712,-5.0712,-5.0712,-5.0712,-5.0712,-5.0702,-5.0692,-5.0702,-5.0702,-5.0692,-5.0702,-5.0712,-5.0712,-5.0712,-5.0712,-5.0712,-5.0712,-5.0712,-5.0712,-5.0712,-5.0712,-5.0712,-5.0712,-5.0856,-5.1318,-5.2702,-5.4299,-5.5695,-5.5735,-5.5766,-5.5816,-5.5856,-5.6005,-5.6186,-5.6218,-5.6389,-5.6579,-5.6582,-5.6601,-5.6601,-5.6601,-5.6601,-5.6601,-5.6601,-5.6601,-5.6601,-5.6601,-5.6601,-5.6777,-5.7363,-5.7461,-5.7558,-5.7851,-5.8398,-5.9062,-5.9883,-5.998,-6.0312,-6.1172,-6.1269,-6.1387,-6.168,-6.1699,-6.1699,-6.1699,-6.1699,-6.1699,-6.1699,-6.1698,-6.1697,-6.1695,-6.1705,-6.1696,-6.1692,-6.1703,-6.1698,-6.1698,-6.1698,-6.1698,-5.4818,-5.4818,0.0,-5.4818,-5.4818,0.0,-5.4818,0.0,0.0,0.0,0.0,0.0,0.0,0.0,0.0,0.0,0.0,0.0,0.0,-5.4818,-5.4626,0.0,0.0,0.0,0.0,0.0,-5.1769,-5.1491,-5.0991,-5.0712,0.0,0.0,-5.0712,-5.0712,-5.0712,-5.0846,-5.1125,-5.1125,-5.1279,-5.1597,-5.1587,-5.1433,-5.1135,-5.1126,-5.0971,-5.0712,-5.0712,-5.0712,-5.0712,-5.0712,-5.0712,-5.0712,-5.0712,-5.0712,-5.0712,-5.0712,-5.1077,-5.1741,-5.2837,-5.4299,-5.5703,-5.5703,-5.5735,-5.5766,-5.5787,-5.5952,-5.6052,-5.5837,-5.6114,-5.6433,-5.6191,-5.6367,-5.6601,-5.6601,-5.6601,-5.6601,-5.6601,-5.6601,-5.6601,-5.6601,-5.6855,-5.7246,-5.7793,-5.8398,-5.8789,-5.8789,-5.9277,-5.9922,-6.0762,-6.0859,-6.1074,-6.164,-6.1699,-6.1699,-6.1699,-6.1699,-6.1699,-6.1699,-6.1699,-6.1699,-6.1699,-6.1699,-6.1698,-6.1697,-6.1692,-6.1704,-6.1697,-6.169,-6.1703,-6.1698,-6.1698,-6.1698]},{"header":{"parameterUnit":"m.s-1","parameterCategory":1,"la1":30.6,"la2":29.2853,"lo1":-89.7004,"lo2":-87.6739,"dy":0.0162,"dx":0.0183,"nx":112,"ny":82,"refTime":"2024-02-22T18:00:00:Z","depth":0,"parameterNumber":3,"parameterNumberName":"V-component_of_WINDS"},"data":[0.0,0.0,0.0,0.0,0.0,0.0,0.0,0.0,0.0,0.0,0.0,0.0,0.0,0.0,0.0,0.0,0.0,0.0,0.0,0.0,0.0,0.0,0.0,0.0,0.0,0.0,0.0,0.0,0.0,0.0,0.0,0.0,0.0,0.0,0.0,0.0,0.0,0.0,0.0,0.0,0.0,0.0,0.0,0.0,0.0,0.0,0.0,0.0,0.0,0.0,0.0,0.0,0.0,0.0,0.0,0.0,0.0,0.0,0.0,0.0,0.0,0.0,0.0,0.0,0.0,0.0,0.0,0.0,0.0,0.0,0.0,0.0,0.0,0.0,0.0,0.0,0.0,0.0,0.0,0.0,0.0,0.0,0.0,0.0,0.0,0.0,0.0,0.0,0.0,0.0,-0.844,-0.7971,-0.6635,-0.5367,-0.4367,-0.6704,-0.8371,-0.8573,0.0,0.0,0.0,0.0,0.0,0.0,0.0,0.0,0.0,0.0,0.0,0.0,0.0,0.0,0.0,0.0,0.0,0.0,0.0,0.0,0.0,0.0,0.0,0.0,0.0,0.0,0.0,0.0,0.0,0.0,0.0,0.0,0.0,0.0,0.0,0.0,0.0,0.0,0.0,0.0,0.0,0.0,0.0,0.0,0.0,0.0,0.0,0.0,0.0,0.0,0.0,0.0,0.0,0.0,0.0,0.0,0.0,0.0,0.0,0.0,0.0,0.0,0.0,0.0,0.0,0.0,0.0,0.0,0.0,0.0,0.0,0.0,0.0,0.0,0.0,0.0,0.0,0.0,0.0,0.0,0.0,0.0,0.0,0.0,0.0,0.0,0.0,0.0,0.0,0.0,0.0,0.0,0.0,0.0,0.0,0.0,0.0,0.0,0.0,0.0,0.0,0.0,0.0,0.0,-0.7638,-0.5235,-0.3696,-0.3228,-0.4234,-0.5769,-0.73,-0.8507,0.0,0.0,0.0,0.0,0.0,0.0,0.0,0.0,0.0,0.0,0.0,0.0,0.0,0.0,0.0,0.0,0.0,0.0,0.0,0.0,0.0,0.0,0.0,0.0,0.0,0.0,0.0,0.0,0.0,0.0,0.0,0.0,0.0,0.0,0.0,0.0,0.0,0.0,0.0,0.0,0.0,0.0,0.0,0.0,0.0,0.0,0.0,0.0,0.0,0.0,0.0,0.0,0.0,0.0,0.0,0.0,0.0,0.0,0.0,0.0,0.0,0.0,0.0,0.0,0.0,0.0,0.0,0.0,0.0,0.0,0.0,0.0,0.0,0.0,0.0,0.0,0.0,0.0,0.0,0.0,0.0,0.0,0.0,0.0,0.0,0.0,0.0,0.0,0.0,0.0,0.0,0.0,0.0,0.0,0.0,0.0,0.0,0.0,0.0,0.0,0.0,0.0,0.0,-0.6726,-0.5456,-0.3359,-0.2558,-0.2491,-0.3094,-0.4433,-0.59,-0.7303,-0.8773,0.0,0.0,0.0,0.0,0.0,0.0,0.0,0.0,0.0,0.0,0.0,0.0,0.0,0.0,0.0,0.0,0.0,0.0,0.0,0.0,0.0,0.0,0.0,0.0,0.0,0.0,0.0,0.0,0.0,0.0,0.0,0.0,0.0,0.0,0.0,0.0,0.0,0.0,0.0,0.0,0.0,0.0,0.0,0.0,0.0,0.0,0.0,0.0,0.0,0.0,0.0,0.0,0.0,0.0,0.0,0.0,0.0,0.0,0.0,0.0,0.0,0.0,0.0,0.0,0.0,0.0,0.0,0.0,0.0,0.0,0.0,0.0,0.0,0.0,0.0,0.0,0.0,0.0,0.0,0.0,0.0,0.0,0.0,0.0,0.0,0.0,0.0,0.0,0.0,0.0,0.0,0.0,0.0,0.0,0.0,0.0,0.0,0.0,0.0,0.0,0.0,0.0,-0.4543,-0.3222,-0.2064,-0.2,-0.2067,-0.2067,-0.3406,-0.4744,-0.5804,-0.7289,0.0,0.0,0.0,0.0,0.0,0.0,0.0,0.0,0.0,0.0,0.0,0.0,0.0,0.0,0.0,0.0,0.0,0.0,0.0,0.0,0.0,0.0,0.0,0.0,0.0,0.0,0.0,0.0,0.0,0.0,0.0,0.0,0.0,0.0,0.0,0.0,0.0,0.0,0.0,0.0,0.0,0.0,0.0,0.0,0.0,0.0,0.0,0.0,0.0,0.0,0.0,0.0,0.0,0.0,0.0,0.0,0.0,0.0,0.0,0.0,0.0,0.0,0.0,0.0,0.0,0.0,0.0,0.0,0.0,0.0,0.0,0.0,0.0,0.0,0.0,0.0,0.0,0.0,0.0,0.0,0.0,0.0,0.0,0.0,0.0,0.0,0.0,0.0,0.0,0.0,0.0,0.0,0.0,0.0,0.0,0.0,0.0,0.0,0.0,0.0,0.0,0.0,-0.2647,-0.1615,-0.1229,-0.1488,-0.1617,-0.1617,-0.327,-0.4348,-0.4413,-0.5793,0.0,0.0,0.0,0.0,0.0,0.0,0.0,0.0,0.0,0.0,0.0,0.0,0.0,0.0,0.0,0.0,0.0,0.0,0.0,0.0,0.0,0.0,0.0,0.0,0.0,0.0,0.0,0.0,0.0,0.0,0.0,0.0,0.0,0.0,0.0,0.0,0.0,0.0,0.0,0.0,0.0,0.0,0.0,0.0,0.0,0.0,0.0,0.0,0.0,0.0,0.0,0.0,0.0,0.0,0.0,0.0,0.0,0.0,0.0,0.0,0.0,0.0,0.0,0.0,0.0,0.0,0.0,0.0,0.0,0.0,0.0,0.0,0.0,0.0,0.0,0.0,0.0,0.0,0.0,0.0,0.0,0.0,0.0,0.0,0.0,0.0,0.0,0.0,0.0,0.0,0.0,0.0,0.0,0.0,0.0,0.0,0.0,0.0,0.0,0.0,0.0,0.0,-0.2238,-0.1214,0.0,-0.1225,-0.1354,-0.1612,-0.2202,-0.3052,-0.4153,0.0,0.0,0.0,0.0,0.0,0.0,0.0,0.0,0.0,0.0,0.0,0.0,0.0,0.0,0.0,0.0,0.0,0.0,0.0,0.0,0.0,0.0,0.0,0.0,0.0,0.0,0.0,0.0,0.0,0.0,0.0,0.0,0.0,0.0,0.0,0.0,0.0,0.0,0.0,0.0,0.0,0.0,0.0,0.0,0.0,0.0,0.0,0.0,0.0,0.0,0.0,0.0,0.0,0.0,0.0,0.0,0.0,0.0,0.0,0.0,0.0,0.0,0.0,0.0,0.0,0.0,0.0,0.0,0.0,0.0,0.0,0.0,0.0,0.0,0.0,0.0,0.0,0.0,0.0,0.0,0.0,0.0,0.0,0.0,0.0,0.0,0.0,0.0,0.0,0.0,0.0,0.0,0.0,0.0,0.0,0.0,0.0,0.0,0.0,0.0,0.0,0.0,-0.2918,-0.1702,-0.0818,0.0,-0.0827,-0.1018,-0.1209,-0.1469,-0.2048,-0.3261,0.0,0.0,0.0,0.0,0.0,0.0,0.0,0.0,0.0,0.0,0.0,0.0,0.0,0.0,0.0,0.0,0.0,0.0,0.0,0.0,0.0,0.0,0.0,0.0,0.0,0.0,0.0,0.0,0.0,0.0,0.0,0.0,0.0,0.0,0.0,0.0,0.0,0.0,0.0,0.0,0.0,0.0,0.0,0.0,0.0,0.0,0.0,0.0,0.0,0.0,0.0,0.0,0.0,0.0,0.0,0.0,0.0,0.0,0.0,0.0,0.0,0.0,0.0,0.0,0.0,0.0,0.0,0.0,0.0,0.0,0.0,0.0,0.0,0.0,0.0,0.0,0.0,0.0,0.0,0.0,0.0,0.0,0.0,0.0,0.0,0.0,0.0,0.0,0.0,0.0,0.0,0.0,0.0,0.0,0.0,0.0,0.0,0.0,0.0,0.0,0.0,0.0,-0.1237,-0.0679,-0.037,-0.0062,-0.0309,-0.0494,-0.0494,-0.1126,-0.1513,0.0,0.0,0.0,0.0,0.0,0.0,0.0,0.0,0.0,0.0,0.0,0.0,0.0,0.0,0.0,0.0,0.0,0.0,0.0,0.0,0.0,0.0,0.0,0.0,0.0,0.0,0.0,0.0,0.0,0.0,0.0,0.0,0.0,0.0,0.0,0.0,0.0,0.0,0.0,0.0,0.0,0.0,0.0,0.0,0.0,0.0,0.0,0.0,0.0,0.0,0.0,0.0,0.0,0.0,0.0,0.0,0.0,0.0,0.0,0.0,0.0,0.0,0.0,0.0,0.0,0.0,0.0,0.0,0.0,0.0,0.0,0.0,0.0,0.0,0.0,0.0,0.0,0.0,0.0,0.0,0.0,0.0,0.0,0.0,0.0,0.0,0.0,0.0,0.0,0.0,0.0,0.0,0.0,0.0,0.0,0.0,0.0,0.0,0.0,0.0,0.0,0.0,0.0,-0.0741,-0.037,-0.0123,0.0,-0.0062,-0.0247,-0.0494,-0.0682,-0.0994,-0.1491,0.0,0.0,0.0,0.0,0.0,0.0,0.0,0.0,0.0,0.0,0.0,0.0,0.0,0.0,0.0,0.0,0.0,0.0,0.0,0.0,0.0,0.0,0.0,0.0,0.0,0.0,0.0,0.0,0.0,0.0,0.0,0.0,0.0,0.0,0.0,0.0,0.0,0.0,0.0,0.0,0.0,0.0,0.0,0.0,0.0,0.0,0.0,0.0,0.0,0.0,0.0,0.0,0.0,0.0,0.0,0.0,0.0,0.0,0.0,0.0,0.0,0.0,0.0,0.0,0.0,0.0,0.0,0.0,0.0,0.0,0.0,0.0,0.0,0.0,0.0,0.0,0.0,0.0,0.0,0.0,0.0,0.0,0.0,0.0,0.0,0.0,0.0,0.0,0.0,0.0,0.0,0.0,0.0,0.0,0.0,0.0,0.0,0.0,0.0,0.0,0.0,0.0,-0.0556,-0.0185,0.0,0.0,0.0,-0.0062,-0.0309,-0.0432,-0.0679,-0.105,0.0,0.0,0.0,0.0,0.0,0.0,0.0,0.0,0.0,0.0,0.0,0.0,0.0,0.0,0.0,0.0,0.0,0.0,0.0,0.0,0.0,0.0,0.0,0.0,0.0,0.0,0.0,0.0,0.0,0.0,0.0,0.0,0.0,0.0,0.0,0.0,0.0,0.0,0.0,0.0,0.0,0.0,0.0,0.0,0.0,0.0,0.0,0.0,0.0,0.0,0.0,0.0,0.0,0.0,0.0,0.0,0.0,0.0,0.0,0.0,0.0,0.0,0.0,0.0,0.0,0.0,0.0,0.0,0.0,0.0,0.0,0.0,0.0,0.0,0.0,0.0,0.0,0.0,0.0,0.0,0.0,0.0,0.0,0.0,0.0,0.0,0.0,0.0,0.0,0.0,0.0,0.0,0.0,0.0,0.0,0.0,0.0,0.0,0.0,0.0,0.0,0.0,-0.0494,-0.0185,0.0,0.0,0.0,0.0,0.0,-0.0309,-0.0494,-0.0494,0.0,0.0,0.0,0.0,0.0,0.0,0.0,0.0,0.0,0.0,0.0,0.0,0.0,0.0,0.0,0.0,0.0,0.0,0.0,0.0,0.0,0.0,0.0,0.0,0.0,0.0,0.0,0.0,0.0,0.0,0.0,0.0,0.0,0.0,0.0,0.0,0.0,0.0,0.0,0.0,0.0,0.0,0.0,0.0,0.0,0.0,0.0,0.0,0.0,0.0,0.0,0.0,0.0,0.0,0.0,0.0,0.0,0.0,0.0,0.0,-0.5431,0.0,0.0,0.0,0.0,0.0,0.0,0.0,0.0,0.0,0.0,0.0,0.0,0.0,0.0,0.0,0.0,0.0,0.0,0.0,0.0,0.0,0.0,0.0,0.0,0.0,0.0,0.0,0.0,0.0,0.0,0.0,0.0,0.0,0.0,0.0,0.0,0.0,0.0,0.0,0.0,0.0,-0.0123,-0.0062,0.0,0.0,0.0,0.0,0.0,-0.0062,-0.0247,-0.0494,-0.0556,0.0,0.0,0.0,0.0,0.0,0.0,0.0,0.0,0.0,0.0,0.0,0.0,0.0,0.0,0.0,0.0,0.0,0.0,0.0,0.0,0.0,0.0,0.0,0.0,0.0,0.0,0.0,0.0,0.0,0.0,0.0,0.0,0.0,0.0,0.0,0.0,0.0,0.0,0.0,0.0,0.0,0.0,0.0,0.0,0.0,0.0,0.0,0.0,0.0,0.0,0.0,0.0,0.0,0.0,0.0,0.0,0.0,0.0,0.0,0.0,-0.4765,0.0,0.0,0.0,0.0,0.0,0.0,0.0,0.0,0.0,0.0,0.0,0.0,0.0,0.0,0.0,0.0,0.0,0.0,0.0,0.0,0.0,0.0,0.0,0.0,0.0,0.0,0.0,0.0,0.0,0.0,0.0,0.0,0.0,0.0,0.0,0.0,0.0,0.0,0.0,0.0,-0.0062,0.0,0.0,0.0,0.0,0.0,0.0,0.0,-0.0062,-0.0247,-0.0247,0.0,0.0,0.0,0.0,0.0,0.0,0.0,0.0,0.0,0.0,0.0,0.0,0.0,0.0,0.0,0.0,0.0,0.0,0.0,0.0,0.0,0.0,0.0,0.0,0.0,0.0,0.0,0.0,0.0,0.0,0.0,0.0,0.0,0.0,0.0,0.0,0.0,0.0,0.0,0.0,0.0,0.0,0.0,0.0,0.0,0.0,0.0,0.0,0.0,0.0,0.0,0.0,0.0,-0.2209,-0.2206,-0.2205,-0.2119,-0.2109,-0.211,-0.2136,-0.2811,-0.3937,-0.3937,0.0,0.0,0.0,0.0,0.0,0.0,0.0,0.0,0.0,0.0,0.0,0.0,0.0,0.0,0.0,0.0,0.0,0.0,0.0,0.0,0.0,0.0,0.0,0.0,-0.4902,-0.4752,0.0,0.0,0.0,0.0,0.0,0.0,0.0,0.0,0.0,0.0,0.0,0.0,-0.0062,0.0,0.0,0.0,0.0,0.0,0.0,0.0,0.0,0.0,0.0,-0.0123,0.0,0.0,0.0,0.0,0.0,0.0,0.0,0.0,0.0,0.0,0.0,0.0,0.0,0.0,0.0,0.0,0.0,0.0,0.0,0.0,0.0,0.0,0.0,0.0,0.0,0.0,0.0,0.0,0.0,0.0,0.0,0.0,-0.4702,-0.4367,0.0,0.0,0.0,0.0,0.0,0.0,0.0,0.0,0.0,0.0,0.0,0.0,0.0,-0.2222,-0.2222,-0.2129,-0.2115,-0.2115,-0.2089,-0.214,-0.2141,-0.2099,-0.2109,-0.211,-0.2114,0.0,-0.24,-0.24,0.0,0.0,0.0,0.0,0.0,0.0,0.0,0.0,0.0,0.0,0.0,0.0,0.0,0.0,0.0,0.0,0.0,0.0,0.0,0.0,0.0,0.0,-0.1671,-0.1671,-0.1606,-0.1605,0.0,-0.2595,-0.3381,-0.3147,-0.2175,0.0,0.0,0.0,0.0,0.0,0.0,0.0,0.0,0.0,0.0,0.0,0.0,0.0,0.0,0.0,0.0,0.0,0.0,0.0,-0.0062,0.0,0.0,0.0,0.0,0.0,0.0,0.0,0.0,0.0,0.0,0.0,0.0,0.0,0.0,0.0,0.0,0.0,0.0,0.0,0.0,0.0,0.0,0.0,0.0,0.0,0.0,0.0,0.0,0.0,0.0,-0.557,-0.4033,-0.3228,-0.2558,-0.2087,0.0,0.0,0.0,0.0,0.0,0.0,0.0,0.0,0.0,-0.1863,-0.1848,-0.1972,-0.2169,-0.2091,-0.2084,-0.2083,-0.207,-0.2128,-0.2128,-0.206,-0.2059,-0.2057,-0.2041,-0.2027,-0.2018,-0.2114,-0.2054,-0.2102,0.0,0.0,0.0,0.0,-0.377,-0.3581,-0.3581,-0.3455,0.0,-0.3329,0.0,0.0,0.0,0.0,0.0,0.0,0.0,0.0,0.0,0.0,-0.0988,-0.0988,-0.0864,-0.0741,-0.0741,-0.1049,-0.1416,0.0,-0.1405,-0.0917,-0.0733,0.0,0.0,0.0,0.0,0.0,0.0,0.0,0.0,0.0,0.0,0.0,0.0,0.0,0.0,0.0,0.0,0.0,0.0,0.0,0.037,0.0,0.0,0.0,0.0,0.0,0.0,0.0,0.0,0.0,0.0,0.0,0.0,0.0,0.0,0.0,0.0,0.0,0.0,0.0,0.0,0.0,0.0,0.0,0.0,0.0,0.0,0.0,0.0,-0.4765,-0.3228,-0.2154,-0.1953,-0.1818,0.0,0.0,0.0,0.0,0.0,0.0,-0.1132,-0.1121,-0.1245,-0.1442,-0.1491,-0.1612,-0.187,-0.18,-0.1796,-0.1796,-0.1917,-0.1978,-0.1977,-0.1962,-0.2018,-0.2018,-0.1996,-0.1988,-0.199,-0.2026,-0.1965,-0.1882,-0.1882,-0.1808,-0.1729,-0.1729,-0.1606,-0.1359,-0.1359,-0.1235,-0.0988,-0.0988,-0.0988,-0.1173,-0.2157,0.0,0.0,0.0,0.0,-0.0864,-0.0741,-0.0741,-0.0741,-0.0741,-0.0556,-0.037,-0.037,-0.0185,-0.0123,0.0,-0.0737,-0.0675,-0.043,0.0,0.0,0.0,0.0,0.0,0.0,0.0,0.0,0.0,0.0,0.0,0.0,0.0,0.0123,0.0494,0.0494,0.0679,0.0986,0.0986,0.148,0.2465,0.0,0.0,0.0,0.0,0.0,0.0,0.0,0.0,0.0,0.0,0.0,0.0,0.0,0.0,0.0,0.0,0.0,0.0,0.0,0.0,0.0,0.0,0.0,0.0,0.0,0.0,0.0,0.0,0.0,-0.1616,-0.1346,0.0,0.0,0.0,0.0,-0.1123,-0.1122,-0.1115,-0.1099,-0.1098,-0.1097,-0.1097,-0.1096,-0.116,-0.116,-0.1082,-0.1075,-0.1075,-0.1371,-0.1548,-0.1548,-0.1881,-0.2018,-0.2018,-0.2017,-0.2016,-0.2015,-0.1991,-0.1795,-0.1546,-0.1546,-0.136,-0.105,-0.105,-0.105,-0.105,-0.105,-0.0988,-0.0988,-0.0988,-0.0988,-0.0988,-0.105,-0.1111,0.0,0.0,-0.0556,-0.0432,-0.0123,-0.0062,-0.0062,-0.0062,-0.0062,0.0,0.0,0.0,0.0,0.0,-0.006,-0.006,0.0,0.0,0.0,0.0,0.0,0.0,0.0,0.0,0.0,0.0,0.0,0.0,0.0,0.0,0.0555,0.1788,0.1912,0.2465,0.363,0.3692,0.3752,0.3815,0.3752,0.0,0.0,0.0,0.0,0.0,0.0,0.0,0.0,0.0,0.0,0.0,0.0,0.0,0.0,0.0,0.0,0.0,0.0,0.0,0.0,0.0,0.0,0.0,0.0,0.0,0.0,0.0,0.0,-0.1279,-0.1202,0.0,-0.073,-0.0725,-0.0654,-0.039,-0.039,-0.0389,-0.0387,-0.0384,-0.0509,-0.07,-0.0693,-0.0815,-0.1004,-0.0999,-0.0996,-0.0996,-0.1114,-0.1173,-0.1173,-0.1304,-0.1369,-0.1369,-0.1369,-0.1369,-0.1369,-0.1361,-0.142,-0.1482,-0.1235,-0.1111,-0.0988,-0.0988,-0.0864,-0.0679,-0.0679,-0.0556,-0.037,-0.037,-0.037,-0.037,-0.037,-0.037,-0.0309,-0.0185,-0.0185,-0.0123,-0.0062,0.0,0.0,0.0,0.0,0.0,0.0,0.0,0.0,0.0,0.0,0.0,0.0,0.0,0.0,0.0,0.0,0.0,0.0,0.0,0.0,0.0,0.0,0.037,0.1234,0.1296,0.1849,0.314,0.3201,0.3446,0.3875,0.3875,0.4306,0.5168,0.4367,0.4735,0.0,0.0,0.0,0.0,0.0,0.0,0.0,0.0,0.0,0.0,0.0,0.0,0.0,0.0,0.0,0.0,0.0,0.0,0.0,0.0,0.0,0.0,0.0,0.0,0.0,0.0,-0.1136,-0.0936,-0.0792,-0.0654,-0.0327,-0.0325,-0.0258,0.0,0.0,0.0,0.0,0.0,-0.0125,-0.0313,-0.031,-0.0432,-0.0679,-0.0679,-0.0679,-0.0679,-0.0803,-0.0803,-0.0864,-0.0926,-0.0988,-0.0988,-0.0988,-0.0988,-0.0988,-0.0864,-0.0988,-0.1112,-0.0926,-0.0741,-0.0679,-0.0679,-0.0494,-0.0309,-0.0309,-0.0185,0.0,0.0,0.0,0.0,0.0,0.0,0.0,0.0,0.0,0.0,0.0,0.0,0.0,0.0,0.0,0.0,0.0,0.0,0.0,0.0,0.0,0.0,0.0,0.0,0.0,0.0,0.0,0.0,0.0,0.0,0.0,0.0,0.0,0.0555,0.1912,0.1973,0.2711,0.4492,0.4553,0.4797,0.5226,0.5226,0.5657,0.658,0.5843,0.6333,0.8241,0.0,0.0,0.0,0.0,0.0,0.0,0.0,0.0,0.0,0.0,0.0,0.0,0.0,0.0,0.0,0.0,0.0,0.0,0.0,0.0,0.0,0.0,0.0,-0.3894,-0.1859,-0.0527,-0.0461,-0.0195,0.0,0.0,0.0,0.0,0.0,0.0,0.0,0.0,0.0,0.0,0.0,0.0,0.0,0.0,0.0,0.0,0.0,-0.0309,-0.0494,-0.0494,-0.0803,-0.0988,-0.0988,-0.0988,-0.0988,-0.0926,-0.0617,-0.0494,-0.0494,-0.0494,-0.0309,0.0,0.0,0.0,0.0,0.0,0.0,0.0,0.0,0.0,0.0,0.0,0.0,0.0,0.0,0.0,0.0,0.0,0.0,0.0,0.0,0.0,0.0,0.0,0.0,0.0,0.0,0.0,0.0,0.0,0.0,0.0,0.0,0.0,0.0,0.0,0.0,0.0,0.0,0.0062,0.0617,0.1973,0.2096,0.3203,0.5784,0.5968,0.6521,0.7872,0.7933,0.7933,0.7933,0.8244,0.8552,0.8915,0.0,0.0,0.0,0.0,0.0,0.0,0.0,0.0,0.0,0.0,0.0,0.0,0.0,0.0,0.0,0.0,0.0,0.0,0.0,0.0,0.0,0.0,-0.3041,-0.1589,-0.0858,-0.0394,-0.0195,-0.0064,0.0,0.0,0.0,0.0,0.0,0.0,0.0,0.0,0.0,0.0,0.0,0.0,0.0,0.0,0.0,0.0,0.0,-0.0123,-0.0123,-0.0123,-0.0247,-0.0247,-0.0247,-0.0247,-0.0247,-0.0247,-0.0185,-0.0123,-0.0123,-0.0123,-0.0062,0.0,0.0,0.0,0.0,0.0,0.0,0.0,0.0,0.0,0.0,0.0,0.0,0.0,0.0,0.0,0.0,0.0,0.0,0.0,0.0,0.0,0.0,0.0,0.0,0.0,0.0,0.0,0.0,0.0,0.0,0.0,0.0,0.0,0.0,0.0,0.0,0.0,0.0,0.0864,0.1973,0.3262,0.4246,0.5536,0.7255,0.7378,0.7627,0.8244,0.8244,0.8366,0.8607,0.8732,0.8793,0.0,0.0,0.0,0.0,0.0,0.0,0.0,0.0,0.0,0.0,0.0,0.0,0.0,0.0,0.0,0.0,0.0,0.0,0.0,0.0,0.0,0.0,-0.3897,-0.2161,-0.0519,-0.0259,-0.0194,0.0,0.0,0.0,0.0,0.0,0.0,0.0,0.0,0.0,0.0,0.0,0.0,0.0,0.0,0.0,0.0,0.0,0.0,0.0,0.0,0.0,0.0,0.0,0.0,0.0,0.0,0.0,0.0,0.0,0.0,0.0,0.0,0.0,0.0,0.0,0.0,0.0,0.0,0.0,0.0,0.0,0.0,0.0,0.0,0.0,0.0,0.0,0.0,0.0,0.0,0.0,0.0,0.0,0.0,0.0,0.0,0.0,0.0,0.0,0.0,0.0,0.0,0.0,0.0,0.0,0.0,0.0,0.0,0.0,0.0245,0.0802,0.1542,0.2773,0.4553,0.5598,0.0,0.0,0.0,0.8424,0.8613,0.8613,0.0,0.0,0.0,0.9156,0.9278,0.0,0.0,0.0,0.9037,0.8976,0.0,0.0,0.0,0.0,0.0,0.0,0.0,0.0,0.0,0.0,0.0,0.0,0.0,0.0,0.0,0.0,-0.3478,-0.182,-0.0254,0.0,0.0,0.0,0.0,0.0,0.0,0.0,0.0,0.0,0.0,0.0,0.0,0.0,0.0,0.0,0.0,0.0,0.0,0.0,0.0,0.0,0.0,0.0,0.0,0.0,0.0,0.0,0.0,0.0,0.0,0.0,0.0,0.0,0.0,0.0,0.0,0.0,0.0,0.0,0.0,0.0,0.0,0.0,0.0,0.0,0.0,0.0,0.0,0.0,0.0,0.0,0.0,0.0,0.0,0.0,0.0,0.0,0.0,0.0,0.0,0.0,0.0,0.0,0.0,0.0,0.0056,0.0,0.0057,0.0116,0.024,0.0301,0.0789,0.2154,0.0,0.0,0.5782,0.6394,0.7133,0.8369,0.8735,0.8915,0.8915,0.8976,0.9095,0.9335,0.9335,0.9518,0.9822,0.9822,0.9822,0.9761,0.9278,0.9156,0.0,0.0,0.0,0.0,0.0,0.0,0.0,0.0,0.0,0.0,0.0,0.0,0.0,0.0,0.0,-0.4871,-0.2411,-0.0386,-0.0063,0.0,0.0,0.0,0.0,0.0,0.0,0.0,0.0,0.0,0.0,0.0,0.0,0.0,0.0,0.0,0.0,0.0,0.0,0.0,0.0,0.0,0.0,0.0,0.0,0.0,0.0,0.0,0.0,0.0,0.0,0.0,0.0,0.0,0.0,0.0,0.0,0.0,0.0,0.0,0.0,0.0,0.0,0.0,0.0,0.0,0.0,0.0,0.0,0.0,0.0,0.0,0.0,0.0,0.0,0.0,0.0,0.0,0.0,0.0,0.0,0.0,0.0,0.0,0.0,0.0168,0.0225,0.0056,0.0399,0.1042,0.1885,0.1972,0.2544,0.4174,0.4798,0.5598,0.6634,0.75,0.8244,0.8793,0.9095,0.9217,0.9217,0.9457,0.964,0.97,0.97,0.9761,0.9822,0.9822,0.9822,0.9822,0.97,0.964,0.0,0.0,0.0,0.0,0.0,0.0,0.0,0.0,0.0,0.0,0.0,-1.004,-0.9981,0.0,-0.4757,-0.4562,-0.1994,0.0,0.0,0.0,0.0,0.0,0.0,0.0,0.0,0.0,0.0,0.0,0.0,0.0,0.0,0.0,0.0,0.0,0.0,0.0,0.0,0.0,0.0,0.0,0.0,0.0,0.0,0.0,0.0,0.0,0.0,0.0,0.0,0.0,0.0,0.0,0.0,0.0,0.0,0.0,0.0,0.0,0.0,0.0,0.0,0.0,0.0,0.0,0.0,0.0,0.0,0.0,0.0,0.0,0.0,0.0,0.0,0.0,0.0,0.0,0.0,0.0,0.0,0.0,0.0,0.0,0.0,0.0224,0.0336,0.0224,0.0626,0.1099,0.1644,0.2266,0.3268,0.4726,0.5778,0.682,0.7803,0.8482,0.8973,0.9339,0.9457,0.9579,0.9579,0.97,0.9822,0.9822,0.9822,0.9822,0.9822,0.9822,0.9822,0.9822,0.9822,0.9822,0.0,0.0,0.0,0.0,0.0,0.0,0.0,0.0,-1.0534,-1.0687,-1.0366,-0.9949,-0.9688,-0.7146,-0.4902,-0.437,-0.2096,-0.0314,-0.0062,0.0,0.0,0.0,0.0,0.0,0.0,0.0,0.0,0.0,0.0,0.0,0.0,0.0,0.0,0.0,0.0,0.0,0.0,0.0,0.0,0.0,0.0,0.0,0.0,0.0,0.0,0.0,0.0,0.0,0.0,0.0,0.0,0.0,0.0,0.0,0.0,0.0,0.0,0.0,0.0,0.0,0.0,0.0,0.0,0.0,0.0,0.0,0.0,0.0,0.0,0.0,0.0,0.0,0.0,0.0,0.0,0.0,0.0,0.0,0.0,0.0,0.0,0.0,0.0,0.0225,0.0394,0.0394,0.0741,0.11,0.1357,0.2628,0.3991,0.5336,0.6571,0.7739,0.8851,0.9217,0.9518,0.9758,0.9822,0.9822,0.9822,0.9822,0.9822,0.9822,0.9822,0.9822,0.9822,0.9822,0.9822,0.9822,0.9822,0.9822,-1.067,-1.0571,-1.047,-1.047,-1.048,-1.0527,0.0,0.0,-1.0534,-1.0687,-1.0021,-0.9478,-0.9543,-0.7692,-0.5665,-0.4309,-0.2773,-0.1379,-0.0186,0.0,0.0,0.0,0.0,0.0,0.0,0.0,0.0,0.0,0.0,0.0,0.0,0.0,0.0,0.0,0.0,0.0,0.0,0.0,0.0,0.0,0.0,0.0,0.0,0.0,0.0,0.0,0.0,0.0,0.0,0.0,0.0,0.0,0.0,0.0,0.0,0.0,0.0,0.0,0.0,0.0,0.0,0.0,0.0,0.0,0.0,0.0,0.0,0.0,0.0,0.0,0.0,0.0,0.0,0.0,0.0,0.0,0.0,0.0,0.0,0.0,0.0,0.0,0.0,0.0229,0.0401,0.0459,0.0976,0.1801,0.2991,0.4324,0.574,0.7416,0.8233,0.8851,0.9217,0.9579,0.9761,0.9822,0.9822,0.9822,0.9822,0.9822,0.9822,0.9822,0.9822,0.9822,0.9822,0.9822,0.9822,0.9822,0.9822,0.9822,-1.0721,-1.0673,-1.0602,0.0,-1.049,-1.051,-1.0571,-1.0538,-1.0534,-1.0687,-1.0008,-0.9456,-0.9521,-0.7706,-0.5996,0.0,-0.3436,-0.18,-0.1235,-0.0496,0.0,0.0,0.0,0.0,0.0,0.0,0.0,0.0,0.0,0.0,0.0,0.0,0.0,0.0,0.0,0.0,0.0,0.0,0.0,0.0,0.0,0.0,0.0,0.0,0.0,0.0,0.0,0.0,0.0,0.0,0.0,0.0,0.0,0.0,0.0,0.0,0.0,0.0,0.0,0.0,0.0,0.0,0.0,0.0,0.0,0.0,0.0,0.0,0.0,0.0,0.0,0.0,0.0,0.0,0.0,0.0,0.0,0.0,0.0,0.0,0.0,0.0,0.0,0.0117,0.0293,0.0709,0.1124,0.1664,0.2407,0.4363,0.6526,0.8769,0.9271,0.9457,0.9579,0.97,0.9822,0.9822,0.9822,0.9822,0.9822,0.9822,0.9822,0.9822,0.9822,0.9822,0.9822,0.9822,0.9822,0.9822,0.9822,0.9869,-1.067,0.0,0.0,-1.0521,-1.049,-1.0504,-1.0544,-1.0555,-1.0585,-1.0697,-1.0074,-0.9509,-0.9472,-0.7928,-0.6529,-0.6127,-0.4091,-0.2403,-0.2034,-0.0864,0.0,0.0,0.0,0.0,0.0,0.0,0.0,0.0,0.0,0.0,0.0,0.0,0.0,0.0,0.0,0.0,0.0,0.0,0.0,0.0,0.0,0.0,0.0,0.0,0.0,0.0,0.0,0.0,0.0,0.0,0.0,0.0,0.0,0.0,0.0,0.0,0.0,0.0,0.0,0.0,0.0,0.0,0.0,0.0,0.0,0.0,0.0,0.0,0.0,0.0,0.0,0.0,0.0,0.0,0.0,0.0,0.0,0.0,0.0,0.0,0.0,0.0,0.0,0.0,0.0238,0.0909,0.1154,0.1458,0.1883,0.4278,0.6877,0.9515,0.9822,0.9822,0.9822,0.9822,0.9822,0.9822,0.9822,0.9822,0.9822,0.9822,0.9822,0.9822,0.9822,0.9822,0.9822,0.9822,0.9822,0.9822,0.9822,0.9927,0.0,0.0,-1.0497,-1.0493,-1.049,-1.0531,-1.068,-1.0714,-1.0714,-1.0717,-1.0074,-0.9481,-0.9346,-0.864,-0.7578,-0.6109,-0.4739,-0.3384,-0.2157,-0.0864,0.0,0.0,0.0,0.0,0.0,0.0,0.0,0.0,0.0,0.0,0.0,0.0,0.0,0.0,0.0,0.0,0.0,0.0,0.0,0.0,0.0,0.0,0.0,0.0,0.0,0.0,0.0,0.0,0.0,0.0,0.0,0.0,0.0,0.0,0.0,0.0,0.0,0.0,0.0,0.0,0.0,0.0,0.0,0.0,0.0,0.0,0.0,0.0,0.0,0.0,0.0,0.0,0.0,0.0,0.0,0.0,0.0,0.0,0.0,0.0,0.0,0.0,0.0,0.0,0.0242,0.0924,0.0987,0.1234,0.1914,0.4306,0.6877,0.9515,0.9822,0.9822,0.9822,0.9822,0.9822,0.9822,0.9822,0.9822,0.9822,0.9822,0.9822,0.9822,0.9822,0.9822,0.9822,0.9822,0.9822,0.9822,0.9822,0.9985,-1.0656,0.0,-1.0643,-1.0643,-1.0643,-1.0656,-1.0707,-1.0721,-1.0721,-1.0721,-1.0274,-0.9738,-0.934,-0.8827,-0.8197,-0.7334,-0.6088,-0.4737,-0.3447,-0.2157,-0.0987,-0.0123,0.0,0.0,0.0,0.0,0.0,0.0,0.0,0.0,0.0,0.0,0.0,0.0,0.0,0.0,0.0,0.0,0.0,0.0,0.0,0.0,0.0,0.0,0.0,0.0,0.0,0.0,0.0,0.0,0.0,0.0,0.0,0.0,0.0,0.0,0.0,0.0,0.0,0.0,0.0,0.0,0.0,0.0,0.0,0.0,0.0,0.0,0.0,0.0,0.0,0.0,0.0,0.0,0.0,0.0,0.0,0.0,0.0,0.0,0.0,0.0,0.0,0.0,0.0246,0.0925,0.1359,0.2344,0.4307,0.5347,0.6877,0.9515,0.9822,0.9822,0.9822,0.9822,0.9822,0.9822,0.9822,0.9822,0.9822,0.9822,0.9822,0.9822,0.9822,0.9822,0.9822,0.9822,0.9822,0.9822,0.9862,1.0083,-1.0721,-1.0721,-1.0721,-1.0721,-1.0721,-1.0721,-1.0721,-1.0721,-1.0721,-1.0721,-1.0336,-0.9867,-0.9532,-0.9013,-0.8511,-0.8139,-0.6827,-0.5414,-0.406,-0.2833,-0.148,-0.0185,0.0,0.0,0.0,0.0,0.0,0.0,0.0,0.0,0.0,0.0,0.0,0.0,0.0,0.0,0.0,0.0,0.0,0.0,0.0,0.0,0.0,0.0,0.0,0.0,0.0,0.0,0.0,0.0,0.0,0.0,0.0,0.0,0.0,0.0,0.0,0.0,0.0,0.0,0.0,0.0,0.0,0.0,0.0,0.0,0.0,0.0,0.0,0.0,0.0,0.0,0.0,0.0,0.0,0.0,0.0,0.0,0.0,0.0,0.0,0.0,0.0,0.0185,0.0494,0.0926,0.1544,0.296,0.559,0.5896,0.6877,0.9515,0.9822,0.9822,0.9822,0.9822,0.9822,0.9822,0.9822,0.9822,0.9822,0.9822,0.9822,0.9822,0.9822,0.9822,0.9822,0.9822,0.9822,0.9825,0.9916,1.0041,-1.0721,-1.0721,-1.0721,-1.0721,-1.0721,-1.0721,-1.0721,-1.0721,-1.0721,-1.0721,-1.0343,-1.0006,0.0,0.0,-0.8581,-0.8459,-0.7077,-0.5536,-0.4122,-0.2833,-0.1603,0.0,0.0,0.0,0.0,0.0,0.0,0.0,0.0,0.0,0.0,0.0,0.0,0.0,0.0,0.0,0.0,0.0,0.0,0.0,0.0,0.0,0.0,0.0,0.0,0.0,0.0,0.0,0.0,0.0,0.0,0.0,0.0,0.0,0.0,0.0,0.0,0.0,0.0,0.0,0.0,0.0,0.0,0.0,0.0,0.0,0.0,0.0,0.0,0.0,0.0,0.0,0.0,0.0,0.0,0.0,0.0,0.0,0.0,0.0,0.0,0.0,0.0,0.0556,0.0988,0.0988,0.1544,0.296,0.559,0.5896,0.6877,0.9515,0.9822,0.9822,0.9822,0.9822,0.9822,0.9822,0.9822,0.9822,0.9822,0.9822,0.9822,0.9822,0.9822,0.9822,0.9822,0.9822,0.9822,0.9825,0.9916,0.9987,-1.0721,-1.0721,-1.0721,-1.0721,-1.0721,-1.0721,-1.0721,-1.0721,-1.0721,-1.0721,-1.0624,-1.0419,0.0,0.0,0.0,-0.8587,-0.7867,0.0,-0.4244,-0.363,0.0,-0.0247,0.0,0.0,0.0,0.0,0.0,0.0,0.0,0.0,0.0,0.0,0.0,0.0,0.0,0.0,0.0,0.0,0.0,0.0,0.0,0.0,0.0,0.0,0.0,0.0,0.0,0.0,0.0,0.0,0.0,0.0,0.0,0.0,0.0,0.0,0.0,0.0,0.0,0.0,0.0,0.0,0.0,0.0,0.0,0.0,0.0,0.0,0.0,0.0,0.0,0.0,0.0,0.0,0.0,0.0,0.0,0.0,0.0,0.0,0.0,0.0,0.0,0.0556,0.0988,0.0988,0.1544,0.296,0.559,0.5896,0.6877,0.9515,0.9822,0.9822,0.9822,0.9822,0.9822,0.9822,0.9822,0.9822,0.9822,0.9822,0.9822,0.9822,0.9822,0.9822,0.9822,0.9822,0.9822,0.9825,0.9916,0.9987,-1.0721,-1.0721,-1.0721,-1.0721,-1.0721,-1.0721,-1.0721,-1.0721,-1.0721,-1.0721,-1.0721,0.0,0.0,0.0,0.0,0.0,0.0,0.0,-0.4309,-0.3875,-0.2954,0.0,0.0,0.0,0.0,0.0,0.0,0.0,0.0,0.0,0.0,0.0,0.0,0.0,0.0,0.0,0.0,0.0,0.0,0.0,0.0,0.0,0.0,0.0,0.0,0.0,0.0,0.0,0.0,0.0,0.0,0.0,0.0,0.0,0.0,0.0,0.0,0.0,0.0,0.0,0.0,0.0,0.0,0.0,0.0,0.0,0.0,0.0,0.0,0.0,0.0,0.0,0.0,0.0,0.0,0.0,0.0,0.0,0.0,0.0,0.0,0.0,0.0,0.0432,0.0803,0.0988,0.142,0.259,0.4734,0.5529,0.6877,0.9515,0.9822,0.9822,0.9822,0.9822,0.9822,0.9822,0.9822,0.9822,0.9822,0.9822,0.9822,0.9822,0.9822,0.9822,0.9822,0.9822,0.9822,0.9825,0.9916,0.9953,-1.0721,-1.0721,-1.0721,-1.0721,-1.0721,-1.0721,-1.0721,-1.0721,-1.0721,-1.0721,0.0,-1.068,-1.0548,-0.9987,-0.9445,-0.9214,0.0,-0.7261,-0.4573,-0.4003,-0.3016,-0.0555,-0.0123,0.0,0.0,0.0,0.0,0.0,0.0,0.0,0.0,0.0,0.0,0.0,0.0,0.0,0.0,0.0,0.0,0.0,0.0,0.0,0.0,0.0,0.0,0.0,0.0,0.0,0.0,0.0,0.0,0.0,0.0,0.0,0.0,0.0,0.0,0.0,0.0,0.0,0.0,0.0,0.0,0.0,0.0,0.0,0.0,0.0,0.0,0.0,0.0,0.0,0.0,0.0,0.0,0.0,0.0,0.0,0.0,0.0,0.0,0.0,0.0,0.0309,0.0617,0.0926,0.1297,0.2097,0.3692,0.51,0.6813,0.9268,0.9697,0.9822,0.9822,0.9822,0.9822,0.9822,0.9822,0.9822,0.9822,0.9822,0.9822,0.9822,0.9822,0.9822,0.9822,0.9822,0.9822,0.9825,0.9896,0.9886,-1.0721,-1.0721,-1.0721,-1.0721,-1.0721,-1.0721,-1.0721,-1.0721,0.0,0.0,0.0,-1.0711,-1.0683,-1.0251,0.0,-0.946,0.0,0.0,0.0,0.0,-0.3323,0.0,0.0,0.0,0.0,0.0,0.0,0.0,0.0,0.0,0.0,0.0,0.0,0.0,0.0,0.0,0.0,0.0,0.0,0.0,0.0,0.0,0.0,0.0,0.0,0.0,0.0,0.0,0.0,0.0,0.0,0.0,0.0,0.0,0.0,0.0,0.0,0.0,0.0,0.0,0.0,0.0,0.0,0.0,0.0,0.0,0.0,0.0,0.0,0.0,0.0,0.0,0.0,0.0,0.0,0.0,0.0,0.0,0.0,0.0,0.0,0.0,0.0,0.0309,0.0617,0.0926,0.1297,0.2097,0.3692,0.51,0.6508,0.8041,0.9147,0.9822,0.9822,0.9822,0.9822,0.9822,0.9822,0.9822,0.9822,0.9822,0.9822,0.9822,0.9822,0.9822,0.9822,0.9822,0.9822,0.9822,0.9849,0.9846,-1.0721,-1.0721,-1.0721,-1.0721,-1.0721,-1.0721,-1.0721,0.0,0.0,0.0,-1.0721,-1.0721,-1.0721,0.0,0.0,0.0,0.0,0.0,0.0,0.0,0.0,0.0,0.0,0.0,0.0,0.0,0.0,0.0,0.0,0.0,0.0,0.0,0.0,0.0,0.0,0.0,0.0,0.0,0.0,0.0,0.0,0.0,0.0,0.0,0.0,0.0,0.0,0.0,0.0,0.0,0.0,0.0,0.0,0.0,0.0,0.0,0.0,0.0,0.0,0.0,0.0,0.0,0.0,0.0,0.0,0.0,0.0,0.0,0.0,0.0,0.0,0.0,0.0,0.0,0.0,0.0,0.0,0.0,0.0,0.0,0.0,0.0,0.0,0.0123,0.0432,0.0926,0.1112,0.1667,0.2774,0.4674,0.6385,0.7734,0.9022,0.9822,0.9822,0.9822,0.9822,0.9822,0.9822,0.9822,0.9822,0.9822,0.9822,0.9822,0.9822,0.9822,0.9822,0.9822,0.9822,0.9822,0.9822,0.9822,-1.0721,-1.0721,-1.0721,-1.0721,-1.0721,-1.0721,-1.0721,-1.0721,0.0,0.0,-1.0721,-1.0721,-1.0721,0.0,0.0,0.0,0.0,0.0,0.0,0.0,0.0,0.0,0.0,0.0,0.0,0.0,0.0,0.0,0.0,0.0,-0.0432,-0.0679,-0.0863,-0.0863,-0.0555,-0.0432,-0.0432,-0.0123,0.0,0.0,0.0,0.0,0.0,0.0,0.0,0.0,0.0,0.0,0.0,0.0,0.0,0.0,0.0,0.0,0.0,0.0,0.0,0.0,0.0,0.0,0.0,0.0,0.0,0.0,0.0,0.0,0.0,0.0,0.0,0.0,0.0,0.0,0.0,0.0,0.0,0.0,0.0,0.0,0.0,0.0,0.0,0.0,0.0,0.0,0.0247,0.0926,0.0988,0.1235,0.1915,0.4062,0.5957,0.7307,0.8839,0.9822,0.9822,0.9822,0.9822,0.9822,0.9822,0.9822,0.9822,0.9822,0.9822,0.9822,0.9822,0.9822,0.9822,0.9822,0.9822,0.9822,0.9822,0.9822,-1.0787,-1.0721,-1.0721,-1.0721,-1.0721,-1.0721,-1.0721,0.0,0.0,-1.0721,-1.0721,-1.0721,-1.0721,-1.0654,-1.0452,0.0,0.0,0.0,0.0,0.0,0.0,0.0,0.0,0.0,0.0,0.0,0.0,0.0,0.0,0.0,-0.1849,-0.2894,-0.3569,-0.3569,-0.2403,-0.1788,-0.1788,-0.0617,0.0,0.0,0.0,0.0,0.0,0.0,0.0,0.0,0.0,0.0,0.0,0.0,0.0,0.0,0.0,0.0,0.0,0.0,0.0,0.0,0.0,0.0,0.0,0.0,0.0,0.0,0.0,0.0,0.0,0.0,0.0,0.0,0.0,0.0,0.0,0.0,0.0,0.0,0.0,0.0,0.0,0.0,0.0,0.0,0.0,0.0,0.0247,0.0926,0.0988,0.1235,0.1915,0.3203,0.4611,0.5957,0.8285,0.9822,0.9822,0.9822,0.9822,0.9822,0.9822,0.9822,0.9822,0.9822,0.9822,0.9822,0.9822,0.9822,0.9822,0.9822,0.9822,0.9822,0.9822,0.9822,-1.1049,-1.0853,-1.0721,-1.0721,-1.0721,-1.0721,-1.0721,0.0,0.0,-1.0721,-1.0721,-1.0721,-1.0721,-1.0721,-1.0455,0.0,0.0,0.0,0.0,0.0,0.0,0.0,0.0,0.0,0.0,0.0,0.0,0.0,0.0,0.0,-0.437,-0.4062,-0.3875,-0.3875,-0.3384,-0.314,-0.314,-0.1849,-0.1234,-0.1172,-0.037,0.0,0.0,0.0,0.0,0.0,0.0,0.0,0.0,0.0,0.0,0.0,0.0,0.0,0.0,0.0,0.0,0.0,0.0,0.0,0.0,0.0,0.0,0.0,0.0,0.0,0.0,0.0,0.0,0.0,0.0,0.0,0.0,0.0,0.0,0.0,0.0,0.0,0.0,0.0,0.0,0.0,0.0,0.0,0.0247,0.0926,0.0988,0.1235,0.1915,0.3142,0.4427,0.5774,0.7551,0.8961,0.9761,0.9822,0.9822,0.9822,0.9822,0.9822,0.9822,0.9822,0.9822,0.9822,0.9822,0.9822,0.9822,0.9822,0.9822,0.9822,0.9822,0.9822,-1.1314,-1.0986,-1.0721,-1.0721,-1.0721,-1.0721,0.0,0.0,0.0,-1.0721,-1.0721,-1.0721,-1.0721,-1.0721,-1.0522,0.0,0.0,0.0,0.0,0.0,0.0,0.0,0.0,0.0,0.0,0.0,0.0,0.0,0.0,0.0,-0.6521,-0.5596,-0.5104,-0.5104,-0.4674,-0.449,-0.449,-0.3201,-0.2403,-0.1973,-0.1049,-0.037,0.0,0.0,0.0,0.0,0.0,0.0,0.0,0.0,0.0,0.0,0.0,0.0,0.0,0.0,0.0,0.0,0.0,0.0,0.0,0.0,0.0,0.0,0.0,0.0,0.0,0.0,0.0,0.0,0.0,0.0,0.0,0.0,0.0,0.0,0.0,0.0,0.0,0.0,0.0,0.0,0.0,0.0,0.0247,0.0926,0.0988,0.1235,0.1915,0.2774,0.3999,0.5712,0.6754,0.798,0.9636,0.9822,0.9822,0.9822,0.9822,0.9822,0.9822,0.9822,0.9822,0.9822,0.9822,0.9822,0.9822,0.9822,0.9822,0.9822,0.9822,0.9822,-1.1637,-1.0986,-1.0721,-1.0721,-1.0721,-1.0721,0.0,0.0,0.0,-1.0721,-1.0721,-1.0721,-1.0721,-1.0721,-1.0588,-1.0256,0.0,0.0,0.0,0.0,0.0,0.0,0.0,0.0,0.0,0.0,0.0,0.0,0.0,0.0,-0.7869,-0.7869,-0.7869,-0.7869,-0.658,-0.5906,-0.5906,-0.4551,-0.3263,-0.1973,-0.1973,-0.1296,0.0,0.0,0.0,0.0,0.0,0.0,0.0,0.0,0.0,0.0,0.0,0.0,0.0,0.0,0.0,0.0,0.0,0.0,0.0,0.0,0.0,0.0,0.0,0.0,0.0,0.0,0.0,0.0,0.0,0.0,0.0,0.0,0.0,0.0,0.0,0.0,0.0,0.0,0.0,0.0,0.0,0.0,0.0247,0.0926,0.0988,0.1235,0.1915,0.2038,0.3021,0.5592,0.5896,0.6999,0.9576,0.9822,0.9822,0.9822,0.9822,0.9822,0.9822,0.9822,0.9822,0.9822,0.9822,0.9822,0.9822,0.9822,0.9822,0.9822,0.9822,0.9822,-1.3202,-1.2029,-1.0982,-1.0787,-1.0721,-1.0721,-1.0721,0.0,0.0,-1.0721,-1.0721,-1.0721,-1.0721,-1.0721,-1.0588,-1.0256,0.0,0.0,0.0,0.0,0.0,0.0,0.0,0.0,0.0,0.0,0.0,0.0,0.0,0.0,-0.7872,-0.7872,-0.7872,-0.7872,-0.7503,-0.7255,-0.7255,-0.5965,-0.4614,-0.3263,-0.2403,-0.1296,0.0,0.0,0.0,0.0,0.0,0.0,0.0,0.0,0.0,0.0,0.0,0.0,0.0,0.0,0.0,0.0,0.0,0.0,0.0,0.0,0.0,0.0,0.0,0.0,0.0,0.0,0.0,0.0,0.0,0.0,0.0,0.0,0.0,0.0,0.0,0.0,0.0,0.0,0.0,0.0,0.0,0.0,0.0123,0.0617,0.0864,0.1173,0.1606,0.1853,0.3021,0.5592,0.5896,0.6938,0.9576,0.9822,0.9822,0.9822,0.9822,0.9822,0.9822,0.9822,0.9822,0.9822,0.9822,0.9822,0.9822,0.9822,0.9822,0.9822,0.9822,0.9822,0.0,-1.2939,-1.1765,-1.0916,-1.0721,0.0,0.0,0.0,0.0,0.0,-1.0721,-1.0721,-1.0721,-1.0721,-1.0654,-1.0389,0.0,0.0,0.0,0.0,0.0,0.0,0.0,0.0,0.0,0.0,0.0,0.0,0.0,0.0,-0.7872,-0.7872,-0.7872,-0.7872,-0.7872,-0.7872,-0.7872,-0.7072,-0.5965,-0.4613,-0.3324,-0.2034,-0.074,-0.0247,0.0,0.0,0.0,0.0,0.0,0.0,0.0,0.0,0.0,0.0,0.0,0.0,0.0,0.0,0.0,0.0,0.0,0.0,0.0,0.0,0.0,0.0,0.0,0.0,0.0,0.0,0.0,0.0,0.0,0.0,0.0,0.0,0.0,0.0,0.0,0.0,0.0,0.0,0.0,0.0,0.0185,0.0617,0.0864,0.1173,0.1606,0.1853,0.2837,0.4918,0.559,0.6754,0.89,0.9515,0.9822,0.9822,0.9822,0.9822,0.9822,0.9822,0.9822,0.9822,0.9822,0.9822,0.9822,0.9822,0.9822,0.9822,0.9822,0.9822,0.0,-1.3648,-1.2935,-1.1111,-1.0721,-1.0721,0.0,0.0,0.0,0.0,0.0,0.0,0.0,0.0,0.0,0.0,0.0,0.0,0.0,0.0,0.0,0.0,0.0,0.0,0.0,0.0,0.0,0.0,0.0,0.0,-0.7872,-0.7872,-0.7872,-0.7872,-0.7872,-0.7872,-0.7872,-0.7872,-0.7258,-0.5906,-0.4613,-0.3324,-0.1973,-0.074,-0.0062,0.0,0.0,0.0,0.0,0.0,0.0,0.0,0.0,0.0,0.0,0.0,0.0,0.0,0.0,0.0,0.0,0.0,0.0,0.0,0.0,0.0,0.0,0.0,0.0,0.0,0.0,0.0,0.0,0.0,0.0,0.0,0.0,0.0,0.0,0.0,0.0,0.0,0.0,0.0,0.0185,0.0864,0.0988,0.1235,0.1853,0.1977,0.2468,0.3753,0.51,0.6449,0.7795,0.9083,0.9822,0.9822,0.9822,0.9822,0.9822,0.9822,0.9822,0.9822,0.9822,0.9822,0.9822,0.9822,0.9822,0.9822,0.9822,0.9822,-1.6372,0.0,-1.3198,-1.1178,-1.0721,-1.0721,0.0,0.0,0.0,0.0,0.0,0.0,0.0,0.0,0.0,0.0,0.0,0.0,0.0,0.0,0.0,0.0,0.0,0.0,0.0,0.0,0.0,0.0,0.0,-0.7872,-0.7872,-0.7872,-0.7872,-0.7872,-0.7872,-0.7872,-0.7872,-0.7872,-0.7258,-0.5906,-0.56,-0.4247,-0.1973,-0.1665,-0.0987,0.0,0.0,0.0,0.0,0.0,0.0,0.0,0.0,0.0,0.0,0.0,0.0,0.0,0.0,0.0,0.0,0.0,0.0,0.0,0.0,0.0,0.0,0.0,0.0,0.0,0.0,0.0,0.0,0.0,0.0,0.0,0.0,0.0,0.0,0.0,0.0,0.0,0.0,0.0,0.0062,0.0185,0.0679,0.105,0.1235,0.1667,0.2468,0.3753,0.51,0.6449,0.7795,0.9083,0.9822,0.9822,0.9822,0.9822,0.9822,0.9822,0.9822,0.9822,0.9822,0.9822,0.9822,0.9822,0.9822,0.9822,0.9822,0.9822,-1.6695,-1.5334,-1.4106,-1.1372,-1.0721,-1.0721,-1.0721,0.0,0.0,0.0,0.0,0.0,0.0,0.0,0.0,0.0,0.0,0.0,0.0,0.0,0.0,0.0,0.0,0.0,0.0,0.0,0.0,0.0,0.0,-0.7872,-0.7872,-0.7872,-0.7872,-0.7872,-0.7872,-0.7872,-0.7872,-0.7872,-0.7564,-0.6827,-0.6213,-0.4862,-0.2833,-0.2281,-0.1296,0.0,0.0,0.0,0.0,0.0,0.0,0.0,0.0,0.0,0.0,0.0,0.0,0.0,0.0,0.0,0.0,0.0,0.0,0.0,0.0,0.0,0.0,0.0,0.0,0.0,0.0,0.0,0.0,0.0,0.0,0.0,0.0,0.0,0.0,0.0,0.0,0.0,0.0,0.0,0.0062,0.0185,0.0679,0.105,0.1235,0.1667,0.2284,0.2958,0.4735,0.6202,0.6938,0.8714,0.9822,0.9822,0.9822,0.9822,0.9822,0.9822,0.9822,0.9822,0.9822,0.9822,0.9822,0.9822,0.9822,0.9822,0.9822,0.9822,-1.6501,-1.5848,-1.5009,-1.1567,-1.0721,-1.0721,0.0,0.0,0.0,0.0,0.0,0.0,0.0,0.0,0.0,0.0,0.0,0.0,0.0,0.0,0.0,0.0,0.0,0.0,0.0,0.0,0.0,0.0,0.0,-0.7994,-0.7994,-0.7933,-0.7872,-0.7872,-0.7872,-0.7872,-0.7872,-0.7872,-0.7872,-0.7869,-0.6766,-0.5414,-0.3875,-0.2772,-0.148,0.0,0.0,0.0,0.0,0.0,0.0,0.0,0.0,0.0,0.0,0.0,0.0,0.0,0.0,0.0,0.0,0.0,0.0,0.0,0.0,0.0,0.0,0.0,0.0,0.0,0.0,0.0,0.0,0.0,0.0,0.0,0.0,0.0,0.0,0.0,0.0,0.0,0.0,0.0,0.0123,0.037,0.0679,0.105,0.1359,0.1729,0.1915,0.1977,0.4185,0.5651,0.5896,0.8102,0.9576,0.9761,0.9822,0.9822,0.9822,0.9822,0.9822,0.9822,0.9822,0.9822,0.9822,0.9822,0.9822,0.9822,0.9822,0.9822,-1.6695,-1.5664,-1.4698,-1.1505,-1.0721,-1.0721,0.0,0.0,0.0,0.0,0.0,0.0,0.0,0.0,0.0,0.0,0.0,0.0,0.0,0.0,0.0,0.0,0.0,0.0,0.0,0.0,0.0,0.0,0.0,-0.8308,-0.8308,-0.8058,-0.7872,-0.7872,-0.7872,-0.7872,-0.7872,-0.7872,-0.7872,-0.7872,-0.7686,-0.6272,-0.3875,-0.3692,-0.2279,0.0,0.0,0.0,0.0,0.0,0.0,0.0,0.0,0.0,0.0,0.0,0.0,0.0,0.0,0.0,0.0,0.0,0.0,0.0,0.0,0.0,0.0,0.0,0.0,0.0,0.0,0.0,0.0,0.0,0.0,0.0,0.0,0.0,0.0,0.0,0.0,0.0,0.0,0.0,0.0,0.0062,0.037,0.0679,0.105,0.1359,0.1667,0.1977,0.3326,0.4671,0.5774,0.7304,0.8653,0.9761,0.9822,0.9822,0.9822,0.9822,0.9822,0.9822,0.9822,0.9822,0.9822,0.9822,0.9822,0.9822,0.9822,0.9822,-1.6372,-1.4558,-1.2746,-1.1111,-1.0721,0.0,0.0,0.0,0.0,0.0,0.0,0.0,0.0,0.0,0.0,0.0,0.0,0.0,0.0,0.0,0.0,0.0,0.0,0.0,0.0,0.0,0.0,0.0,0.0,0.0,-0.843,-0.8244,-0.8058,-0.7933,-0.7872,-0.7872,-0.7872,-0.7872,-0.7872,-0.7872,-0.7872,-0.6886,-0.4983,-0.4244,-0.2894,-0.1049,0.0,0.0,0.0,0.0,0.0,0.0,0.0,0.0,0.0,0.0,0.0,0.0,0.0,0.0,0.0,0.0,0.0,0.0,0.0,0.0,0.0,0.0,0.0,0.0,0.0,0.0,0.0,0.0,0.0,0.0,0.0,0.0,0.0,0.0,0.0,0.0,0.0,0.0,0.0,0.0,0.0309,0.0617,0.0926,0.1297,0.1606,0.1977,0.3142,0.4427,0.5774,0.7121,0.8471,0.9697,0.9822,0.9822,0.9822,0.9822,0.9822,0.9822,0.9822,0.9822,0.9822,0.9822,0.9822,0.9822,0.9822,0.9822,-1.6177,-1.404,-1.1835,-1.0916,0.0,0.0,0.0,0.0,0.0,0.0,0.0,0.0,0.0,0.0,0.0,0.0,0.0,0.0,0.0,0.0,0.0,0.0,0.0,0.0,0.0,0.0,0.0,0.0,0.0,0.0,-0.861,-0.8491,-0.8305,-0.7994,-0.7933,-0.7872,-0.7872,-0.7872,-0.7872,-0.7872,-0.7872,-0.7011,-0.5414,-0.4367,-0.3017,-0.148,-0.0432,0.0,0.0,0.0,0.0,0.0,0.0,0.0,0.0,0.0,0.0,0.0,0.0,0.0,0.0,0.0,0.0,0.0,0.0,0.0,0.0,0.0,0.0,0.0,0.0,0.0,0.0,0.0,0.0,0.0,0.0,0.0,0.0,0.0,0.0,0.0,0.0,0.0,0.0,0.0,0.0247,0.0556,0.0926,0.1235,0.1544,0.1977,0.2897,0.4122,0.5774,0.7121,0.8471,0.9697,0.9822,0.9822,0.9822,0.9822,0.9822,0.9822,0.9822,0.9822,0.9822,0.9822,0.9822,0.9822,0.9822,0.9839,-1.6635,-1.5284,-1.3997,-1.1376,0.0,0.0,0.0,0.0,0.0,0.0,0.0,0.0,0.0,0.0,0.0,0.0,0.0,0.0,0.0,0.0,0.0,0.0,0.0,0.0,0.0,0.0,0.0,0.0,0.0,0.0,-0.9214,-0.8732,-0.8369,-0.8369,-0.8058,-0.7872,-0.7872,-0.7872,-0.7872,-0.7872,-0.7872,-0.6517,-0.4059,-0.3937,-0.2524,-0.0123,-0.0062,0.0,0.0,0.0,0.0,0.0,0.0,0.0,0.0,0.0,0.0,0.0,0.0,0.0,0.0,0.0,0.0,0.0,0.0,0.0,0.0,0.0,0.0,0.0,0.0,0.0,0.0,0.0,0.0,0.0,0.0,0.0,0.0,0.0,0.0,0.0,0.0,0.0,0.0,0.0,0.0,0.0247,0.0926,0.105,0.1297,0.1915,0.2099,0.3144,0.5714,0.7121,0.8471,0.9697,0.9822,0.9822,0.9822,0.9822,0.9822,0.9822,0.9822,0.9822,0.9822,0.9822,0.9822,0.9822,0.9822,0.9897,-1.6177,-1.4106,-1.2029,-1.0982,0.0,0.0,0.0,0.0,0.0,0.0,0.0,0.0,0.0,0.0,0.0,0.0,0.0,0.0,0.0,0.0,0.0,0.0,0.0,0.0,0.0,0.0,0.0,0.0,0.0,0.0,-0.9335,-0.8915,-0.8613,-0.843,-0.8058,-0.7872,-0.7872,-0.7872,-0.7872,-0.7872,-0.7872,-0.7378,-0.6333,-0.4673,-0.3384,-0.234,-0.0679,0.0,0.0,0.0,0.0,0.0,0.0,0.0,0.0,0.0,0.0,0.0,0.0,0.0,0.0,0.0,0.0,0.0,0.0,0.0,0.0,0.0,0.0,0.0,0.0,0.0,0.0,0.0,0.0,0.0,0.0,0.0,0.0,0.0,0.0,0.0,0.0,0.0,0.0,0.0,0.0,0.0247,0.0926,0.0988,0.1235,0.1915,0.2714,0.357,0.455,0.6632,0.8102,0.8593,0.939,0.9822,0.9822,0.9822,0.9822,0.9822,0.9822,0.9822,0.9822,0.9822,0.9822,0.9822,0.9859,0.9933,-1.5334,-1.3259,-1.1244,0.0,0.0,0.0,0.0,0.0,0.0,0.0,0.0,0.0,0.0,0.0,0.0,0.0,0.0,0.0,0.0,0.0,0.0,0.0,0.0,0.0,0.0,0.0,0.0,0.0,0.0,0.0,0.0,-0.9156,-0.8854,-0.8552,-0.8244,-0.7994,-0.7872,-0.7872,-0.7872,-0.7872,-0.7872,-0.7686,-0.7194,-0.492,-0.3692,-0.3201,-0.0987,0.0,0.0,0.0,0.0,0.0,0.0,0.0,0.0,0.0,0.0,0.0,0.0,0.0,0.0,0.0,0.0,0.0,0.0,0.0,0.0,0.0,0.0,0.0,0.0,0.0,0.0,0.0,0.0,0.0,0.0,0.0,0.0,0.0,0.0,0.0,0.0,0.0,0.0,0.0,0.0,0.0185,0.0741,0.0926,0.1235,0.1915,0.2774,0.3448,0.3876,0.5957,0.7429,0.7856,0.9083,0.9822,0.9822,0.9822,0.9822,0.9822,0.9822,0.9822,0.9822,0.9822,0.9822,0.9825,0.9916,1.0014,-1.4162,-1.3066,0.0,0.0,0.0,0.0,0.0,0.0,0.0,0.0,0.0,0.0,0.0,0.0,0.0,0.0,0.0,0.0,0.0,0.0,0.0,0.0,0.0,0.0,0.0,0.0,0.0,0.0,0.0,0.0,0.0,-0.9457,-0.9156,-0.8915,-0.8552,-0.8244,-0.793,-0.7869,-0.7869,-0.7869,-0.7869,-0.7194,-0.5845,-0.449,-0.3201,-0.1973,-0.0617,0.0,0.0,0.0,0.0,0.0,0.0,0.0,0.0,0.0,0.0,0.0,0.0,0.0,0.0,0.0,0.0,0.0,0.0,0.0,0.0,0.0,0.0,0.0,0.0,0.0,0.0,0.0,0.0,0.0,0.0,0.0,0.0,0.0,0.0,0.0,0.0,0.0,0.0,0.0,0.0,0.0123,0.0432,0.0803,0.1235,0.1915,0.1977,0.253,0.3753,0.51,0.6446,0.7795,0.9086,0.9761,0.9822,0.9822,0.9822,0.9822,0.9822,0.9822,0.9822,0.9822,0.9822,0.9825,0.992,1.0134,-1.3317,-1.2141,0.0,0.0,0.0,0.0,0.0,0.0,0.0,0.0,0.0,0.0,0.0,0.0,0.0,0.0,0.0,0.0,0.0,0.0,0.0,0.0,0.0,0.0,0.0,0.0,0.0,0.0,0.0,0.0,0.0,-0.9457,-0.9156,-0.8915,-0.8552,-0.8204,-0.7752,-0.7752,-0.7709,-0.7625,-0.7709,-0.7612,-0.7255,-0.492,-0.3692,-0.3201,-0.0987,0.0,0.0,0.0,0.0,0.0,0.0,0.0,0.0,0.0,0.0,0.0,0.0,0.0,0.0,0.0,0.0,0.0,0.0,0.0,0.0,0.0,0.0,0.0,0.0,0.0,0.0,0.0,0.0,0.0,0.0,0.0,0.0,0.0,0.0,0.0,0.0,0.0,0.0,0.0,0.0,0.0185,0.0803,0.1173,0.1544,0.1977,0.1977,0.2161,0.253,0.3754,0.5039,0.6385,0.7734,0.8839,0.9758,0.9822,0.9822,0.9822,0.9822,0.9822,0.9822,0.9822,0.9876,0.9923,1.0141,1.029,-1.2095,0.0,0.0,0.0,0.0,0.0,0.0,0.0,0.0,0.0,0.0,0.0,0.0,0.0,0.0,0.0,0.0,0.0,0.0,0.0,0.0,0.0,0.0,0.0,0.0,0.0,0.0,0.0,0.0,0.0,0.0,-0.9579,-0.931,-0.8835,-0.8654,-0.8231,-0.763,-0.7627,-0.7592,-0.7519,-0.7592,-0.7665,-0.7673,-0.5628,-0.4676,-0.4551,-0.191,-0.0494,0.0,0.0,0.0,0.0,0.0,0.0,0.0,0.0,0.0,0.0,0.0,0.0,0.0,0.0,0.0,0.0,0.0,0.0,0.0,0.0,0.0,0.0,0.0,0.0,0.0,0.0,0.0,0.0,0.0,0.0,0.0,0.0,0.0,0.0,0.0,0.0,0.0,0.0,0.0,0.0247,0.0926,0.1173,0.1482,0.1977,0.1977,0.1977,0.1977,0.3142,0.4243,0.5039,0.6385,0.7673,0.9022,0.9515,0.9822,0.9822,0.9822,0.9822,0.9822,0.9822,0.9839,0.999,1.0209,1.0354,0.0,0.0,0.0,0.0,0.0,0.0,0.0,0.0,0.0,0.0,0.0,0.0,0.0,0.0,0.0,0.0,0.0,0.0,0.0,0.0,0.0,0.0,0.0,0.0,0.0,0.0,0.0,0.0,0.0,0.0,0.0,-0.9822,-0.9452,-0.8772,-0.8709,-0.8343,-0.7561,-0.7502,-0.7497,-0.7486,-0.7497,-0.7502,-0.7452,-0.6357,-0.5776,-0.5416,-0.2896,-0.111,0.0,0.0,0.0,0.0,0.0,0.0,0.0,0.0,0.0,0.0,0.0,0.0,0.0,0.0,0.0,0.0,0.0,0.0,0.0,0.0,0.0,0.0,0.0,0.0,0.0,0.0,0.0,0.0,0.0,0.0,0.0,0.0,0.0,0.0,0.0,0.0,0.0,0.0,0.0,0.0247,0.0926,0.0988,0.1235,0.1915,0.1977,0.1977,0.1977,0.308,0.3753,0.3875,0.5039,0.6385,0.7858,0.9022,0.9697,0.9822,0.9822,0.9822,0.9822,0.9822,0.9907,1.0011,1.0215,1.0365,0.0,0.0,0.0,0.0,0.0,0.0,0.0,0.0,0.0,0.0,0.0,0.0,0.0,0.0,0.0,0.0,0.0,0.0,0.0,0.0,0.0,0.0,0.0,0.0,0.0,0.0,0.0,0.0,0.0,0.0,-0.9822,-0.9822,-0.957,-0.9007,-0.8825,-0.8413,-0.7718,-0.7489,-0.7328,0.0,-0.7328,-0.7317,-0.7325,-0.6252,-0.4685,-0.2773,-0.111,-0.0247,0.0,0.0,0.0,0.0,0.0,0.0,0.0,0.0,0.0,0.0,0.0,0.0,0.0,0.0,0.0,0.0,0.0,0.0,0.0,0.0,0.0,0.0,0.0,0.0,0.0,0.0,0.0,0.0,0.0,0.0,0.0,0.0,0.0,0.0,0.0,0.0,0.0,0.0,0.0,0.0247,0.0926,0.0988,0.1235,0.1915,0.1977,0.1977,0.1977,0.2222,0.2836,0.3815,0.4182,0.5406,0.7795,0.8163,0.8778,0.9758,0.9822,0.9822,0.9822,0.9822,0.9961,1.0232,1.0263,1.0422,0.0,0.0,0.0,0.0,0.0,0.0,0.0,0.0,0.0,0.0,0.0,0.0,0.0,0.0,0.0,0.0,0.0,0.0,0.0,0.0,0.0,0.0,0.0,0.0,0.0,0.0,0.0,0.0,0.0,-0.9822,-0.9822,-0.9754,-0.947,-0.9029,-0.8669,-0.8244,-0.7702,-0.7418,-0.7217,-0.7213,-0.722,-0.7279,-0.7285,-0.616,-0.4649,-0.2803,-0.1536,-0.0617,0.0,0.0,0.0,0.0,0.0,0.0,0.0,0.0,0.0,0.0,0.0,0.0,0.0,0.0,0.0,0.0,0.0,0.0,0.0,0.0,0.0,0.0,0.0,0.0,0.0,0.0,0.0,0.0,0.0,0.0,0.0,0.0,0.0,0.0,0.0,0.0,0.0,0.0,0.0,0.0185,0.0679,0.0926,0.1112,0.1482,0.1667,0.1791,0.1791,0.1791,0.2099,0.2958,0.302,0.3877,0.5896,0.5957,0.7182,0.9761,0.9822,0.9822,0.9822,0.9822,0.9981,1.028,1.028,1.0439,0.0,0.0,0.0,0.0,0.0,0.0,0.0,0.0,0.0,0.0,0.0,0.0,0.0,0.0,0.0,0.0,0.0,0.0,0.0,0.0,0.0,0.0,0.0,0.0,0.0,0.0,0.0,0.0,0.0,-0.9812,-0.9785,-0.9673,-0.9409,-0.8945,-0.8539,-0.8076,-0.7662,-0.7379,-0.721,-0.721,-0.721,-0.7206,-0.7255,-0.612,-0.4962,-0.3729,-0.2502,-0.123,0.0,0.0,0.0,0.0,0.0,0.0,0.0,0.0,0.0,0.0,0.0,0.0,0.0,0.0,0.0,0.0,0.0,0.0,0.0,0.0,0.0,0.0,0.0,0.0,0.0,0.0,0.0,0.0,0.0,0.0,0.0,0.0,0.0,0.0,0.0,0.0,0.0,0.0,0.0,0.0123,0.0432,0.0803,0.0988,0.0988,0.1297,0.1482,0.1482,0.1482,0.1667,0.1977,0.1977,0.259,0.3876,0.3875,0.5651,0.939,0.9451,0.9576,0.9822,0.9822,0.9981,1.028,1.028,1.0439,0.0,0.0,0.0,0.0,0.0,0.0,0.0,0.0,0.0,0.0,0.0,0.0,0.0,0.0,0.0,0.0,0.0,0.0,0.0,0.0,0.0,0.0,0.0,0.0,0.0,0.0,0.0,0.0,-0.9822,-0.9768,-0.9646,-0.9618,-0.9479,-0.9195,-0.8603,-0.8188,-0.7937,-0.7432,-0.721,-0.721,-0.721,-0.7218,-0.7182,-0.6009,-0.4862,-0.3726,-0.2413,-0.1158,0.0,0.0,0.0,0.0,0.0,0.0,0.0,0.0,0.0,0.0,0.0,0.0,0.0,0.0,0.0,0.0,0.0,0.0,0.0,0.0,0.0,0.0,0.0,0.0,0.0,0.0,0.0,0.0,0.0,0.0,0.0,0.0,0.0,0.0,0.0,0.0,0.0,0.0,0.0,0.0123,0.0432,0.0803,0.0988,0.0988,0.1297,0.1482,0.1482,0.1482,0.1667,0.1977,0.1977,0.259,0.3876,0.3875,0.5223,0.8102,0.8163,0.8714,0.9822,0.9822,0.9981,1.028,1.028,1.0439,0.0,0.0,0.0,0.0,0.0,0.0,0.0,0.0,0.0,0.0,0.0,0.0,0.0,0.0,0.0,0.0,0.0,0.0,0.0,0.0,0.0,0.0,0.0,0.0,0.0,0.0,0.0,0.0,-0.9822,-0.9758,-0.9615,-0.953,-0.9381,-0.9217,-0.8679,-0.8273,-0.7989,-0.7604,-0.7324,-0.721,-0.721,-0.721,-0.7154,-0.6649,-0.541,-0.3622,-0.2339,-0.1094,0.0,0.0,0.0,0.0,0.0,0.0,0.0,0.0,0.0,0.0,0.0,0.0,0.0,0.0,0.0,0.0,0.0,0.0,0.0,0.0,0.0,0.0,0.0,0.0,0.0,0.0,0.0,0.0,0.0,0.0,0.0,0.0,0.0,0.0,0.0,0.0,0.0,0.0,0.0,0.0062,0.0185,0.0494,0.0617,0.0432,0.0741,0.0926,0.0926,0.1111,0.1359,0.1729,0.1915,0.2222,0.2836,0.2836,0.3756,0.5651,0.7121,0.8532,0.9822,0.9845,1.0063,1.0283,1.0361,1.0514,0.0,0.0,0.0,0.0,0.0,0.0,0.0,0.0,0.0,0.0,0.0,0.0,0.0,0.0,0.0,0.0,0.0,0.0,0.0,0.0,0.0,0.0,0.0,0.0,0.0,0.0,0.0,0.0,-0.9822,-0.9741,-0.9561,-0.9442,-0.9296,-0.9103,-0.8709,-0.8318,-0.7989,-0.766,-0.7379,-0.721,-0.721,-0.721,-0.721,-0.721,-0.6032,-0.3998,-0.2799,-0.1575,-0.0494,-0.0123,0.0,0.0,0.0,0.0,0.0,0.0,-0.0185,-0.0494,-0.0494,-0.074,-0.0986,-0.0986,-0.0802,-0.0494,-0.0494,-0.0247,0.0,0.0,0.0,0.0,0.0,0.0,0.0,0.0,0.0,0.0,0.0,0.0,0.0,0.0,0.0,0.0,0.0,0.0,0.0,0.0,0.0,0.0,0.0,0.0309,0.037,0.0062,0.0309,0.0494,0.0494,0.0803,0.1173,0.1482,0.1791,0.1977,0.1977,0.1977,0.259,0.3875,0.5835,0.7673,0.9329,0.9477,0.9811,1.0283,1.0426,1.0575,0.0,0.0,0.0,0.0,0.0,0.0,0.0,0.0,0.0,0.0,0.0,0.0,0.0,0.0,0.0,0.0,0.0,0.0,0.0,0.0,0.0,0.0,0.0,0.0,0.0,0.0,0.0,0.0,-0.9822,-0.9696,-0.9408,-0.9384,-0.9249,-0.8902,-0.8657,-0.8318,-0.7989,-0.749,-0.721,-0.721,-0.721,-0.721,-0.721,-0.721,-0.6544,-0.534,-0.4056,-0.2875,-0.1788,-0.0494,0.0,0.0,0.0,0.0,0.0,0.0,-0.0802,-0.1912,-0.1912,-0.271,-0.3692,-0.3692,-0.2894,-0.1912,-0.1912,-0.0987,0.0,0.0,0.0,0.0,0.0,0.0,0.0,0.0,0.0,0.0,0.0,0.0,0.0,0.0,0.0,0.0,0.0,0.0,0.0,0.0,0.0,0.0,0.0,0.0309,0.037,0.0062,0.0309,0.0494,0.0494,0.0803,0.1173,0.1482,0.1791,0.1977,0.1977,0.1977,0.259,0.3875,0.4059,0.5406,0.798,0.8105,0.8926,1.0283,1.0426,1.0575,0.0,0.0,0.0,0.0,0.0,0.0,0.0,0.0,0.0,0.0,0.0,0.0,0.0,0.0,0.0,0.0,0.0,0.0,0.0,0.0,0.0,0.0,0.0,0.0,0.0,0.0,0.0,0.0,0.0,-0.9693,-0.9398,-0.9381,-0.9245,-0.8892,-0.8826,-0.8491,-0.7989,-0.766,-0.7379,-0.721,-0.721,-0.721,-0.721,-0.721,-0.7059,-0.6693,-0.5401,-0.3769,-0.1912,-0.0555,-0.0494,-0.1296,-0.1296,-0.1787,-0.2524,-0.2524,-0.2832,-0.3201,-0.3201,-0.3507,-0.3875,-0.3875,-0.3569,-0.3078,-0.2219,-0.1665,-0.111,-0.0247,0.0,0.0,0.0,0.0,0.0,0.0,0.0,0.0,0.0,0.0,0.0,0.0,0.0,0.0,0.0,0.0,0.0,0.0,0.0,0.0,0.0,0.0123,0.0123,0.0,0.0123,0.0185,0.0185,0.0679,0.105,0.1173,0.1667,0.1977,0.1977,0.1977,0.2223,0.2652,0.2676,0.4431,0.8037,0.816,0.8988,1.0419,1.0568,1.0666,0.0,0.0,0.0,0.0,0.0,0.0,0.0,0.0,0.0,0.0,0.0,0.0,0.0,0.0,0.0,0.0,0.0,0.0,0.0,0.0,0.0,0.0,0.0,0.0,0.0,0.0,0.0,0.0,0.0,0.0,-0.9395,-0.9334,-0.9191,-0.8892,-0.8826,-0.8546,-0.7989,-0.7715,-0.7438,-0.721,-0.721,-0.721,-0.721,-0.721,-0.7266,-0.7343,-0.6089,-0.4662,-0.3202,-0.1849,-0.1849,-0.2648,-0.2648,-0.314,-0.3875,-0.3875,-0.4183,-0.4553,-0.4553,-0.4858,-0.5226,-0.5226,-0.492,-0.4429,-0.3571,-0.2712,-0.1788,-0.0925,-0.037,0.0,0.0,0.0,0.0,0.0,0.0,0.0,0.0,0.0,0.0,0.0,0.0,0.0,0.0,0.0,0.0,0.0,0.0,0.0,0.0,0.0,0.0,0.0,0.0,0.0,0.0,0.0494,0.0864,0.0988,0.1544,0.1853,0.1977,0.1986,0.199,0.199,0.2019,0.3625,0.6826,0.7407,0.8388,0.9844,1.0452,1.0721,0.0,0.0,0.0,0.0,0.0,0.0,0.0,0.0,0.0,0.0,0.0,0.0,0.0,0.0,0.0,0.0,0.0,0.0,0.0,0.0,0.0,0.0,0.0,0.0,0.0,0.0,0.0,0.0,-0.969,-0.9544,-0.9391,-0.9289,-0.9083,-0.8888,-0.8654,-0.8374,-0.8045,-0.7771,-0.7493,-0.721,-0.721,-0.721,-0.721,-0.721,-0.7222,-0.7228,-0.606,-0.5735,-0.5841,-0.449,-0.3937,-0.3937,-0.3937,-0.3997,-0.3997,-0.3997,-0.486,-0.5968,-0.5968,-0.6827,-0.7872,-0.7872,-0.7011,-0.5968,-0.5906,-0.4125,-0.2034,-0.2035,-0.1049,0.0,0.0,0.0,0.0,0.0,0.0,0.0,0.0,0.0,0.0,0.0,0.0,0.0,0.0,0.0,0.0,0.0,0.0,0.0,0.0,0.0,0.0,0.0,0.0,0.0,0.0,0.0309,0.0617,0.0988,0.1297,0.1668,0.1977,0.2004,0.2019,0.202,0.205,0.2792,0.421,0.5652,0.703,0.8413,0.9987,1.0721,-0.9822,0.0,0.0,0.0,0.0,0.0,-0.9822,-0.9822,0.0,0.0,0.0,0.0,0.0,0.0,0.0,0.0,0.0,0.0,0.0,0.0,0.0,0.0,0.0,0.0,0.0,0.0,0.0,0.0,-0.969,-0.9544,-0.9391,-0.9137,-0.8981,-0.8885,-0.8826,-0.8657,-0.8374,-0.8045,-0.7771,-0.7493,-0.7268,-0.721,-0.721,-0.721,-0.7222,-0.7285,-0.7056,-0.7069,-0.703,-0.4836,-0.449,-0.5352,-0.5352,-0.5965,-0.6823,-0.6823,-0.7008,-0.7319,-0.7319,-0.7564,-0.7872,-0.7872,-0.7625,-0.7194,-0.6213,-0.4737,-0.3201,-0.2281,-0.1049,0.0,0.0,0.0,0.0,0.0,0.0,0.0,0.0,0.0,0.0,0.0,0.0,0.0,0.0,0.0,0.0,0.0,0.0,0.0,0.0,0.0,0.0,0.0,0.0,0.0,0.0,0.0309,0.0617,0.0988,0.1297,0.1675,0.2006,0.2014,0.2029,0.2051,0.2081,0.2297,0.2701,0.4144,0.6076,0.8593,1.0031,1.0721,0.0,0.0,0.0,0.0,0.0,0.0,-0.9822,-0.9822,-0.9822,0.0,0.0,0.0,0.0,0.0,0.0,0.0,0.0,0.0,0.0,0.0,0.0,0.0,0.0,0.0,0.0,-0.9822,-0.9822,-0.9822,-0.9632,-0.9422,-0.9208,-0.9032,-0.8885,-0.8885,-0.8885,-0.8768,-0.8484,-0.8318,-0.7992,-0.7607,-0.7438,-0.7324,-0.721,-0.721,-0.7192,-0.7271,-0.7442,-0.7559,-0.752,-0.6155,-0.6025,-0.6705,-0.6705,-0.7194,-0.7872,-0.7872,-0.7872,-0.7872,-0.7872,-0.7872,-0.7872,-0.7872,-0.7872,-0.7747,-0.695,-0.5782,-0.4492,-0.3141,-0.1418,0.0,0.0,0.0,0.0,0.0,0.0,0.0,0.0,0.0,0.0,0.0,0.0,0.0,0.0,0.0,0.0,0.0,0.0,0.0,0.0,0.0,0.0,0.0,0.0,0.0,0.0,0.0185,0.0432,0.0741,0.1118,0.1439,0.1766,0.1979,0.2065,0.2082,0.2113,0.2128,0.2128,0.3586,0.5723,0.864,0.9443,1.0114,0.0,0.0,0.0,0.0,0.0,0.0,-0.9822,-0.9822,-0.9822,0.0,0.0,0.0,0.0,0.0,0.0,0.0,0.0,0.0,0.0,0.0,0.0,0.0,0.0,0.0,-0.9822,-0.9822,-0.9822,-0.9822,-0.9547,-0.9252,-0.8898,-0.8885,-0.8885,-0.8885,-0.8885,-0.8771,-0.854,-0.854,-0.8211,-0.7662,-0.7607,-0.7438,-0.721,-0.721,-0.721,-0.7224,-0.7399,-0.7505,-0.7535,-0.7761,-0.7858,-0.7872,-0.7872,-0.7872,-0.7872,-0.7872,-0.7872,-0.7872,-0.7872,-0.7872,-0.7872,-0.7872,-0.7872,-0.7872,-0.7872,-0.695,-0.56,-0.4122,-0.191,0.0,0.0,0.0,0.0,0.0,0.0,0.0,0.0,0.0,0.0,0.0,0.0,0.0,0.0,0.0,0.0,0.0,0.0,0.0,0.0,0.0,0.0,0.0,0.0,0.0,0.0,0.0,0.0124,0.0495,0.0815,0.1138,0.1521,0.1885,0.2111,0.2114,0.2141,0.2222,0.2222,0.3631,0.5637,0.8105,0.844,0.9244,0.0,0.0,0.0,0.0,0.0,0.0,-0.9822,-0.9822,-0.9822,0.0,0.0,0.0,0.0,0.0,0.0,0.0,0.0,0.0,0.0,0.0,0.0,0.0,0.0,0.0,-0.9822,-0.9822,-0.9822,-0.9822,-0.9547,-0.9252,-0.8898,-0.8885,-0.8885,-0.8885,-0.8885,-0.8881,-0.8826,-0.8598,-0.8318,-0.7934,-0.7715,-0.7438,-0.721,-0.721,-0.721,-0.7218,-0.7307,-0.7426,-0.7529,-0.7674,-0.7788,-0.7872,-0.7872,-0.7872,-0.7872,-0.7872,-0.7872,-0.7872,-0.7872,-0.7872,-0.7872,-0.7872,-0.7872,-0.7872,-0.7872,-0.695,-0.5416,-0.3018,-0.1233,0.0,0.0,0.0,0.0,0.0,0.0,0.0,0.0,0.0,0.0,0.0,0.0,0.0,0.0,0.0,0.0,0.0,0.0,0.0,0.0,0.0,0.0,0.0,0.0,0.0,0.0,0.0,0.0124,0.0503,0.082,0.1149,0.1567,0.1906,0.2121,0.2212,0.2218,0.2222,0.2222,0.3631,0.4568,0.517,0.7505,0.8776,0.0,0.0,0.0,-0.9822,0.0,0.0,0.0,-0.9822,-0.9822,0.0,0.0,0.0,0.0,0.0,0.0,0.0,0.0,0.0,0.0,0.0,0.0,0.0,0.0,0.0,-0.9822,-0.9822,-0.9761,-0.9612,-0.9462,-0.9252,-0.8898,-0.8885,-0.8885,-0.8885,-0.8885,-0.8885,-0.8885,-0.8768,-0.8543,-0.8263,-0.7937,-0.766,-0.7379,-0.7265,-0.721,-0.7218,-0.7452,-0.7598,-0.7665,-0.7911,-0.8155,-0.8271,-0.8155,-0.8119,-0.8183,-0.8363,-0.8424,-0.8424,-0.8424,-0.8424,-0.8363,-0.818,-0.8119,-0.8119,-0.7933,-0.6519,-0.4614,-0.3324,-0.1541,0.0,0.0,0.0,0.0,0.0,0.0,0.0,0.0,0.0,0.0,0.0,0.0,0.0,0.0,0.0,0.0,0.0,0.0,0.0,0.0,0.0,0.0,0.0,0.0,0.0,0.0,0.0,0.0063,0.0255,0.0578,0.0844,0.1054,0.1593,0.1938,0.2222,0.2222,0.2222,0.2222,0.2893,0.3631,0.4368,0.577,0.6838,0.0,0.0,0.0,0.0,0.0,-0.9822,0.0,0.0,0.0,0.0,0.0,0.0,0.0,0.0,0.0,0.0,0.0,0.0,0.0,0.0,0.0,0.0,0.0,0.0,0.0,-0.9822,-0.9696,-0.9405,-0.9381,-0.9252,-0.8898,-0.8885,-0.8885,-0.8885,-0.8885,-0.8885,-0.8885,-0.8885,-0.8768,-0.8484,-0.8208,-0.7937,-0.766,-0.7435,-0.7376,-0.7382,-0.7708,-0.7879,-0.7911,-0.8253,-0.8435,-0.8563,-0.8434,-0.8433,-0.845,-0.8727,-0.8793,-0.8815,-0.8815,-0.8894,-0.8854,-0.8613,-0.843,-0.8308,-0.7994,-0.6025,-0.3875,-0.3875,-0.2033,0.0,0.0,0.0,0.0,0.0,0.0,0.0,0.0,0.0,0.0,0.0,0.0,0.0,0.0,0.0,0.0,0.0,0.0,0.0,0.0,0.0,0.0,0.0,0.0,0.0,0.0,0.0,0.0,0.0,0.0327,0.0528,0.0529,0.1204,0.175,0.2087,0.2155,0.2222,0.2222,0.2222,0.2759,0.3899,0.4167,0.49,0.0,0.0,0.0,0.0,-0.9822,0.0,0.0,0.0,-0.9822,-0.9822,0.0,0.0,0.0,0.0,0.0,0.0,0.0,0.0,0.0,0.0,0.0,0.0,0.0,0.0,0.0,-0.9822,-0.9696,-0.9405,-0.9381,-0.9252,-0.8898,-0.8885,-0.8885,-0.8885,-0.8885,-0.8885,-0.8885,-0.8885,-0.8768,-0.8484,-0.8484,-0.8266,-0.7934,-0.7934,-0.7934,-0.7934,-0.7949,-0.8024,-0.8139,-0.8211,-0.8299,-0.842,-0.8377,-0.8452,-0.8537,-0.8484,-0.8514,-0.8611,-0.8611,-0.8751,-0.8915,-0.8854,-0.8613,-0.8308,-0.7994,-0.6025,-0.3875,-0.3875,-0.2033,0.0,0.0,0.0,0.0,0.0,0.0,0.0,0.0,0.0,0.0,0.0,0.0,0.0,0.0,0.0,0.0,0.0,0.0,0.0,0.0,0.0,0.0,0.0,0.0,0.0,0.0,0.0,0.0,0.0,0.0329,0.053,0.047,0.1211,0.1616,0.1683,0.202,0.2222,0.2222,0.2222,0.2289,0.249,0.3698,0.4367,0.0,0.0,0.0,0.0,0.0,0.0,-0.9822,0.0,-0.9822,0.0,0.0,0.0,0.0,0.0,0.0,0.0,0.0,0.0,0.0,0.0,0.0,0.0,0.0,0.0,0.0,0.0,0.0,0.0,-0.9357,-0.9157,-0.8895,-0.8885,-0.8885,-0.8885,-0.8885,-0.8885,-0.8885,-0.8885,-0.8768,-0.8484,-0.8484,-0.8322,-0.7989,-0.7989,-0.7989,-0.7989,-0.8211,-0.8298,-0.841,-0.8525,-0.8721,-0.8842,-0.8764,-0.8753,-0.8762,-0.8939,-0.9013,-0.9075,-0.9159,-0.9228,-0.9293,-0.9191,-0.8793,-0.8369,-0.8244,-0.6211,-0.3875,-0.3875,-0.2033,0.0,0.0,0.0,0.0,0.0,0.0,0.0,0.0,0.0,0.0,0.0,0.0,0.0,0.0,0.0,0.0,0.0,0.0,0.0,0.0,0.0,0.0,0.0,0.0,0.0,0.0,0.0,0.0,0.0,0.0133,0.0268,0.0471,0.101,0.1414,0.1616,0.202,0.2222,0.2222,0.2222,0.2222,0.2222,0.2826,0.3095,-0.9822,0.0,0.0,0.0,0.0,0.0,0.0,0.0,0.0,0.0,0.0,0.0,0.0,0.0,0.0,0.0,0.0,0.0,0.0,0.0,0.0,0.0,0.0,0.0,0.0,0.0,0.0,-0.9334,-0.9272,-0.9089,-0.8892,-0.8885,-0.8885,-0.8885,-0.8885,-0.8885,-0.8885,-0.8885,-0.8826,-0.8598,-0.8598,-0.8488,-0.8266,-0.8266,-0.8266,-0.8269,-0.8488,-0.8598,-0.8598,-0.8826,-0.8998,-0.9083,-0.8981,-0.8901,-0.8918,-0.9144,-0.9283,-0.934,-0.9493,-0.9598,-0.9626,-0.9364,-0.8973,-0.861,-0.843,-0.6641,-0.4488,-0.4059,-0.2279,-0.0494,-0.0123,0.0,0.0,0.0,0.0,0.0,0.0,0.0,0.0,0.0,0.0,0.0,0.0,0.0,0.0,0.0,0.0,0.0,0.0,0.0,0.0,0.0,0.0,0.0,0.0,0.0,0.0,0.0,0.0,0.0135,0.0337,0.074,0.1077,0.1481,0.1818,0.2087,0.2222,0.2222,0.2222,0.2222,0.2222,0.2222,0.0,0.0,0.0,-0.9822,0.0,0.0,0.0,0.0,-0.9822,0.0,0.0,0.0,0.0,0.0,0.0,0.0,0.0,0.0,0.0,0.0,0.0,0.0,0.0,0.0,0.0,0.0,0.0,-0.9241,-0.9214,-0.9089,-0.8892,-0.8885,-0.8885,-0.8885,-0.8885,-0.8885,-0.8885,-0.8885,-0.8881,-0.8881,-0.8881,-0.8881,-0.8881,-0.8881,-0.8881,-0.8881,-0.8881,-0.8881,-0.8881,-0.8881,-0.8888,-0.8892,-0.8885,-0.8888,-0.8898,-0.8898,-0.9042,-0.9241,-0.9337,-0.9574,-0.9754,-0.9396,-0.9275,-0.9156,-0.8552,-0.7441,-0.5961,-0.4366,-0.2956,-0.1665,-0.0309,0.0,0.0,0.0,0.0,0.0,0.0,0.0,0.0,0.0,0.0,0.0,0.0,0.0,0.0,0.0,0.0,0.0,0.0,0.0,0.0,0.0,0.0,0.0,0.0,0.0,0.0,0.0,0.0,0.0,0.0,0.0337,0.074,0.1077,0.1414,0.1818,0.2222,0.2222,0.2222,0.2222,0.2222,0.2222,0.0,0.0,-0.9822,-0.9822,0.0,0.0,0.0,0.0,0.0,0.0,0.0,0.0,0.0,0.0,0.0,0.0,0.0,0.0,0.0,0.0,-0.9785,0.0,0.0,0.0,0.0,0.0,0.0,-0.9217,-0.9066,-0.8991,-0.8885,-0.8885,-0.8885,-0.8885,-0.8885,-0.8885,-0.8885,-0.8885,-0.8826,-0.8654,-0.8826,-0.8826,-0.8654,-0.8826,-0.8885,-0.8885,-0.8885,-0.8885,-0.8885,-0.8885,-0.8885,-0.8885,-0.8885,-0.8885,-0.8885,-0.8885,-0.8967,-0.9049,-0.9293,-0.9574,-0.9758,-0.964,-0.9457,-0.9278,-0.9034,-0.7187,-0.4977,-0.4363,-0.2524,-0.0555,-0.0123,0.0,0.0,0.0,0.0,0.0,0.0,0.0,0.0,0.0,0.0,0.0,0.0,0.0,0.0,0.0,0.0,0.0,0.0,0.0,0.0,0.0,0.0,0.0,0.0,0.0,0.0,0.0,0.0,0.0,0.0,0.0337,0.0538,0.0673,0.1279,0.1683,0.1818,0.2087,0.2222,0.2222,0.2222,0.2222,-0.9666,-0.9666,0.0,-0.9666,-0.9666,0.0,-0.9666,0.0,0.0,0.0,0.0,0.0,0.0,0.0,0.0,0.0,0.0,0.0,0.0,-0.9666,-0.9632,0.0,0.0,0.0,0.0,0.0,-0.9187,-0.9079,-0.8991,-0.8885,0.0,0.0,-0.8885,-0.8885,-0.8885,-0.8908,-0.9015,-0.9015,-0.8927,-0.8808,-0.898,-0.8953,-0.8729,-0.89,-0.8988,-0.8885,-0.8885,-0.8885,-0.8885,-0.8885,-0.8885,-0.8885,-0.8885,-0.8885,-0.8885,-0.8885,-0.8949,-0.9123,-0.9317,-0.9574,-0.9822,-0.9822,-0.964,-0.9457,-0.9335,-0.7739,-0.5768,-0.4701,-0.2941,-0.117,-0.0245,0.0,0.0,0.0,0.0,0.0,0.0,0.0,0.0,0.0,0.0,0.0,0.0,0.0,0.0,0.0,0.0,0.0,0.0,0.0,0.0,0.0,0.0,0.0,0.0,0.0,0.0,0.0,0.0,0.0,0.0,0.0202,0.0404,0.0471,0.0942,0.1346,0.1616,0.1885,0.2087,0.2222,0.2222,0.2222]}]]